Date StartTime U_cm/s V_cm/s W_cm/s Ustd_cm/s Vstd_cm/s Wstd_cm/s Uvar_(cm/s)^2 Vvar_(cm/s)^2 Wvar_(cm/s)^2 KE_(m/s)^2 TurbulentKE_(m/s)^2 HorizWindSpeed_cm/s FrictionSpeec_cm/s DragCoef SpeedOfSound_m/s SonicTemperature_C Pressure_mb 
12/18/2014  00:00:00       16.145       16.094       18.663       24.443       26.979       18.022      597.450      727.860      324.798        0.126        0.083       22.796       16.126        0.500      333.629        3.068      860.456
12/18/2014  00:01:00       55.421       45.952       30.019       27.192       14.950       18.161      739.403      223.504      329.815        0.369        0.065       71.994       12.774        0.031      333.653        3.107      860.440
12/18/2014  00:02:00       -1.743       28.526       37.397       14.725       21.132       11.207      216.818      446.546      125.597        0.150        0.039       28.579        8.208        0.082      333.615        3.047      860.443
12/18/2014  00:03:00       26.553      -34.328        5.928       20.696       43.828       21.209      428.339     1920.921      449.819        0.236        0.140       43.399       23.639        0.297      333.881        3.487      860.460
12/18/2014  00:04:00        5.115       44.846       58.893       21.275       26.196       20.920      452.609      686.206      437.640        0.354        0.079       45.137       19.300        0.183      333.890        3.502      860.457
12/18/2014  00:05:00       41.980       25.321       38.485       29.258       19.597       20.749      856.016      384.060      430.504        0.278        0.084       49.025       15.769        0.103      333.800        3.353      860.457
12/18/2014  00:06:00       37.956       29.943       42.012       19.900       19.380       18.449      396.004      375.596      340.350        0.261        0.056       48.344       13.497        0.078      333.747        3.265      860.466
12/18/2014  00:07:00       12.971        8.980       33.008       28.821       35.344       18.534      830.631     1249.197      343.510        0.188        0.121       15.776       25.078        2.527      333.752        3.273      860.474
12/18/2014  00:08:00       27.161        5.885       41.105       28.402       44.273       33.156      806.679     1960.091     1099.350        0.316        0.193       27.791       31.948        1.322      333.780        3.319      860.482
12/18/2014  00:09:00        4.179       61.404       87.733       25.024       47.558       33.715      626.188     2261.746     1136.717        0.775        0.201       61.546       27.072        0.193      333.815        3.377      860.475
12/18/2014  00:10:00       36.188       95.829      113.109       33.674       47.093       25.935     1133.964     2217.730      672.646        1.365        0.201      102.435       28.441        0.077      333.817        3.379      860.469
12/18/2014  00:11:00       37.992       90.332       95.256       40.288       41.505       29.598     1623.134     1722.625      876.013        1.145        0.211       97.996       27.908        0.081      333.760        3.286      860.482
12/18/2014  00:12:00       73.680       66.877       68.211       31.474       39.122       30.860      990.602     1530.536      952.331        0.901        0.174       99.505       25.395        0.065      333.695        3.178      860.493
12/18/2014  00:13:00       39.776       64.010       72.152       49.115       32.888       29.695     2412.253     1081.636      881.782        0.763        0.219       75.361       27.328        0.132      333.678        3.149      860.500
12/18/2014  00:14:00       85.966       23.440       26.584       53.206       32.641       37.113     2830.831     1065.445     1377.374        0.696        0.264       89.104       16.608        0.035      333.638        3.084      860.512
12/18/2014  00:15:00       92.876       39.438       39.384       43.358       29.779       33.120     1879.881      886.760     1096.917        0.780        0.193      100.902       27.317        0.073      333.617        3.048      860.522
12/18/2014  00:16:00      101.482       79.160       45.495       41.931       30.076       32.707     1758.214      904.584     1069.773        1.118        0.187      128.705       25.772        0.040      333.637        3.081      860.529
12/18/2014  00:17:00      122.289       88.615       55.937       39.693       33.138       28.600     1575.549     1098.134      817.983        1.471        0.175      151.021       17.537        0.013      333.637        3.082      860.535
12/18/2014  00:18:00       97.351       83.164       70.133       45.267       38.389       34.881     2049.105     1473.688     1216.710        1.302        0.237      128.037       18.912        0.022      333.594        3.011      860.549
12/18/2014  00:19:00       38.074       90.369       86.004       33.080       32.707       28.792     1094.283     1069.738      828.977        1.000        0.150       98.062       21.834        0.050      333.596        3.014      860.560
12/18/2014  00:20:00        3.499       39.570       73.904       27.282       31.441       22.241      744.326      988.562      494.679        0.463        0.111       39.724       18.741        0.223      333.574        2.977      860.566
12/18/2014  00:21:00       12.862       26.466       59.294       22.070       33.076       25.316      487.107     1094.012      640.923        0.330        0.111       29.425       23.052        0.614      333.616        3.047      860.563
12/18/2014  00:22:00       35.853      -42.008       21.518       36.250       55.386       38.446     1314.068     3067.566     1478.101        0.469        0.293       55.227       31.127        0.318      333.662        3.124      860.570
12/18/2014  00:23:00       34.615       -7.013       28.606       42.521       37.105       39.642     1808.019     1376.757     1571.478        0.341        0.238       35.318       27.410        0.602      333.683        3.157      860.595
12/18/2014  00:24:00        5.604       59.493       84.415       31.244       42.487       26.915      976.165     1805.165      724.422        0.710        0.175       59.757       26.556        0.197      333.695        3.179      860.603
12/18/2014  00:25:00       -3.755       65.541       82.400       19.192       42.027       24.171      368.317     1766.276      584.244        0.691        0.136       65.649       27.067        0.170      333.703        3.190      860.597
12/18/2014  00:26:00       11.774       55.396       71.239       39.641       41.438       18.520     1571.417     1717.147      342.993        0.596        0.182       56.633       13.044        0.053      333.734        3.243      860.591
12/18/2014  00:27:00       57.749       62.068       51.646       35.894       27.531       18.393     1288.361      757.943      338.305        0.612        0.119       84.779        5.855        0.005      333.765        3.294      860.585
12/18/2014  00:28:00       52.490       70.898       70.162       44.500       31.519       23.328     1980.238      993.437      544.214        0.811        0.176       88.214       23.349        0.070      333.752        3.272      860.578
12/18/2014  00:29:00       70.989       42.238       60.116       34.651       30.369       23.778     1200.713      922.278      565.378        0.656        0.134       82.605       16.029        0.038      333.747        3.265      860.575
12/18/2014  00:30:00       68.488       31.832       31.024       36.895       25.761       28.446     1361.206      663.633      809.153        0.475        0.142       75.524       22.119        0.086      333.778        3.316      860.562
12/18/2014  00:31:00       61.488       33.286       33.100       23.608       25.065       22.519      557.337      628.242      507.102        0.384        0.085       69.919       14.355        0.042      333.745        3.262      860.559
12/18/2014  00:32:00       54.346       24.839       32.831       28.814       19.601       20.449      830.257      384.217      418.160        0.314        0.082       59.753       15.054        0.063      333.788        3.333      860.551
12/18/2014  00:33:00       57.128       21.305       41.400       24.801       24.046       18.212      615.090      578.234      331.670        0.348        0.076       60.971       15.659        0.066      333.737        3.246      860.551
12/18/2014  00:34:00       34.654       22.442       28.391       23.247       22.120       16.886      540.418      489.275      285.138        0.191        0.066       41.286       10.740        0.068      333.710        3.202      860.554
12/18/2014  00:35:00       55.348       47.626       40.851       24.185       21.054       21.541      584.903      443.259      464.001        0.425        0.075       73.018       19.922        0.074      333.732        3.242      860.548
12/18/2014  00:36:00       35.739       36.643       30.465       21.056       12.703       13.301      443.351      161.354      176.908        0.216        0.039       51.186        7.862        0.024      333.720        3.221      860.540
12/18/2014  00:37:00        2.531       18.053       38.285       13.203       19.687       11.084      174.321      387.595      122.844        0.124        0.034       18.229        6.528        0.128      333.773        3.307      860.532
12/18/2014  00:38:00        9.781       21.854       41.723       17.868       21.968       10.662      319.262      482.590      113.668        0.161        0.046       23.943       11.539        0.232      333.786        3.331      860.525
12/18/2014  00:39:00       18.283       31.214       37.602       19.257       18.130       16.756      370.849      328.703      280.754        0.185        0.049       36.174       14.704        0.165      333.836        3.412      860.526
12/18/2014  00:40:00       28.797       41.187       35.494       21.358       19.981       19.878      456.154      399.227      395.124        0.252        0.063       50.256       14.116        0.079      333.775        3.312      860.518
12/18/2014  00:41:00       62.233       38.494       41.905       33.396       21.521       23.140     1115.287      463.173      535.472        0.461        0.106       73.176       12.749        0.030      333.784        3.326      860.510
12/18/2014  00:42:00       73.004       37.216       22.144       23.908       24.085       28.034      571.606      580.104      785.883        0.457        0.097       81.943       17.130        0.044      333.769        3.300      860.505
12/18/2014  00:43:00       89.360       48.861       29.749       25.783       28.483       32.690      664.787      811.298     1068.640        0.690        0.127      101.846       18.649        0.034      333.757        3.281      860.504
12/18/2014  00:44:00       88.592       41.339       51.233       34.409       35.820       28.401     1184.013     1283.076      806.633        0.773        0.164       97.762       19.664        0.040      333.702        3.190      860.501
12/18/2014  00:45:00       41.975       58.566       63.926       37.979       30.400       19.494     1442.411      924.187      380.001        0.601        0.137       72.055       13.143        0.033      333.642        3.090      860.498
12/18/2014  00:46:00       56.433       41.155       48.208       32.739       33.852       24.478     1071.828     1145.940      599.180        0.501        0.141       69.846       16.719        0.057      333.599        3.019      860.507
12/18/2014  00:47:00       33.108       56.128       60.474       25.814       26.909       17.870      666.377      724.114      319.322        0.481        0.085       65.165       11.082        0.029      333.657        3.116      860.512
12/18/2014  00:48:00       26.588       55.903       46.819       22.229       25.822       22.845      494.108      666.785      521.894        0.385        0.084       61.903       19.129        0.095      333.638        3.083      860.524
12/18/2014  00:49:00       11.730       12.641       16.850       19.202       15.188       16.913      368.711      230.687      286.065        0.073        0.044       17.245       12.739        0.546      333.638        3.084      860.546
12/18/2014  00:50:00       33.555        3.532        7.026       18.050       17.133       14.288      325.814      293.531      204.161        0.101        0.041       33.740       10.418        0.095      333.616        3.049      860.574
12/18/2014  00:51:00        5.570       28.565       -4.299        4.491        5.474        6.148       20.169       29.964       37.794        0.048        0.004       29.102        4.775        0.027      333.605        3.030      860.602
12/18/2014  00:52:00       -2.505        4.708       -7.346       11.360       11.091        4.603      129.050      123.004       21.185        0.018        0.014        5.333        5.503        1.065      333.663        3.125      860.628
12/18/2014  00:53:00      -12.759      -10.174        2.452       26.812       10.642        9.914      718.866      113.247       98.280        0.060        0.047       16.319        8.827        0.293      333.662        3.125      860.641
12/18/2014  00:54:00       -4.681       -2.816        2.712       20.718       14.452        8.068      429.223      208.871       65.089        0.037        0.035        5.462        6.317        1.337      333.624        3.062      860.650
12/18/2014  00:55:00       30.557       24.182        9.294       14.646        9.298       10.593      214.515       86.450      112.205        0.101        0.021       38.969        5.623        0.021      333.646        3.097      860.655
12/18/2014  00:56:00       31.105        9.402        9.996       20.955       14.542       15.915      439.112      211.464      253.296        0.103        0.045       32.495       14.288        0.193      333.689        3.169      860.674
12/18/2014  00:57:00        6.895       26.563       39.170       18.275       18.055       11.879      333.975      325.982      141.111        0.154        0.040       27.443       10.871        0.157      333.695        3.179      860.690
12/18/2014  00:58:00       -0.966      -12.392       40.300       18.733       41.081       23.338      350.912     1687.642      544.655        0.218        0.129       12.429       25.060        4.065      333.844        3.425      860.700
12/18/2014  00:59:00       10.697      -74.260       -2.873       23.455       40.167       20.113      550.134     1613.348      404.516        0.410        0.128       75.027        8.480        0.013      333.828        3.399      860.701
12/18/2014  01:00:00      -14.558       -6.696       11.073       33.574       23.381       20.051     1127.242      546.654      402.047        0.123        0.104       16.024       17.004        1.126      333.761        3.289      860.690
12/18/2014  01:01:00      -15.176        5.609       10.030       20.287       16.502       11.514      411.559      272.331      132.576        0.059        0.041       16.180       10.218        0.399      333.785        3.328      860.682
12/18/2014  01:02:00       -0.134        3.757       15.121        7.156        7.875        8.514       51.204       62.019       72.485        0.021        0.009        3.759        4.727        1.581      333.750        3.270      860.667
12/18/2014  01:03:00        0.365        5.276       -4.079        8.107        6.905        8.617       65.725       47.675       74.245        0.012        0.009        5.289        6.841        1.673      333.691        3.171      860.648
12/18/2014  01:04:00      -31.740       14.080        9.105        8.792       12.954       10.546       77.306      167.812      111.212        0.082        0.018       34.723        1.110        0.001      333.751        3.269      860.622
12/18/2014  01:05:00      -14.338        3.622        9.443       21.290       12.654       11.777      453.258      160.114      138.709        0.053        0.038       14.789        6.324        0.183      333.774        3.309      860.618
12/18/2014  01:06:00      -12.755        4.987        0.467       11.065       11.588       10.758      122.427      134.280      115.732        0.028        0.019       13.695        6.700        0.239      333.765        3.294      860.615
12/18/2014  01:07:00       -6.419       13.500       29.053       17.190       12.431       13.155      295.480      154.535      173.060        0.085        0.031       14.948       10.653        0.508      333.739        3.250      860.614
12/18/2014  01:08:00       -1.507       13.175       39.362       18.767       28.636       19.054      352.206      819.993      363.041        0.163        0.077       13.261       18.515        1.949      333.760        3.286      860.612
12/18/2014  01:09:00       12.167       12.037       47.219       25.625       19.565       23.224      656.628      382.787      539.344        0.205        0.079       17.115        8.230        0.231      333.731        3.238      860.623
12/18/2014  01:10:00       33.994      -51.867        0.205       36.085       51.830       37.708     1302.116     2686.370     1421.859        0.463        0.271       62.014       31.168        0.253      333.764        3.293      860.629
12/18/2014  01:11:00       17.341      -48.090        7.209       26.547       35.108       18.409      704.721     1232.554      338.876        0.247        0.114       51.122       11.778        0.053      333.806        3.364      860.656
12/18/2014  01:12:00       17.843      -39.656        7.131       20.461       30.086       20.224      418.640      905.139      409.007        0.184        0.087       43.485       18.206        0.175      333.849        3.433      860.678
12/18/2014  01:13:00       39.269      -22.263       12.199       28.086       31.944       28.676      788.832     1020.408      822.316        0.241        0.132       45.141       23.594        0.273      333.766        3.296      860.687
12/18/2014  01:14:00       46.713       41.724       19.194       26.693       23.173       19.837      712.496      536.982      393.519        0.297        0.082       62.633        7.850        0.016      333.717        3.216      860.684
12/18/2014  01:15:00       53.044       53.086       23.876       34.744       26.030       29.716     1207.152      677.556      883.033        0.448        0.138       75.045       26.953        0.129      333.684        3.159      860.688
12/18/2014  01:16:00       44.809       44.401       24.128       26.496       16.806       19.701      702.012      282.447      388.135        0.297        0.069       63.082       10.713        0.029      333.634        3.078      860.689
12/18/2014  01:17:00        8.933       12.453       20.220       12.726       20.274       13.471      161.941      411.029      181.468        0.070        0.038       15.326        5.329        0.121      333.670        3.138      860.689
12/18/2014  01:18:00       13.202       23.161       24.821       12.343       17.623       11.651      152.338      310.584      135.735        0.096        0.030       26.659        6.176        0.054      333.640        3.087      860.692
12/18/2014  01:19:00       11.705       -4.941       17.378       16.438       32.636       20.359      270.219     1065.090      414.504        0.111        0.087       12.705       19.726        2.411      333.708        3.199      860.693
12/18/2014  01:20:00       28.984      -15.628       25.261       24.792       42.328       21.698      614.629     1791.626      470.788        0.230        0.144       32.929       20.523        0.388      333.767        3.297      860.690
12/18/2014  01:21:00       46.614       -2.620       31.978       26.325       42.092       32.203      693.026     1771.756     1037.006        0.335        0.175       46.688       35.739        0.586      333.748        3.267      860.693
12/18/2014  01:22:00       45.601       10.110       17.015       31.195       29.676       26.352      973.105      880.636      694.428        0.251        0.127       46.709       27.441        0.345      333.745        3.262      860.702
12/18/2014  01:23:00       37.529       14.897       32.905       20.130       31.752       21.694      405.208     1008.159      470.628        0.230        0.094       40.378       20.893        0.268      333.736        3.245      860.710
12/18/2014  01:24:00       48.930       42.604       27.561       26.587       17.764       28.261      706.860      315.556      798.708        0.339        0.091       64.879       19.152        0.087      333.703        3.192      860.721
12/18/2014  01:25:00       17.314       27.512       42.783       22.035       19.514       16.588      485.557      380.785      275.156        0.201        0.057       32.507        9.358        0.083      333.712        3.205      860.736
12/18/2014  01:26:00        1.191       63.990       81.531       21.884       41.838       22.127      478.910     1750.429      489.615        0.673        0.136       64.001       22.168        0.120      333.732        3.240      860.730
12/18/2014  01:27:00        6.722       64.612       89.463       24.032       35.848       21.160      577.534     1285.081      447.725        0.727        0.116       64.960       22.180        0.117      333.727        3.230      860.717
12/18/2014  01:28:00       -6.963       56.747       87.926       17.973       32.729       17.661      323.042     1071.177      311.903        0.635        0.085       57.172       18.107        0.100      333.735        3.243      860.715
12/18/2014  01:29:00       -4.555       16.136       46.719       14.965       19.932       19.100      223.945      397.283      364.823        0.172        0.049       16.767       11.599        0.479      333.777        3.314      860.724
12/18/2014  01:30:00       -5.758      -12.952       17.911       14.915       19.383       15.786      222.463      375.697      249.189        0.068        0.042       14.174        6.979        0.242      333.799        3.352      860.744
12/18/2014  01:31:00       17.914       10.121       16.460       13.150       16.093       14.089      172.914      258.998      198.510        0.066        0.032       20.575        9.821        0.228      333.739        3.250      860.760
12/18/2014  01:32:00       22.128       23.815        8.410       13.470       14.237       13.346      181.435      202.685      178.114        0.084        0.028       32.508        7.842        0.058      333.709        3.203      860.763
12/18/2014  01:33:00       64.871       54.466        8.955       34.374       27.129       22.647     1181.605      735.958      512.872        0.484        0.122       84.704       16.540        0.038      333.650        3.103      860.769
12/18/2014  01:34:00      103.616       64.598        5.585       20.956       14.898       12.875      439.156      221.948      165.757        0.788        0.041      122.103        6.901        0.003      333.604        3.026      860.765
12/18/2014  01:35:00       60.428       52.408       26.577       18.147       16.778       14.976      329.316      281.501      224.285        0.397        0.042       79.989        4.153        0.003      333.602        3.025      860.777
12/18/2014  01:36:00       34.721       30.072        6.962       21.796       20.950       17.565      475.085      438.916      308.534        0.169        0.061       45.933       14.589        0.101      333.589        3.003      860.801
12/18/2014  01:37:00        9.940       21.730        8.664       13.268        9.245       10.191      176.042       85.470      103.864        0.051        0.018       23.895        5.254        0.048      333.590        3.003      860.832
12/18/2014  01:38:00       15.465       29.815        2.094       10.826        9.031        6.595      117.200       81.557       43.491        0.069        0.012       33.587        3.638        0.012      333.556        2.950      860.850
12/18/2014  01:39:00       50.202       33.931       15.036       15.302        9.801        9.462      234.149       96.059       89.538        0.216        0.021       60.594        7.812        0.017      333.568        2.967      860.861
12/18/2014  01:40:00       51.817       60.566       38.617       15.517       17.473       14.712      240.783      305.302      216.450        0.430        0.038       79.707       10.290        0.017      333.585        2.997      860.873
12/18/2014  01:41:00       67.715       74.743       44.854       20.724       20.106       27.636      429.493      404.235      763.750        0.689        0.080      100.856       13.057        0.017      333.629        3.069      860.879
12/18/2014  01:42:00       63.762       83.559       52.608       30.438       18.381       29.806      926.492      337.850      888.370        0.798        0.108      105.108       15.359        0.021      333.609        3.035      860.895
12/18/2014  01:43:00       67.774       71.707       58.810       33.474       27.368       23.314     1120.493      749.034      543.565        0.780        0.121       98.667       13.107        0.018      333.578        2.985      860.917
12/18/2014  01:44:00       44.601       39.630       41.537       32.525       22.407       24.907     1057.876      502.052      620.355        0.373        0.109       59.664       11.957        0.040      333.582        2.991      860.928
12/18/2014  01:45:00       84.234       43.909       32.057       29.648       21.305       22.300      879.033      453.915      497.295        0.594        0.092       94.991       11.050        0.014      333.553        2.942      860.940
12/18/2014  01:46:00       74.059       40.737       33.862       37.500       24.719       25.125     1406.284      611.019      631.269        0.547        0.132       84.524       22.749        0.072      333.535        2.912      860.949
12/18/2014  01:47:00       72.746       46.687       20.961       22.623       17.838       24.491      511.815      318.212      599.805        0.467        0.071       86.438       18.347        0.045      333.478        2.817      860.970
12/18/2014  01:48:00       63.751       30.812        1.118       20.014       19.836       10.375      400.549      393.456      107.637        0.296        0.045       70.806        4.781        0.005      333.517        2.884      860.986
12/18/2014  01:49:00       84.133       50.153        9.794       17.353       17.603       15.797      301.113      309.866      249.540        0.527        0.043       97.947       10.285        0.011      333.523        2.893      860.998
12/18/2014  01:50:00      106.372       55.375       20.297       25.668       32.789       24.217      658.835     1075.137      586.455        0.856        0.116      119.923       14.727        0.015      333.560        2.953      860.997
12/18/2014  01:51:00      104.128       63.491       37.453       37.021       26.887       31.217     1370.528      722.896      974.487        0.967        0.153      121.958       16.642        0.019      333.540        2.920      860.982
12/18/2014  01:52:00       46.783       90.430       75.858       30.235       24.677       24.397      914.152      608.965      595.237        0.912        0.106      101.815       18.547        0.033      333.509        2.868      860.987
12/18/2014  01:53:00       46.471       56.308       38.464       41.514       30.572       30.131     1723.426      934.624      907.867        0.519        0.178       73.008       21.378        0.086      333.486        2.831      861.000
12/18/2014  01:54:00       33.200       20.738       32.253       33.285       26.909       21.835     1107.906      724.077      476.770        0.244        0.115       39.145       11.529        0.087      333.491        2.839      861.022
12/18/2014  01:55:00       57.837       41.233       34.672       32.639       26.935       24.528     1065.333      725.470      601.630        0.432        0.120       71.030       19.407        0.075      333.530        2.905      861.028
12/18/2014  01:56:00       73.844       53.136       41.948       21.262       16.283       15.872      452.091      265.148      251.916        0.550        0.048       90.975        9.959        0.012      333.509        2.870      861.043
12/18/2014  01:57:00       63.949       51.652       24.444       13.817       13.692       13.726      190.904      187.460      188.402        0.396        0.028       82.203        8.536        0.011      333.467        2.801      861.046
12/18/2014  01:58:00       43.120       44.405       10.446       17.733       11.754       12.920      314.448      138.147      166.915        0.228        0.031       61.897        6.471        0.011      333.503        2.859      861.046
12/18/2014  01:59:00       20.410       35.391        1.634       11.556       14.990       14.864      133.530      224.695      220.929        0.113        0.029       40.854        8.934        0.048      333.544        2.927      861.048
12/18/2014  02:00:00      -28.648       14.104      -10.882       26.060       21.429        8.596      679.140      459.223       73.887        0.117        0.061       31.932        9.149        0.082      333.586        2.998      861.043
12/18/2014  02:01:00      -54.749       17.659       -1.982       22.471       27.511       16.764      504.965      756.865      281.040        0.243        0.077       57.526       11.833        0.042      333.840        3.419      861.044
12/18/2014  02:02:00      -45.738       18.627       -7.241       15.966       19.522       13.328      254.898      381.106      177.630        0.165        0.041       49.386       11.244        0.052      333.848        3.433      861.046
12/18/2014  02:03:00      -13.255       33.707       -7.776       20.325       19.951       11.066      413.103      398.056      122.449        0.115        0.047       36.219       13.601        0.141      333.676        3.146      861.043
12/18/2014  02:04:00       42.986       35.087       13.288       18.924       20.349       14.793      358.129      414.099      218.820        0.212        0.050       55.488       15.733        0.080      333.710        3.201      861.039
12/18/2014  02:05:00       81.976       59.712       17.315       19.862       17.663       19.474      394.494      311.976      379.250        0.584        0.054      101.418        7.936        0.006      333.754        3.276      861.036
12/18/2014  02:06:00       59.625       48.452       30.327       27.596       22.509       25.866      761.514      506.636      669.052        0.438        0.097       76.830       13.020        0.029      333.749        3.269      861.041
12/18/2014  02:07:00       47.074       44.265       13.533       19.517       25.643       19.150      380.915      657.582      366.738        0.288        0.070       64.617       13.038        0.041      333.709        3.200      861.047
12/18/2014  02:08:00       37.151       10.363        4.876       15.147       13.902       15.352      229.433      193.268      235.694        0.108        0.033       38.569        9.164        0.056      333.697        3.181      861.043
12/18/2014  02:09:00       19.139        8.132        4.566       10.851       10.127       10.198      117.748      102.561      104.002        0.039        0.016       20.795        7.247        0.121      333.705        3.196      861.041
12/18/2014  02:10:00       25.153       21.280       26.569       10.757       16.239       10.637      115.724      263.696      113.141        0.114        0.025       32.947       10.421        0.100      333.721        3.222      861.036
12/18/2014  02:11:00       59.614       36.386       12.784       14.643       18.940       20.450      214.426      358.711      418.210        0.302        0.050       69.842       11.914        0.029      333.769        3.300      861.035
12/18/2014  02:12:00       71.522       42.321        7.151       17.852       10.921       17.003      318.699      119.260      289.086        0.384        0.036       83.105       10.509        0.016      333.751        3.271      861.039
12/18/2014  02:13:00       38.111       49.853       42.276       27.061       22.694       22.614      732.320      515.036      511.386        0.374        0.088       62.752       19.475        0.096      333.749        3.267      861.047
12/18/2014  02:14:00       63.262       62.424       55.726       37.465       17.281       24.214     1403.638      298.644      586.310        0.665        0.114       88.875       21.001        0.056      333.733        3.241      861.049
12/18/2014  02:15:00       24.570      -11.268       33.905       31.492       68.553       32.594      991.730     4699.463     1062.378        0.432        0.338       27.031       41.262        2.330      333.782        3.322      861.053
12/18/2014  02:16:00       11.858       26.635       57.367       23.487       33.170       20.794      551.635     1100.250      432.397        0.311        0.104       29.155       15.593        0.286      333.762        3.289      861.048
12/18/2014  02:17:00       33.512       29.433       64.005       33.215       37.196       26.469     1103.243     1383.559      700.608        0.464        0.159       44.602       24.296        0.297      333.729        3.235      861.046
12/18/2014  02:18:00       -0.453       14.615       41.538       33.050       44.716       37.423     1092.276     1999.493     1400.504        0.321        0.225       14.622       27.849        3.628      333.728        3.234      861.047
12/18/2014  02:19:00       34.061       -3.782       24.678       34.132       29.177       24.980     1165.020      851.303      623.989        0.221        0.132       34.270       19.519        0.324      333.730        3.235      861.060
12/18/2014  02:20:00       16.213       53.809       50.955       29.082       39.325       33.480      845.789     1546.421     1120.920        0.463        0.176       56.198       32.568        0.336      333.698        3.182      861.066
12/18/2014  02:21:00       25.762       41.008       58.614       41.993       37.094       32.702     1763.388     1375.987     1069.433        0.499        0.210       48.428       28.436        0.345      333.722        3.223      861.073
12/18/2014  02:22:00       11.552       45.199       70.621       25.359       38.555       19.283      643.085     1486.512      371.843        0.483        0.125       46.652       19.211        0.170      333.782        3.323      861.071
12/18/2014  02:23:00       25.050       70.502       70.612       38.299       43.964       36.926     1466.792     1932.817     1363.537        0.767        0.238       74.820       27.774        0.138      333.716        3.213      861.066
12/18/2014  02:24:00       70.408       21.773       37.953       55.408       50.565       37.718     3070.018     2556.833     1422.633        0.696        0.352       73.697       40.094        0.296      333.632        3.073      861.073
12/18/2014  02:25:00       78.628       67.818       46.904       20.594       22.146       32.414      424.104      490.426     1050.679        0.747        0.098      103.835       18.406        0.031      333.611        3.038      861.082
12/18/2014  02:26:00      100.424       63.593       27.718       26.032       19.662       21.591      677.673      386.606      466.181        0.821        0.077      118.866       16.057        0.018      333.576        2.981      861.096
12/18/2014  02:27:00       92.992       46.192       20.190       23.470       24.388       22.808      550.855      594.760      520.203        0.643        0.083      103.832       12.178        0.014      333.541        2.923      861.109
12/18/2014  02:28:00       49.166       37.414       40.735       15.388       21.539       18.805      236.778      463.944      353.617        0.327        0.053       61.783       11.471        0.034      333.570        2.971      861.121
12/18/2014  02:29:00       39.365       18.096       23.526       22.680       17.568       21.089      514.375      308.623      444.742        0.185        0.063       43.325       10.973        0.064      333.626        3.065      861.132
12/18/2014  02:30:00       17.373        4.107       18.618       18.784       12.264       16.494      352.827      150.403      272.045        0.072        0.039       17.852       11.327        0.403      333.698        3.183      861.147
12/18/2014  02:31:00       -1.749        9.118       16.233        6.459       10.519        9.411       41.714      110.649       88.567        0.030        0.012        9.284        6.790        0.535      333.662        3.124      861.163
12/18/2014  02:32:00       -3.287       37.468        6.823        8.715       11.112       11.305       75.948      123.484      127.795        0.089        0.016       37.612        7.424        0.039      333.714        3.209      861.182
12/18/2014  02:33:00       -3.121       -0.610       -7.439       17.662       19.023       12.549      311.933      361.862      157.489        0.045        0.042        3.180       14.136       19.764      333.797        3.348      861.193
12/18/2014  02:34:00       28.008       25.481       10.301       22.116       21.777       15.005      489.129      474.258      225.143        0.136        0.059       37.864        8.411        0.049      333.796        3.346      861.210
12/18/2014  02:35:00      105.062       54.860       11.892       15.849       23.034       16.747      251.181      530.543      280.468        0.763        0.053      118.523       10.188        0.007      333.751        3.271      861.216
12/18/2014  02:36:00       79.367       48.671       27.114       35.264       26.430       28.694     1243.547      698.557      823.320        0.608        0.138       93.102       19.077        0.042      333.773        3.307      861.220
12/18/2014  02:37:00       12.070       21.632       22.512       16.672       16.747       16.752      277.949      280.476      280.628        0.098        0.042       24.772       11.274        0.207      333.749        3.270      861.226
12/18/2014  02:38:00       -3.613       -9.043        7.923        6.835       11.265        7.847       46.714      126.897       61.574        0.020        0.012        9.738        2.266        0.054      333.758        3.283      861.234
12/18/2014  02:39:00        2.812       -3.981        2.797        4.851        7.175        9.074       23.530       51.474       82.336        0.009        0.008        4.874        2.640        0.293      333.710        3.202      861.239
12/18/2014  02:40:00        0.519        9.380        5.753        4.156        7.793        8.713       17.273       60.728       75.910        0.014        0.008        9.394        6.383        0.462      333.691        3.174      861.253
12/18/2014  02:41:00       -1.348       11.903        0.036        3.021        6.022        3.910        9.129       36.265       15.287        0.010        0.003       11.979        2.623        0.048      333.671        3.143      861.260
12/18/2014  02:42:00       -7.386       13.817       -1.592        8.016        4.420        4.149       64.249       19.541       17.216        0.017        0.005       15.668        4.659        0.088      333.692        3.171      861.265
12/18/2014  02:43:00      -43.019      -10.347       -2.629       17.462       14.010        7.476      304.915      196.280       55.898        0.126        0.028       44.246        5.246        0.014      333.743        3.257      861.282
12/18/2014  02:44:00      -64.468      -45.728       -7.756       16.807       10.362       10.489      282.462      107.375      110.023        0.340        0.025       79.039        2.304        0.001      333.730        3.235      861.287
12/18/2014  02:45:00      -62.583      -31.467        1.542       23.238       18.453       13.177      540.017      340.525      173.629        0.298        0.053       70.049       10.930        0.024      333.784        3.326      861.297
12/18/2014  02:46:00      -48.992      -50.431       -0.538       13.216       24.199       10.840      174.674      585.574      117.501        0.291        0.044       70.310        6.201        0.008      333.805        3.362      861.306
12/18/2014  02:47:00      -52.106      -38.610       -2.414       15.812       17.919       11.401      250.023      321.099      129.985        0.246        0.035       64.852        5.020        0.006      333.824        3.393      861.317
12/18/2014  02:48:00      -56.418      -22.944       -0.148       23.575       17.951       12.898      555.776      322.225      166.357        0.238        0.052       60.905       12.562        0.043      333.812        3.372      861.328
12/18/2014  02:49:00      -82.871       -9.660       -6.494       39.196       17.172       15.924     1536.341      294.863      253.565        0.454        0.104       83.432       19.826        0.056      333.758        3.283      861.341
12/18/2014  02:50:00      -94.286      -24.898      -13.255       14.483       14.504        8.769      209.754      210.360       76.895        0.509        0.025       97.518        6.667        0.005      333.775        3.312      861.343
12/18/2014  02:51:00      -55.714      -22.060        0.877       20.454       14.750       10.587      418.370      217.548      112.095        0.217        0.037       59.922        9.695        0.026      333.783        3.326      861.346
12/18/2014  02:52:00      -59.046      -31.304       -1.426       32.998       13.350        8.602     1088.849      178.210       74.000        0.290        0.067       66.831        7.626        0.013      333.829        3.403      861.355
12/18/2014  02:53:00      -68.170      -28.892       -1.847       20.568       20.672       10.857      423.025      427.338      117.872        0.323        0.048       74.040        9.274        0.016      333.810        3.368      861.365
12/18/2014  02:54:00      -70.655       -6.254       -4.686       17.545       16.113       12.453      307.815      259.632      155.076        0.289        0.036       70.931        9.388        0.018      333.814        3.377      861.376
12/18/2014  02:55:00      -69.120      -25.691        0.515       26.622       21.352       15.651      708.736      455.888      244.952        0.342        0.070       73.740       14.377        0.038      333.811        3.370      861.388
12/18/2014  02:56:00      -76.978      -11.807       -3.971       28.539       24.440       18.959      814.485      597.319      359.430        0.393        0.089       77.878       12.107        0.024      333.781        3.321      861.385
12/18/2014  02:57:00      -76.755      -15.871       -6.873       30.892       35.569       19.054      954.314     1265.162      363.036        0.439        0.129       78.379       16.800        0.046      333.743        3.258      861.375
12/18/2014  02:58:00     -135.237        0.922      -15.554       28.678       21.919       19.387      822.430      480.454      375.846        1.010        0.084      135.240       17.176        0.016      333.746        3.264      861.366
12/18/2014  02:59:00      -78.969        9.204       -4.535       30.846       22.769       13.403      951.506      518.415      179.633        0.400        0.082       79.503       13.941        0.031      333.820        3.386      861.365
12/18/2014  03:00:00     -114.094        0.324      -17.278       12.311       12.024       10.995      151.549      144.571      120.889        0.687        0.021      114.094       10.360        0.008      333.710        3.204      861.367
12/18/2014  03:01:00     -112.849      -25.752      -18.662       11.217       18.031       11.058      125.828      325.132      122.269        0.716        0.029      115.750        7.706        0.004      333.700        3.188      861.374
12/18/2014  03:02:00     -104.406      -39.118       -8.493       30.441       36.869       17.738      926.636     1359.334      314.628        0.755        0.130      111.494       18.876        0.029      333.818        3.383      861.382
12/18/2014  03:03:00      -95.564      -19.089      -15.502       18.696       27.211       15.641      349.534      740.434      244.650        0.554        0.067       97.452       12.011        0.015      333.789        3.335      861.382
12/18/2014  03:04:00      -91.345       -5.730       -9.536       21.024       19.943       13.921      442.016      397.733      193.805        0.475        0.052       91.525        9.528        0.011      333.704        3.192      861.379
12/18/2014  03:05:00      -76.675      -34.565       -2.193       27.531       21.226       15.880      757.976      450.529      252.187        0.427        0.073       84.106       16.127        0.037      333.679        3.152      861.377
12/18/2014  03:06:00      -89.656      -37.796       -4.268       18.511       21.036       15.154      342.650      442.493      229.636        0.525        0.051       97.297       12.701        0.017      333.624        3.061      861.379
12/18/2014  03:07:00      -78.083      -13.996       -6.049       18.627       19.421       12.308      346.982      377.162      151.497        0.360        0.044       79.328        9.012        0.013      333.657        3.116      861.372
12/18/2014  03:08:00     -123.956      -59.700       -1.115       38.592       17.839       13.164     1489.326      318.245      173.304        1.046        0.099      137.584       14.281        0.011      333.665        3.128      861.375
12/18/2014  03:09:00      -97.895      -37.349        1.960       43.723       31.743       22.551     1911.692     1007.641      508.556        0.720        0.171      104.778       21.579        0.042      333.651        3.106      861.376
12/18/2014  03:10:00      -77.177      -11.116       -5.904       25.277       14.478       12.186      638.946      209.608      148.498        0.356        0.050       77.974       14.015        0.032      333.608        3.035      861.368
12/18/2014  03:11:00     -108.741      -22.433       -9.013       28.686       15.842       13.012      822.895      250.970      169.302        0.683        0.062      111.031        9.180        0.007      333.642        3.090      861.361
12/18/2014  03:12:00     -111.768      -16.835      -13.305       37.656       23.173       13.257     1417.961      536.988      175.745        0.754        0.107      113.029       13.485        0.014      333.724        3.226      861.359
12/18/2014  03:13:00      -78.342      -11.289       -3.691       19.576       16.383        9.824      383.221      268.408       96.519        0.351        0.037       79.152        4.405        0.003      333.681        3.155      861.356
12/18/2014  03:14:00      -88.282       -6.582       -1.187       23.560       22.849       17.326      555.055      522.085      300.200        0.461        0.069       88.527       12.840        0.021      333.649        3.103      861.357
12/18/2014  03:15:00      -94.614      -27.082      -13.588       17.766       26.111       11.375      315.618      681.793      129.402        0.550        0.056       98.414       10.052        0.010      333.705        3.194      861.363
12/18/2014  03:16:00     -135.478        2.849      -15.602       19.039       13.787       12.595      362.500      190.086      158.625        0.966        0.036      135.508       10.505        0.006      333.676        3.148      861.373
12/18/2014  03:17:00     -120.754        3.105      -13.537       16.795       29.136       14.046      282.062      848.893      197.279        0.805        0.066      120.794       10.418        0.007      333.685        3.163      861.389
12/18/2014  03:18:00      -89.364       13.228       -7.597       32.635       23.755       16.879     1065.041      564.316      284.899        0.507        0.096       90.338       18.627        0.043      333.711        3.205      861.406
12/18/2014  03:19:00      -78.277        5.332       -7.285       11.950       12.763        8.985      142.802      162.882       80.722        0.330        0.019       78.459        6.963        0.008      333.603        3.024      861.416
12/18/2014  03:20:00      -53.648      -11.858       -3.160       20.424       25.740       13.511      417.149      662.548      182.557        0.215        0.063       54.943       11.860        0.047      333.711        3.207      861.428
12/18/2014  03:21:00      -10.317      -18.360        0.476       13.084       13.779       10.686      171.189      189.870      114.193        0.046        0.024       21.060        7.899        0.141      333.725        3.232      861.428
12/18/2014  03:22:00       -6.375      -18.187        1.418       13.576        9.932       15.579      184.320       98.654      242.709        0.045        0.026       19.272       11.448        0.353      333.802        3.355      861.428
12/18/2014  03:23:00      -19.377       -9.308      -11.469        9.234        6.969        4.998       85.267       48.572       24.985        0.038        0.008       21.497        1.736        0.007      333.738        3.249      861.422
12/18/2014  03:24:00      -15.493        5.160        7.215       11.238       14.927       18.181      126.289      222.811      330.539        0.050        0.034       16.330       14.028        0.738      333.806        3.361      861.411
12/18/2014  03:25:00      -13.600       17.149       29.702        9.429       14.745       14.647       88.910      217.421      214.545        0.094        0.026       21.887       11.438        0.273      333.859        3.451      861.404
12/18/2014  03:26:00      -27.176       -7.531        7.077       19.891       16.809       17.262      395.666      282.535      297.979        0.091        0.049       28.200       15.144        0.288      333.847        3.432      861.410
12/18/2014  03:27:00      -36.815       -7.597       -3.169       15.131       13.213       12.133      228.943      174.588      147.198        0.099        0.028       37.590       11.436        0.093      333.830        3.403      861.406
12/18/2014  03:28:00      -21.456       -7.495        3.547       19.759       11.803        8.525      390.423      139.315       72.671        0.057        0.030       22.727        8.686        0.146      333.820        3.385      861.398
12/18/2014  03:29:00      -24.142      -17.386        3.370       19.147       18.639       12.209      366.624      347.421      149.053        0.088        0.043       29.750        8.240        0.077      333.857        3.447      861.384
12/18/2014  03:30:00      -22.102      -15.243       -6.102       11.388       10.060        9.604      129.676      101.201       92.229        0.054        0.016       26.849        4.688        0.030      333.914        3.544      861.378
12/18/2014  03:31:00      -36.435       -6.260       -3.896       16.336        9.609        8.167      266.872       92.332       66.697        0.090        0.021       36.969        6.921        0.035      333.927        3.562      861.367
12/18/2014  03:32:00      -35.372        6.402       -2.293       10.950       15.239       10.384      119.904      232.237      107.826        0.088        0.023       35.946        8.258        0.053      333.897        3.516      861.359
12/18/2014  03:33:00      -29.230        5.229        6.549       16.376       12.927       14.670      268.189      167.117      215.223        0.079        0.033       29.694       11.893        0.160      333.908        3.532      861.350
12/18/2014  03:34:00      -47.733       11.457       -3.480       22.089       11.998       10.433      487.938      143.948      108.846        0.158        0.037       49.089        6.722        0.019      333.909        3.533      861.347
12/18/2014  03:35:00      -48.674      -10.178       -6.242       15.971       15.520       10.108      255.075      240.865      102.178        0.155        0.030       49.727        9.307        0.035      333.874        3.475      861.353
12/18/2014  03:36:00      -29.115      -24.762       -2.400        9.348        8.252        7.463       87.394       68.093       55.693        0.084        0.011       38.221        3.639        0.009      333.906        3.529      861.362
12/18/2014  03:37:00      -16.956      -11.254        3.943       13.062       10.012        8.022      170.618      100.237       64.353        0.038        0.017       20.350        4.096        0.041      333.915        3.543      861.372
12/18/2014  03:38:00      -20.240       -4.833       -4.457       18.299       10.709       12.393      334.842      114.677      153.582        0.053        0.030       20.809        8.631        0.172      333.826        3.396      861.382
12/18/2014  03:39:00       -2.891        0.518        9.665       16.976        8.035        8.821      288.189       64.553       77.816        0.027        0.022        2.937        6.091        4.300      333.825        3.395      861.393
12/18/2014  03:40:00       24.231        1.634        7.860        8.880       22.209       10.907       78.846      493.261      118.955        0.067        0.035       24.286        4.970        0.042      333.757        3.281      861.391
12/18/2014  03:41:00       50.817       35.305       -1.600       15.752       20.485       12.822      248.134      419.647      164.416        0.233        0.042       61.877        8.407        0.018      333.630        3.072      861.387
12/18/2014  03:42:00       85.739       43.580        6.879       21.218       15.606       15.255      450.202      243.533      232.716        0.511        0.046       96.179        9.396        0.010      333.560        2.956      861.377
12/18/2014  03:43:00      106.305       47.134        6.959       21.510       18.319       20.759      462.677      335.582      430.944        0.740        0.061      116.286       15.475        0.018      333.526        2.897      861.371
12/18/2014  03:44:00       92.168       55.645       19.471       25.900       23.698       23.044      670.806      561.599      531.007        0.687        0.088      107.663       13.305        0.015      333.561        2.955      861.380
12/18/2014  03:45:00       70.083       47.996       33.448       32.787       28.126       22.333     1075.004      791.068      498.756        0.535        0.118       84.943       15.185        0.032      333.548        2.933      861.390
12/18/2014  03:46:00       66.117       57.497       40.900       21.727       16.226       17.217      472.064      263.268      296.431        0.519        0.052       87.620        9.539        0.012      333.498        2.852      861.400
12/18/2014  03:47:00       86.055       48.544       12.260       30.300       17.970       23.423      918.100      322.913      548.634        0.585        0.089       98.802       18.510        0.035      333.488        2.833      861.412
12/18/2014  03:48:00       63.085       34.443       16.717       27.580       16.980       19.383      760.641      288.322      375.682        0.343        0.071       71.875       16.317        0.052      333.449        2.769      861.416
12/18/2014  03:49:00       50.003       28.866       23.175       17.308       10.929       15.501      299.553      119.444      240.268        0.226        0.033       57.737       12.493        0.047      333.463        2.793      861.418
12/18/2014  03:50:00       38.259       27.380       27.597       15.325        9.772        8.253      234.847       95.492       68.114        0.169        0.020       47.047        4.175        0.008      333.478        2.818      861.419
12/18/2014  03:51:00       32.877       23.673       22.780       21.039       13.000       12.500      442.633      168.998      156.262        0.146        0.038       40.513       11.154        0.076      333.512        2.875      861.415
12/18/2014  03:52:00       20.268       26.303       23.765       15.274       10.029        8.453      233.289      100.572       71.458        0.104        0.020       33.206        3.284        0.010      333.510        2.871      861.419
12/18/2014  03:53:00       41.282       29.051        7.827       13.162        6.746        9.925      173.241       45.503       98.510        0.146        0.016       50.479        8.325        0.027      333.532        2.905      861.420
12/18/2014  03:54:00       49.971       29.814        5.812       14.404       17.528       16.081      207.472      307.242      258.605        0.210        0.039       58.190       13.012        0.050      333.487        2.833      861.429
12/18/2014  03:55:00       62.833       36.649        6.104       14.931       17.944       12.847      222.936      321.989      165.057        0.302        0.035       72.740       10.865        0.022      333.456        2.780      861.433
12/18/2014  03:56:00       86.437       47.085        6.657       17.230       14.738       13.838      296.871      217.217      191.501        0.522        0.035       98.429        7.239        0.005      333.430        2.738      861.439
12/18/2014  03:57:00       73.793       51.654        2.785       26.694       22.445       16.126      712.588      503.778      260.041        0.480        0.074       90.076       10.919        0.015      333.385        2.666      861.446
12/18/2014  03:58:00       56.702       44.168        4.678       38.287       28.442       18.870     1465.867      808.960      356.063        0.391        0.132       71.874       16.190        0.051      333.332        2.578      861.446
12/18/2014  03:59:00       30.511       45.376        4.951       25.668       32.318       19.109      658.863     1044.455      365.136        0.254        0.103       54.680       16.582        0.092      333.294        2.514      861.452
12/18/2014  04:00:00       30.223       95.880      -18.633       16.221       26.494       12.387      263.126      701.912      153.440        0.579        0.056      100.531       12.836        0.016      333.322        2.559      861.458
12/18/2014  04:01:00       15.512       90.277      -12.478       12.880       18.149        8.446      165.904      329.394       71.343        0.456        0.028       91.600        9.690        0.011      333.312        2.543      861.465
12/18/2014  04:02:00       17.158       75.056       -7.041       12.547       13.081        9.819      157.421      171.107       96.408        0.320        0.021       76.992        6.852        0.008      333.294        2.514      861.476
12/18/2014  04:03:00       19.662       39.523        0.403       10.634       22.298       12.488      113.090      497.190      155.952        0.136        0.038       44.144       13.257        0.090      333.299        2.523      861.479
12/18/2014  04:04:00       30.985       29.865        3.730       15.049       12.726        9.254      226.458      161.962       85.645        0.117        0.024       43.035        5.719        0.018      333.267        2.467      861.465
12/18/2014  04:05:00       40.267       31.469       12.374       13.798       12.968        9.869      190.380      168.164       97.397        0.161        0.023       51.105        6.940        0.018      333.289        2.507      861.451
12/18/2014  04:06:00       40.545       43.811       36.964       20.040       17.589       17.058      401.598      309.385      290.966        0.297        0.050       59.693       11.120        0.035      333.351        2.609      861.437
12/18/2014  04:07:00       38.249       47.939       39.389       21.982       19.712       15.670      483.229      388.548      245.547        0.321        0.056       61.328       11.062        0.033      333.366        2.633      861.434
12/18/2014  04:08:00        2.112       51.664       58.051       18.125       21.701       14.200      328.513      470.930      201.652        0.352        0.050       51.708       13.237        0.066      333.365        2.632      861.429
12/18/2014  04:09:00        3.586       20.883       33.721       15.771       29.595       20.170      248.738      875.859      406.824        0.156        0.077       21.188       17.888        0.713      333.351        2.609      861.421
12/18/2014  04:10:00       21.970      -19.084       14.217       18.026       29.661       15.896      324.933      879.765      252.683        0.125        0.073       29.101       15.452        0.282      333.403        2.695      861.420
12/18/2014  04:11:00       12.014       21.531       25.929       23.626       27.816       20.089      558.198      773.718      403.560        0.151        0.087       24.656       21.097        0.732      333.336        2.584      861.426
12/18/2014  04:12:00       69.319       55.447       30.187       34.653       19.556       19.952     1200.821      382.440      398.064        0.539        0.099       88.766       21.653        0.060      333.306        2.536      861.441
12/18/2014  04:13:00       66.295       29.163       13.507       26.976       17.366       21.826      727.730      301.581      476.376        0.347        0.075       72.426       12.913        0.032      333.283        2.496      861.459
12/18/2014  04:14:00       83.848       45.601       17.985       29.604       30.895       22.123      876.394      954.484      489.430        0.588        0.116       95.446       16.442        0.030      333.258        2.453      861.475
12/18/2014  04:15:00       58.816       38.263       14.869       32.388       21.272       21.043     1048.954      452.482      442.810        0.354        0.097       70.167       20.970        0.089      333.216        2.384      861.496
12/18/2014  04:16:00       28.835       23.757       30.094       22.676       21.893       15.622      514.204      479.324      244.044        0.177        0.062       37.361       14.925        0.160      333.248        2.436      861.505
12/18/2014  04:17:00       18.033       31.884       32.234       18.724       19.297       13.293      350.597      372.382      176.706        0.164        0.045       36.630        5.467        0.022      333.271        2.475      861.507
12/18/2014  04:18:00       13.306       15.732       21.997       18.395       30.667       14.381      338.390      940.470      206.825        0.120        0.074       20.605       13.678        0.441      333.267        2.469      861.516
12/18/2014  04:19:00       16.555       26.140       -2.473       16.337       15.862       17.903      266.895      251.607      320.513        0.090        0.042       30.942        8.199        0.070      333.215        2.383      861.525
12/18/2014  04:20:00       19.699       32.369       11.924       14.992       18.661       19.408      224.750      348.237      376.667        0.126        0.047       37.892       13.683        0.130      333.193        2.348      861.528
12/18/2014  04:21:00       32.080       28.234        0.804       10.021       14.659       16.672      100.422      214.882      277.944        0.121        0.030       42.735        5.235        0.015      333.189        2.340      861.525
12/18/2014  04:22:00       38.734       25.905       -0.938       16.718       15.516       14.086      279.494      240.736      198.421        0.145        0.036       46.598       10.403        0.050      333.166        2.303      861.516
12/18/2014  04:23:00       82.793       46.321       11.956       17.997       13.519       13.086      323.903      182.766      171.255        0.491        0.034       94.870        9.178        0.009      333.175        2.317      861.508
12/18/2014  04:24:00       88.663       58.786       12.570       18.565       18.825       19.348      344.672      354.395      374.351        0.627        0.054      106.381        7.100        0.004      333.185        2.333      861.501
12/18/2014  04:25:00       87.316       65.224       26.826       20.112       17.599       18.530      404.473      309.726      343.349        0.683        0.053      108.987       13.153        0.015      333.177        2.321      861.504
12/18/2014  04:26:00       76.747       65.481       27.531       31.205       16.599       20.732      973.730      275.532      429.821        0.631        0.084      100.886       13.247        0.017      333.188        2.338      861.516
12/18/2014  04:27:00       80.576       52.865       27.585       21.177       12.803       22.613      448.448      163.914      511.334        0.559        0.056       96.370       13.824        0.021      333.180        2.325      861.537
12/18/2014  04:28:00       42.636       36.197       40.390       26.849       18.253       16.771      720.862      333.177      281.261        0.305        0.067       55.929       14.314        0.066      333.107        2.206      861.555
12/18/2014  04:29:00       47.204       40.654       33.378       17.149       17.542       19.850      294.103      307.720      394.036        0.300        0.050       62.297       14.239        0.052      333.101        2.197      861.571
12/18/2014  04:30:00       41.401       31.985       39.629       17.644       14.307       14.572      311.305      204.697      212.346        0.252        0.036       52.317        7.209        0.019      333.142        2.262      861.579
12/18/2014  04:31:00       31.754       29.414       39.138       14.153       21.820       11.968      200.307      476.114      143.242        0.211        0.041       43.284       10.098        0.054      333.180        2.325      861.581
12/18/2014  04:32:00       57.568       52.066       35.101       23.323       16.696       21.315      543.984      278.756      454.309        0.427        0.064       77.620       18.269        0.055      333.136        2.253      861.578
12/18/2014  04:33:00       40.419       32.609       20.594       25.631       18.433       20.550      656.942      339.774      422.308        0.227        0.071       51.933       13.599        0.069      333.142        2.265      861.577
12/18/2014  04:34:00       13.737       34.328       43.412       21.433       21.365       13.684      459.383      456.479      187.251        0.218        0.055       36.975       10.973        0.088      333.156        2.287      861.578
12/18/2014  04:35:00       28.699       26.459       11.806       25.392       14.302       19.474      644.755      204.554      379.225        0.145        0.061       39.035        5.517        0.020      333.101        2.196      861.583
12/18/2014  04:36:00       36.056       25.101       18.896       16.298       20.738       17.057      265.625      430.053      290.934        0.164        0.049       43.932       10.963        0.062      333.158        2.289      861.593
12/18/2014  04:37:00        9.662       18.641       25.856       22.707       16.782       12.337      515.588      281.637      152.197        0.103        0.047       20.996        9.572        0.208      333.182        2.327      861.598
12/18/2014  04:38:00       22.529       29.606       36.150       21.744       15.420       11.974      472.814      237.788      143.367        0.177        0.043       37.203        6.674        0.032      333.189        2.340      861.608
12/18/2014  04:39:00       58.301       35.276       19.217       23.040       14.444       15.986      530.834      208.641      255.545        0.300        0.050       68.143        9.622        0.020      333.121        2.232      861.623
12/18/2014  04:40:00       56.355       38.041       20.548       21.200       18.496       19.584      449.451      342.094      383.517        0.311        0.059       67.993        9.671        0.020      333.102        2.197      861.649
12/18/2014  04:41:00       57.972       51.812       27.481       24.259       17.209       17.658      588.494      296.163      311.806        0.400        0.060       77.751       11.187        0.021      333.102        2.197      861.663
12/18/2014  04:42:00       45.435       33.335       22.780       26.635       23.231       22.157      709.431      539.691      490.933        0.272        0.087       56.352       14.742        0.068      333.106        2.204      861.666
12/18/2014  04:43:00       52.284       31.036        5.675       20.182       20.524       20.817      407.328      421.223      433.355        0.250        0.063       60.802       15.435        0.064      333.036        2.089      861.667
12/18/2014  04:44:00       29.524       20.407       -1.149       24.975       15.176       13.987      623.739      230.305      195.634        0.117        0.052       35.890       15.404        0.184      332.978        1.992      861.668
12/18/2014  04:45:00       16.837       25.259        4.196       17.501        6.555        8.752      306.291       42.967       76.595        0.068        0.021       30.356        3.477        0.013      332.982        1.997      861.679
12/18/2014  04:46:00       14.563       29.300        3.104       12.938        9.314        8.167      167.394       86.752       66.707        0.070        0.016       32.719        6.451        0.039      332.991        2.016      861.680
12/18/2014  04:47:00        7.908       46.275       -4.228        7.403        8.887        5.235       54.802       78.987       27.409        0.119        0.008       46.945        3.413        0.005      332.998        2.028      861.678
12/18/2014  04:48:00        4.274       59.147       -7.057        6.709       10.141        4.755       45.009      102.831       22.609        0.187        0.009       59.301        4.306        0.005      333.036        2.089      861.674
12/18/2014  04:49:00        5.439       67.638      -12.504        6.323        7.059        4.934       39.976       49.826       24.341        0.244        0.006       67.857        1.227        0.000      333.030        2.080      861.664
12/18/2014  04:50:00        3.832       69.270      -12.819        5.588        9.233        5.006       31.230       85.252       25.060        0.256        0.007       69.376        2.779        0.002      333.041        2.098      861.660
12/18/2014  04:51:00        5.379       73.600      -13.069        5.327        9.077        4.674       28.375       82.392       21.844        0.287        0.007       73.796        3.335        0.002      333.011        2.047      861.656
12/18/2014  04:52:00        6.325       59.871       -9.020        8.418        7.397        4.063       70.858       54.719       16.511        0.192        0.007       60.204        2.237        0.001      333.029        2.077      861.660
12/18/2014  04:53:00        0.312       57.264       -8.414        3.837        6.397        5.702       14.720       40.927       32.518        0.172        0.004       57.265        1.813        0.001      333.036        2.088      861.673
12/18/2014  04:54:00        2.902       69.409      -12.193        4.807        8.713        4.517       23.105       75.916       20.400        0.255        0.006       69.469        2.414        0.001      333.049        2.109      861.675
12/18/2014  04:55:00        1.369       67.970       -8.617        5.431       10.622        6.443       29.498      112.819       41.511        0.244        0.009       67.984        4.740        0.005      333.055        2.121      861.678
12/18/2014  04:56:00        0.904       84.452      -14.375        2.854       10.117        3.735        8.145      102.362       13.953        0.373        0.006       84.457        2.587        0.001      333.055        2.123      861.676
12/18/2014  04:57:00        5.808       89.122      -14.723        7.802        8.152        6.099       60.877       66.451       37.193        0.418        0.008       89.311        3.337        0.001      333.055        2.119      861.672
12/18/2014  04:58:00       16.405       83.701      -12.933        8.809       14.434       10.781       77.603      208.343      116.230        0.392        0.020       85.293        9.580        0.013      333.055        2.118      861.669
12/18/2014  04:59:00        7.785       85.474      -13.815        6.956        9.050        3.519       48.382       81.906       12.383        0.385        0.007       85.828        2.783        0.001      333.084        2.162      861.673
12/18/2014  05:00:00        1.955       73.687      -14.151        6.675        8.042        4.223       44.554       64.666       17.838        0.288        0.006       73.713        2.873        0.002      333.117        2.222      861.673
12/18/2014  05:01:00       -6.420       52.390       -6.562        8.608        7.783        8.254       74.105       60.577       68.121        0.152        0.010       52.782        4.945        0.009      333.216        2.383      861.683
12/18/2014  05:02:00      -26.030       -4.571       -0.958       19.164       20.616        9.430      367.245      425.039       88.926        0.079        0.044       26.428        8.546        0.105      333.131        2.246      861.693
12/18/2014  05:03:00      -51.814      -15.573       -8.309       11.602       11.363        8.391      134.597      129.122       70.405        0.167        0.017       54.104        4.575        0.007      333.051        2.114      861.714
12/18/2014  05:04:00      -79.217      -19.198       -4.416       13.687       14.281        8.731      187.322      203.953       76.234        0.357        0.023       81.510        7.149        0.008      333.118        2.223      861.732
12/18/2014  05:05:00      -57.724      -22.836        1.741       28.476       17.061       13.087      810.895      291.081      171.279        0.256        0.064       62.077       12.714        0.042      333.170        2.309      861.748
12/18/2014  05:06:00      -71.065      -10.182       -1.938       27.242       13.964       12.452      742.134      195.002      155.044        0.312        0.055       71.790       12.092        0.028      333.155        2.285      861.755
12/18/2014  05:07:00      -67.985      -26.510        3.632       33.114       17.343       12.558     1096.535      300.773      157.700        0.345        0.078       72.971       13.277        0.033      333.152        2.279      861.758
12/18/2014  05:08:00      -85.283      -40.607       -3.678       24.077       14.122       13.856      579.700      199.430      191.993        0.495        0.049       94.457       13.012        0.019      333.175        2.318      861.752
12/18/2014  05:09:00      -99.070      -28.407       -4.941       19.538       23.055       15.360      381.721      531.538      235.932        0.590        0.057      103.063        9.595        0.009      333.114        2.217      861.749
12/18/2014  05:10:00      -68.493      -40.785        0.294       40.434       30.570       18.210     1634.917      934.543      331.615        0.463        0.145       79.717       15.570        0.038      333.196        2.351      861.750
12/18/2014  05:11:00     -108.118      -41.481       -6.102       14.442       17.660       10.955      208.579      311.858      120.008        0.704        0.032      115.802        8.730        0.006      333.240        2.425      861.742
12/18/2014  05:12:00      -69.003      -29.694       -0.012       26.187       19.468        8.850      685.784      379.002       78.331        0.339        0.057       75.121        7.364        0.010      333.248        2.438      861.747
12/18/2014  05:13:00      -37.031      -35.671        1.518       41.449       22.296       18.527     1718.039      497.124      343.233        0.260        0.128       51.417       24.800        0.233      333.274        2.480      861.752
12/18/2014  05:14:00      -26.205      -16.246        6.041       20.417       16.944       13.316      416.862      287.094      177.310        0.093        0.044       30.832        9.815        0.101      333.289        2.504      861.773
12/18/2014  05:15:00      -38.799      -22.081        0.137       19.349       18.449       11.961      374.365      340.363      143.076        0.143        0.043       44.642       11.665        0.068      333.221        2.393      861.794
12/18/2014  05:16:00      -30.024       -1.073        4.885       32.603       21.617       11.713     1062.982      467.313      137.201        0.130        0.083       30.043       15.535        0.267      333.116        2.220      861.810
12/18/2014  05:17:00      -78.369      -18.843       -2.565       29.443       23.244       12.875      866.893      540.285      165.760        0.404        0.079       80.602       11.700        0.021      333.012        2.048      861.835
12/18/2014  05:18:00     -105.745      -25.499       -8.877       24.420       23.989       12.889      596.344      575.455      166.114        0.662        0.067      108.776        9.179        0.007      332.936        1.924      861.865
12/18/2014  05:19:00     -108.110       13.235       -9.674       36.031       35.133       19.235     1298.254     1234.301      369.972        0.743        0.145      108.917       13.582        0.016      332.919        1.895      861.882
12/18/2014  05:20:00     -146.920       34.217      -13.707       41.253       30.117       18.231     1701.769      907.061      332.375        1.294        0.147      150.852       13.874        0.008      332.876        1.824      861.897
12/18/2014  05:21:00     -161.294       24.549      -13.762       29.261       33.284       21.736      856.194     1107.792      472.450        1.462        0.122      163.152       13.041        0.006      332.864        1.804      861.915
12/18/2014  05:22:00     -157.156        2.176      -17.386       45.147       29.975       24.835     2038.250      898.510      616.769        1.428        0.178      157.171       26.055        0.027      332.771        1.651      861.932
12/18/2014  05:23:00     -136.800       -2.785      -11.006       71.540       47.037       33.887     5118.033     2212.456     1148.316        1.366        0.424      136.829       40.174        0.086      332.749        1.613      861.958
12/18/2014  05:24:00     -194.320       42.071      -18.444       29.060       30.665       20.526      844.496      940.340      421.329        2.104        0.110      198.822       13.887        0.005      332.752        1.618      861.977
12/18/2014  05:25:00     -186.319       24.733      -17.865       32.303       50.331       22.622     1043.508     2533.170      511.773        1.987        0.204      187.953       15.503        0.007      332.814        1.722      861.989
12/18/2014  05:26:00     -139.811        6.613      -12.841       37.780       38.524       18.584     1427.293     1484.093      345.379        1.151        0.163      139.968       14.556        0.011      332.809        1.714      861.994
12/18/2014  05:27:00     -129.538        5.858      -16.682       29.946       39.130       21.313      896.767     1531.192      454.225        0.999        0.144      129.671       16.795        0.017      332.842        1.767      861.994
12/18/2014  05:28:00     -103.893       -6.348      -12.716       34.612       29.261       20.147     1197.992      856.178      405.891        0.673        0.123      104.087       20.112        0.037      332.896        1.858      861.997
12/18/2014  05:29:00      -64.061      -12.873       -4.977       24.161       25.254       21.266      583.750      637.769      452.240        0.298        0.084       65.342       13.771        0.044      332.871        1.817      861.999
12/18/2014  05:30:00      -78.688      -14.419       -4.557       31.341       31.211       19.694      982.270      974.118      387.855        0.438        0.117       79.998       16.332        0.042      332.889        1.845      862.005
12/18/2014  05:31:00     -111.895       -6.943       -3.666       38.410       30.112       19.364     1475.359      906.714      374.955        0.767        0.138      112.110       21.073        0.035      332.768        1.647      862.021
12/18/2014  05:32:00      -88.360      -23.626       -9.890       32.142       25.526       20.900     1033.079      651.560      436.798        0.529        0.106       91.464       17.907        0.038      332.754        1.621      862.036
12/18/2014  05:33:00     -113.518      -25.715      -15.076       33.688       21.625       18.119     1134.893      467.654      328.281        0.785        0.097      116.394       16.432        0.020      332.668        1.481      862.045
12/18/2014  05:34:00      -97.754      -21.852       -3.427       27.564       23.235       16.341      759.772      539.848      267.021        0.581        0.078      100.166       16.913        0.029      332.576        1.328      862.054
12/18/2014  05:35:00     -104.858        1.226      -11.702       23.360       25.024       16.869      545.676      626.221      284.574        0.629        0.073      104.866       14.604        0.019      332.608        1.381      862.054
12/18/2014  05:36:00      -94.908      -11.892      -13.842       24.913       28.523       13.726      620.664      813.551      188.391        0.548        0.081       95.650        6.471        0.005      332.707        1.545      862.040
12/18/2014  05:37:00     -115.605       22.896       -5.877       33.167       22.109       16.476     1100.051      488.814      271.445        0.789        0.093      117.850       16.137        0.019      332.864        1.806      862.028
12/18/2014  05:38:00      -92.513       17.875       -8.146       25.200       20.787       10.970      635.054      432.097      120.341        0.507        0.059       94.224        7.941        0.007      332.852        1.785      862.025
12/18/2014  05:39:00      -41.873       -4.283       -6.336       19.407       17.080        8.576      376.642      291.713       73.543        0.128        0.037       42.092        7.449        0.031      332.855        1.790      862.032
12/18/2014  05:40:00      -52.011      -23.300       -9.095       14.718       13.371        8.965      216.620      178.779       80.380        0.190        0.024       56.992        4.992        0.008      332.789        1.681      862.057
12/18/2014  05:41:00      -75.912      -17.327      -13.636       12.582       13.440       10.344      158.303      180.633      106.989        0.335        0.022       77.864        7.098        0.008      332.687        1.512      862.079
12/18/2014  05:42:00      -62.852      -30.270       -5.823       16.098       25.281       15.264      259.157      639.130      232.990        0.302        0.057       69.761       11.112        0.025      332.674        1.490      862.095
12/18/2014  05:43:00      -72.970      -10.860       -5.562       29.756       19.509       14.551      885.408      380.618      211.732        0.348        0.074       73.773       13.708        0.035      332.556        1.295      862.101
12/18/2014  05:44:00      -59.784       -1.863       -2.836       42.186       19.874       15.010     1779.683      394.995      225.298        0.299        0.120       59.813       17.544        0.086      332.513        1.223      862.108
12/18/2014  05:45:00      -61.031       -1.598       -7.669       31.239       18.537       17.937      975.844      343.631      321.753        0.271        0.082       61.052       18.958        0.096      332.630        1.418      862.115
12/18/2014  05:46:00      -69.679       -7.421       -7.321       26.757       18.914       16.328      715.955      357.742      266.612        0.315        0.067       70.074       16.604        0.056      332.702        1.537      862.141
12/18/2014  05:47:00      -88.469      -14.680      -13.484       27.876       25.068       12.854      777.080      628.395      165.223        0.490        0.079       89.678       13.326        0.022      332.640        1.433      862.142
12/18/2014  05:48:00      -94.420      -19.958       -4.907       34.644       23.026       17.569     1200.231      530.190      308.663        0.569        0.102       96.506       16.138        0.028      332.586        1.343      862.148
12/18/2014  05:49:00     -136.174       16.489       -7.185       64.748       35.314       23.568     4192.316     1247.044      555.466        1.243        0.300      137.169       30.629        0.050      332.499        1.200      862.148
12/18/2014  05:50:00     -167.644       22.846      -13.975       36.657       27.355       19.291     1343.718      748.286      372.125        1.564        0.123      169.193       18.306        0.012      332.516        1.227      862.153
12/18/2014  05:51:00      -62.413       28.780        0.976       44.381       28.150       24.109     1969.643      792.406      581.244        0.403        0.167       68.729       19.416        0.080      332.665        1.475      862.158
12/18/2014  05:52:00      -57.841       21.194       -2.320       28.547       17.386       16.960      814.957      302.258      287.636        0.260        0.070       61.601       16.870        0.075      332.893        1.853      862.154
12/18/2014  05:53:00      -50.818       10.908       -2.293       27.428       24.747       15.743      752.285      612.395      247.839        0.216        0.081       51.975        7.651        0.022      332.975        1.988      862.152
12/18/2014  05:54:00       11.149        8.085       13.223       16.080       16.386       14.898      258.580      268.501      221.951        0.056        0.037       13.772       14.109        1.050      332.830        1.750      862.150
12/18/2014  05:55:00        6.721       22.006        5.541       17.537       33.086       16.250      307.534     1094.654      264.060        0.111        0.083       23.010       15.564        0.458      333.013        2.050      862.146
12/18/2014  05:56:00       15.618       50.897       -7.948       10.348       26.814        8.710      107.073      718.972       75.862        0.190        0.045       53.240       10.370        0.038      332.970        1.980      862.148
12/18/2014  05:57:00       20.805       24.139       -7.292       10.558       14.789       11.152      111.479      218.705      124.364        0.076        0.023       31.868        7.916        0.062      332.769        1.650      862.151
12/18/2014  05:58:00       30.932       26.284       -3.204       15.232       14.011       14.541      232.006      196.308      211.444        0.115        0.032       40.591       10.906        0.072      332.647        1.445      862.168
12/18/2014  05:59:00       19.005       15.162       -4.283       10.212       10.473       10.460      104.290      109.677      109.407        0.047        0.016       24.312       10.042        0.171      332.575        1.329      862.196
12/18/2014  06:00:00       47.785       29.211        1.612       21.837       14.741        9.249      476.842      217.283       85.541        0.196        0.039       56.006        4.122        0.005      332.406        1.045      862.224
12/18/2014  06:01:00       57.590       34.419       15.417       17.845        9.946       19.115      318.457       98.923      365.365        0.276        0.039       67.092       10.640        0.025      332.438        1.099      862.237
12/18/2014  06:02:00       56.487       28.203       10.576       15.775       11.964       13.062      248.852      143.135      170.611        0.233        0.028       63.136        8.612        0.019      332.479        1.168      862.234
12/18/2014  06:03:00       69.375       -3.533       12.931       39.316       19.314       15.950     1545.773      373.017      254.410        0.358        0.109       69.465       14.131        0.041      332.577        1.330      862.212
12/18/2014  06:04:00      100.174       42.547        8.163       29.003       22.798       19.216      841.177      519.730      369.269        0.682        0.087      108.835       12.765        0.014      332.670        1.482      862.187
12/18/2014  06:05:00       69.896       44.718       46.969       46.217       31.117       35.261     2136.037      968.284     1243.309        0.672        0.217       82.977       28.084        0.115      332.719        1.565      862.177
12/18/2014  06:06:00       59.799       34.402       36.537       42.648       26.099       28.995     1818.821      681.135      840.696        0.472        0.167       68.989       27.497        0.159      332.745        1.607      862.169
12/18/2014  06:07:00       74.774       37.082       49.533       32.087       33.253       29.719     1029.588     1105.763      883.231        0.622        0.151       83.464       21.618        0.067      332.729        1.581      862.159
12/18/2014  06:08:00       86.793       29.292       21.256       36.635       31.883       26.938     1342.112     1016.530      725.666        0.596        0.154       91.603       17.681        0.037      332.722        1.569      862.156
12/18/2014  06:09:00       49.202       40.554       39.967       35.680       31.170       21.689     1273.028      971.599      470.423        0.419        0.136       63.761       17.424        0.075      332.632        1.421      862.149
12/18/2014  06:10:00       46.883       50.983       45.888       31.663       18.565       20.420     1002.540      344.661      416.968        0.433        0.088       69.263       14.483        0.044      332.655        1.458      862.155
12/18/2014  06:11:00        1.675       20.359       42.490       20.360       21.760       10.876      414.532      473.483      118.283        0.161        0.050       20.428       12.539        0.377      332.696        1.527      862.163
12/18/2014  06:12:00       -0.238        1.427       24.511       11.520       17.033       14.856      132.712      290.113      220.700        0.062        0.032        1.447       11.108       58.913      332.726        1.575      862.186
12/18/2014  06:13:00       39.959      -57.466        0.361       37.523       25.833       18.678     1407.996      667.325      348.868        0.366        0.121       69.993       15.139        0.047      332.882        1.835      862.217
12/18/2014  06:14:00       19.195      -51.482       14.873       37.830       40.315       18.603     1431.085     1625.264      346.056        0.332        0.170       54.944       18.023        0.108      332.836        1.759      862.242
12/18/2014  06:15:00      -35.439      -18.642       -1.865       13.226        8.489        7.692      174.934       72.055       59.170        0.096        0.015       40.043        2.735        0.005      332.598        1.365      862.261
12/18/2014  06:16:00      -30.742       -6.638       -6.550        7.604        7.244        5.310       57.819       52.480       28.196        0.059        0.007       31.451        5.484        0.030      332.562        1.307      862.271
12/18/2014  06:17:00      -29.958       -7.048       -4.844        5.822        6.472        3.364       33.898       41.893       11.318        0.053        0.004       30.776        2.769        0.008      332.564        1.310      862.286
12/18/2014  06:18:00      -37.976      -20.180       -3.796        6.710        5.404        6.636       45.027       29.204       44.033        0.099        0.006       43.005        4.016        0.009      332.709        1.545      862.307
12/18/2014  06:19:00      -36.393      -10.621       -4.949       13.217        6.147        6.654      174.678       37.789       44.276        0.086        0.013       37.911        3.583        0.009      332.664        1.472      862.311
12/18/2014  06:20:00      -61.448        3.207       -7.125       12.443       10.886        7.028      154.817      118.497       49.387        0.208        0.016       61.532        6.260        0.010      332.564        1.308      862.321
12/18/2014  06:21:00      -68.484       17.915       -6.208        8.105        6.492        6.217       65.690       42.145       38.648        0.260        0.007       70.789        2.566        0.001      332.603        1.372      862.339
12/18/2014  06:22:00      -76.975       11.658       -9.356       12.239       15.795        7.432      149.803      249.495       55.234        0.330        0.023       77.853        2.050        0.001      332.605        1.376      862.354
12/18/2014  06:23:00      -61.672      -13.447       -9.812       19.905       13.347       13.662      396.225      178.155      186.658        0.242        0.038       63.121        8.437        0.018      332.558        1.298      862.368
12/18/2014  06:24:00      -79.996       -6.598       -5.411       24.258       15.648       17.035      588.447      244.850      290.199        0.380        0.056       80.268       16.716        0.043      332.432        1.091      862.382
12/18/2014  06:25:00      -44.502       -9.118        3.922       34.113       18.332       14.991     1163.678      336.059      224.724        0.190        0.086       45.426       14.472        0.101      332.304        0.879      862.399
12/18/2014  06:26:00      -57.470      -22.992        3.146       23.367       22.946       14.142      546.031      526.498      199.995        0.256        0.064       61.899       12.459        0.041      332.407        1.050      862.417
12/18/2014  06:27:00      -30.066      -28.514        3.022       27.187       27.586       13.986      739.111      760.961      195.603        0.171        0.085       41.437       15.582        0.141      332.534        1.258      862.430
12/18/2014  06:28:00      -51.752      -26.908        1.907       23.722       13.051        7.786      562.733      170.336       60.627        0.210        0.040       58.329       10.050        0.030      332.627        1.412      862.450
12/18/2014  06:29:00      -49.430      -27.282       -3.467       15.911       16.197        7.540      253.164      262.346       56.855        0.189        0.029       56.459        3.304        0.003      332.649        1.449      862.456
12/18/2014  06:30:00       -7.910       -8.501        3.758        9.208        7.047        5.542       84.782       49.656       30.717        0.016        0.008       11.612        3.533        0.093      332.613        1.390      862.462
12/18/2014  06:31:00      -20.414       -9.344        1.951        9.742       11.919        7.084       94.897      142.074       50.187        0.040        0.014       22.451        6.123        0.074      332.624        1.409      862.469
12/18/2014  06:32:00      -30.344        6.381        0.532       17.882       10.776        7.407      319.761      116.113       54.871        0.073        0.025       31.008        6.821        0.048      332.476        1.164      862.471
12/18/2014  06:33:00      -37.298      -17.613       -1.162       28.456       22.888       15.232      809.718      523.881      232.009        0.163        0.078       41.248       14.568        0.125      332.269        0.822      862.486
12/18/2014  06:34:00      -79.218        1.853       -4.194       59.542       33.758       25.387     3545.235     1139.575      644.500        0.581        0.266       79.240       30.232        0.146      332.104        0.551      862.506
12/18/2014  06:35:00      -96.017      -22.354       -8.617       48.555       26.266       21.630     2357.541      689.899      467.855        0.665        0.176       98.585       19.131        0.038      332.140        0.609      862.529
12/18/2014  06:36:00      -96.574      -22.221       -2.869       37.129       26.960       20.464     1378.592      726.856      418.779        0.618        0.126       99.098       23.751        0.057      332.141        0.612      862.554
12/18/2014  06:37:00     -103.358      -48.819       -6.025       26.317       30.420       20.491      692.602      925.377      419.884        0.757        0.102      114.307       13.822        0.015      332.248        0.790      862.581
12/18/2014  06:38:00     -106.223      -20.378       -4.124       37.719       26.206       17.754     1422.750      686.735      315.193        0.707        0.121      108.160       16.645        0.024      332.163        0.647      862.603
12/18/2014  06:39:00     -150.148        7.254      -13.723       41.901       23.659       21.593     1755.666      559.727      466.272        1.278        0.139      150.323       18.180        0.015      332.152        0.628      862.628
12/18/2014  06:40:00     -127.018       22.988       -9.783       48.988       28.750       22.359     2399.843      826.576      499.917        1.024        0.186      129.082       17.430        0.018      332.161        0.644      862.634
12/18/2014  06:41:00     -112.391       45.143      -11.626       58.409       34.598       24.347     3411.589     1197.000      592.782        1.000        0.260      121.118       22.529        0.035      332.133        0.597      862.638
12/18/2014  06:42:00     -139.426       41.076       -8.725       27.589       18.914       13.733      761.145      357.721      188.608        1.125        0.065      145.351        7.140        0.002      332.184        0.683      862.633
12/18/2014  06:43:00     -119.785        8.784       -8.543       29.618       27.130       18.682      877.205      736.035      349.029        0.823        0.098      120.107       12.014        0.010      332.117        0.573      862.628
12/18/2014  06:44:00     -107.064      -12.741       -5.708       44.147       30.747       22.263     1948.970      945.406      495.651        0.752        0.170      107.819       23.556        0.048      332.062        0.482      862.612
12/18/2014  06:45:00      -98.241       -1.145       -9.598       45.673       29.824       22.635     2085.983      889.497      512.359        0.662        0.174       98.248       20.342        0.043      332.015        0.402      862.592
12/18/2014  06:46:00     -106.965        3.433       -5.525       36.178       29.461       20.469     1308.841      867.962      418.990        0.704        0.130      107.020       15.000        0.020      332.045        0.453      862.584
12/18/2014  06:47:00     -117.522       -5.559       -9.618       43.303       27.780       20.211     1875.142      771.753      408.481        0.849        0.153      117.654       21.073        0.032      332.055        0.469      862.577
12/18/2014  06:48:00      -97.119        0.314       -4.464       31.468       27.782       17.184      990.213      771.812      295.282        0.575        0.103       97.119       15.608        0.026      332.065        0.485      862.582
12/18/2014  06:49:00      -88.711      -42.385       -1.499       32.879       19.113       16.497     1081.040      365.325      272.140        0.569        0.086       98.316       14.798        0.023      332.129        0.591      862.580
12/18/2014  06:50:00      -52.468      -40.656        6.007       37.377       28.785       19.232     1397.047      828.551      369.872        0.352        0.130       66.376       17.894        0.073      332.142        0.613      862.588
12/18/2014  06:51:00     -105.895      -43.710       -2.637       22.938       36.929       14.746      526.140     1363.740      217.452        0.762        0.105      114.561       14.511        0.016      332.145        0.617      862.605
12/18/2014  06:52:00     -111.711      -49.037       -5.819       25.679       20.826       12.611      659.414      433.715      159.043        0.808        0.063      122.000       11.340        0.009      332.235        0.767      862.604
12/18/2014  06:53:00      -92.209      -34.706        0.424       33.551       23.999       15.579     1125.674      575.963      242.718        0.583        0.097       98.524       17.025        0.030      332.157        0.637      862.608
12/18/2014  06:54:00      -98.555      -15.598       -8.245       33.442       20.518       15.738     1118.398      420.995      247.688        0.591        0.089       99.782       16.536        0.027      332.101        0.545      862.612
12/18/2014  06:55:00     -117.756       10.964      -13.039       28.535       25.694       22.343      814.269      660.163      499.203        0.806        0.099      118.265       20.133        0.029      332.081        0.511      862.617
12/18/2014  06:56:00     -115.921        3.333      -13.381       28.829       18.311       15.839      831.082      335.286      250.870        0.752        0.071      115.969       14.485        0.016      332.070        0.494      862.617
12/18/2014  06:57:00      -79.153      -13.623       -7.070       38.140       20.544       18.269     1454.651      422.056      333.767        0.436        0.111       80.316       19.786        0.061      332.033        0.436      862.621
12/18/2014  06:58:00      -63.095      -13.478       -4.876       37.643       21.606       19.665     1416.975      466.818      386.698        0.323        0.114       64.519       20.576        0.102      332.025        0.419      862.637
12/18/2014  06:59:00      -62.432      -12.713       -4.141       26.587       19.181       15.047      706.893      367.913      226.404        0.269        0.065       63.713       14.342        0.051      332.086        0.519      862.649
12/18/2014  07:00:00      -82.462        1.152       -9.811       16.047       15.270       10.465      257.521      233.186      109.520        0.375        0.030       82.470        8.162        0.010      332.147        0.620      862.652
12/18/2014  07:01:00      -69.667      -17.600       -8.006       27.763       21.159       15.757      770.792      447.713      248.277        0.335        0.073       71.856       15.719        0.048      332.105        0.551      862.663
12/18/2014  07:02:00      -78.230      -15.691       -9.208       33.649       15.352       16.282     1132.224      235.682      265.096        0.404        0.082       79.788       18.768        0.055      332.014        0.402      862.669
12/18/2014  07:03:00      -58.748      -23.182      -11.080       18.468       14.384       16.330      341.067      206.914      266.659        0.246        0.041       63.156        7.354        0.014      332.109        0.557      862.673
12/18/2014  07:04:00      -84.653      -23.187       -7.654       14.154       11.930       13.008      200.342      142.326      169.216        0.414        0.026       87.771        6.795        0.006      332.079        0.509      862.678
12/18/2014  07:05:00      -44.147      -31.367       -3.918       25.448       15.587       14.581      647.587      242.967      212.606        0.203        0.055       54.156        3.100        0.003      331.997        0.373      862.677
12/18/2014  07:06:00      -56.587      -27.097       -4.472       15.409       17.682       12.348      237.430      312.645      152.480        0.233        0.035       62.740        4.541        0.005      331.988        0.360      862.671
12/18/2014  07:07:00      -73.663       -5.725      -11.173       14.988       15.047       11.675      224.646      226.404      136.307        0.309        0.029       73.885        5.168        0.005      331.956        0.306      862.657
12/18/2014  07:08:00     -102.588       -6.538       -7.980       16.983       17.573       14.806      288.427      308.817      219.212        0.572        0.041      102.796       10.302        0.010      331.867        0.160      862.644
12/18/2014  07:09:00      -91.499      -10.647      -11.703       23.360       17.648       12.666      545.692      311.440      160.438        0.482        0.051       92.116       10.078        0.012      331.860        0.146      862.656
12/18/2014  07:10:00      -75.325       -1.206       -9.471       11.380       15.005        8.158      129.498      225.160       66.559        0.309        0.021       75.335        3.724        0.002      331.950        0.296      862.660
12/18/2014  07:11:00      -84.831       -9.812      -11.181       18.050       23.231       14.562      325.797      539.664      212.060        0.425        0.054       85.397        9.230        0.012      331.916        0.239      862.670
12/18/2014  07:12:00      -77.656       -7.734      -16.313       12.890       11.463        9.125      166.140      131.401       83.272        0.337        0.019       78.040        5.286        0.005      331.932        0.265      862.677
12/18/2014  07:13:00      -70.387      -19.237      -15.090       20.273       17.453       11.434      410.976      304.592      130.735        0.320        0.042       72.969        7.155        0.010      331.922        0.249      862.679
12/18/2014  07:14:00      -99.876      -19.996       -9.146       20.923       14.939       16.533      437.784      223.185      273.338        0.570        0.047      101.858       12.505        0.015      331.878        0.177      862.673
12/18/2014  07:15:00     -129.708      -10.268      -14.484       26.162       17.622       18.728      684.471      310.522      350.731        0.924        0.067      130.113       15.209        0.014      331.853        0.136      862.685
12/18/2014  07:16:00     -140.400      -16.698      -12.884       24.419       22.112       17.857      596.308      488.921      318.861        1.078        0.070      141.389       11.239        0.006      331.844        0.122      862.692
12/18/2014  07:17:00     -110.233      -19.137       -4.308       29.320       24.242       17.540      859.666      587.662      307.640        0.715        0.088      111.882       12.575        0.013      331.830        0.097      862.688
12/18/2014  07:18:00     -119.091      -13.216      -13.791       26.012       18.925       16.951      676.621      358.153      287.335        0.793        0.066      119.822        8.822        0.005      331.889        0.195      862.679
12/18/2014  07:19:00      -90.348      -18.857       -5.167       23.419       25.735       18.283      548.463      662.281      334.275        0.504        0.077       92.295       16.337        0.031      331.922        0.250      862.670
12/18/2014  07:20:00      -76.857      -27.248        2.112       34.336       24.878       18.568     1178.993      618.934      344.759        0.440        0.107       81.544       18.101        0.049      331.977        0.340      862.664
12/18/2014  07:21:00      -89.427      -25.461       -1.071       18.851       18.160       13.858      355.360      329.793      192.035        0.476        0.044       92.981       11.934        0.016      332.052        0.464      862.666
12/18/2014  07:22:00     -106.746      -39.012       -7.030       16.476       17.842        9.557      271.447      318.354       91.331        0.682        0.034      113.651        6.034        0.003      332.050        0.461      862.674
12/18/2014  07:23:00     -107.927      -46.947       -1.066       19.787       18.031       10.905      391.543      325.116      118.926        0.734        0.042      117.696       10.582        0.008      332.085        0.518      862.681
12/18/2014  07:24:00      -78.902      -31.951        3.741       33.011       28.235       17.290     1089.753      797.215      298.935        0.472        0.109       85.126       18.698        0.048      332.105        0.551      862.687
12/18/2014  07:25:00     -105.018      -20.497       -8.552       18.450       15.938       13.703      340.392      254.015      187.780        0.615        0.039      106.999       12.465        0.014      332.139        0.609      862.693
12/18/2014  07:26:00     -100.252        4.531       -5.907       29.839       38.195       25.707      890.380     1458.860      660.868        0.656        0.151      100.355       21.600        0.046      332.101        0.546      862.698
12/18/2014  07:27:00     -156.257       35.485       -9.167       39.300       26.113       18.188     1544.496      681.881      330.807        1.416        0.128      160.236       15.939        0.010      332.107        0.554      862.708
12/18/2014  07:28:00     -119.640       32.431      -12.383       34.982       30.427       19.737     1223.769      925.821      389.536        0.903        0.127      123.958       19.180        0.024      332.088        0.524      862.707
12/18/2014  07:29:00     -111.602        3.369      -12.318       32.377       22.228       17.712     1048.268      494.077      313.718        0.724        0.093      111.653       15.382        0.019      332.065        0.485      862.701
12/18/2014  07:30:00      -83.257        1.825      -20.728       28.520       27.363       15.825      813.378      748.727      250.423        0.459        0.091       83.277       13.508        0.026      332.086        0.521      862.697
12/18/2014  07:31:00      -95.145      -20.041      -11.200       26.517       35.752       20.426      703.163     1278.187      417.216        0.599        0.120       97.233       16.705        0.030      332.111        0.562      862.690
12/18/2014  07:32:00      -89.990       -4.241      -17.338       21.150       16.498       14.707      447.332      272.197      216.286        0.468        0.047       90.090        9.472        0.011      332.122        0.579      862.694
12/18/2014  07:33:00      -67.540      -18.776       -3.596       38.948       19.726       18.721     1516.942      389.096      350.470        0.359        0.113       70.102       17.434        0.062      332.129        0.591      862.701
12/18/2014  07:34:00       14.716      -24.373       10.510       18.005       17.690       16.272      324.189      312.928      264.773        0.091        0.045       28.471        9.185        0.104      332.185        0.684      862.715
12/18/2014  07:35:00      -58.455      -33.566       -1.013       35.027       21.532       15.339     1226.890      463.636      235.287        0.323        0.096       67.407       13.439        0.040      332.236        0.767      862.729
12/18/2014  07:36:00      -75.966      -11.437       -4.508       21.773       18.945       13.715      474.051      358.920      188.093        0.347        0.051       76.822        9.025        0.014      332.263        0.812      862.753
12/18/2014  07:37:00      -85.492      -37.799       -7.989       25.512       14.801       12.051      650.846      219.083      145.223        0.491        0.051       93.476       12.974        0.019      332.361        0.972      862.775
12/18/2014  07:38:00      -76.489      -24.589        0.909       26.231       16.358       13.726      688.064      267.600      188.406        0.380        0.057       80.345       13.613        0.029      332.353        0.962      862.799
12/18/2014  07:39:00      -65.595      -27.854       -2.136       28.524       17.706       12.388      813.591      313.486      153.459        0.318        0.064       71.264       13.903        0.038      332.428        1.084      862.819
12/18/2014  07:40:00      -61.878      -17.827       -1.351       22.275       15.320       13.070      496.197      234.716      170.838        0.252        0.045       64.395       13.392        0.043      332.399        1.036      862.826
12/18/2014  07:41:00      -78.126       -6.772       -0.907       23.584       14.844       12.629      556.215      220.347      159.479        0.354        0.047       78.419       13.394        0.029      332.344        0.945      862.841
12/18/2014  07:42:00      -67.072      -16.298       -0.943       24.903       10.993       12.713      620.183      120.844      161.612        0.283        0.045       69.024       12.808        0.034      332.414        1.061      862.858
12/18/2014  07:43:00      -61.487       -3.058       -1.079       20.822       13.798       12.807      433.572      190.382      164.018        0.229        0.039       61.563       11.435        0.035      332.408        1.050      862.869
12/18/2014  07:44:00      -44.910       -5.066       -7.043        6.587        7.373        5.826       43.388       54.356       33.940        0.111        0.007       45.195        3.366        0.006      332.467        1.150      862.859
12/18/2014  07:45:00      -64.888       -9.643      -11.036       13.475       12.214       10.170      181.576      149.178      103.429        0.243        0.022       65.600        9.304        0.020      332.438        1.099      862.865
12/18/2014  07:46:00      -58.362      -15.146        0.305       25.158       23.940       12.018      632.902      573.125      144.427        0.249        0.068       60.295        8.189        0.018      332.452        1.122      862.860
12/18/2014  07:47:00      -43.933       -8.425       -4.014       29.044       18.097       14.824      843.525      327.495      219.760        0.170        0.070       44.734        5.518        0.015      332.492        1.190      862.845
12/18/2014  07:48:00      -41.988      -26.529       -1.761       12.674       14.955       10.417      160.618      223.659      108.510        0.148        0.025       49.667        8.066        0.026      332.565        1.310      862.835
12/18/2014  07:49:00      -47.068      -27.064        4.337       16.097       11.276       11.473      259.105      127.147      131.626        0.174        0.026       54.294        9.049        0.028      332.552        1.288      862.830
12/18/2014  07:50:00      -57.843      -20.417       -7.782       15.163        9.890        8.645      229.909       97.802       74.728        0.211        0.020       61.341        3.547        0.003      332.520        1.235      862.844
12/18/2014  07:51:00      -35.961      -21.863       -4.907       13.270       22.895       16.138      176.095      524.193      260.432        0.138        0.048       42.085       13.528        0.103      332.498        1.198      862.844
12/18/2014  07:52:00      -15.406       -0.251        5.687       16.318       13.380       16.949      266.285      179.015      287.284        0.050        0.037       15.408       13.321        0.747      332.551        1.286      862.856
12/18/2014  07:53:00      -60.831      -24.602       -8.485       20.590       16.655       13.347      423.938      277.379      178.155        0.263        0.044       65.618       10.876        0.027      332.524        1.241      862.855
12/18/2014  07:54:00      -34.036      -23.331       -4.549       12.850       10.291       11.281      165.117      105.907      127.270        0.106        0.020       41.265        6.421        0.024      332.535        1.259      862.856
12/18/2014  07:55:00      -10.818      -22.798       -4.443       12.987       13.156       12.475      168.650      173.088      155.621        0.058        0.025       25.234       10.670        0.179      332.628        1.412      862.846
12/18/2014  07:56:00      -19.442      -12.427       -2.601       11.703        9.184        5.603      136.956       84.350       31.397        0.040        0.013       23.075        3.842        0.028      332.661        1.468      862.829
12/18/2014  07:57:00      -10.748      -15.836       -6.145        9.087        6.858        4.926       82.572       47.039       24.263        0.028        0.008       19.139        2.550        0.018      332.876        1.825      862.819
12/18/2014  07:58:00      -15.036       -9.164       -0.621        5.544       11.352        7.335       30.737      128.864       53.806        0.026        0.011       17.609        7.808        0.197      332.980        1.995      862.810
12/18/2014  07:59:00      -18.958        2.633        1.808        7.941        8.600       13.760       63.060       73.966      189.334        0.035        0.016       19.140        6.158        0.104      333.046        2.104      862.815
12/18/2014  08:00:00      -29.947       -5.987       -8.196        5.780        6.254        5.051       33.410       39.113       25.515        0.055        0.005       30.540        2.487        0.007      333.043        2.100      862.815
12/18/2014  08:01:00      -10.652       -4.478        1.611        5.844        3.726        3.656       34.156       13.885       13.370        0.010        0.003       11.555        3.854        0.111      333.214        2.382      862.819
12/18/2014  08:02:00      -27.574       -3.807       -2.384        7.871        7.095        5.135       61.956       50.346       26.370        0.046        0.007       27.835        4.258        0.023      332.940        1.930      862.821
12/18/2014  08:03:00      -28.269       11.630       -0.316        7.256        5.181        5.324       52.646       26.839       28.344        0.052        0.005       30.567        2.358        0.006      332.871        1.815      862.822
12/18/2014  08:04:00      -22.272        3.875       -9.040        8.461        4.320        5.804       71.596       18.664       33.683        0.036        0.006       22.606        4.509        0.040      332.934        1.919      862.831
12/18/2014  08:05:00      -24.337        6.960        0.529        8.408        6.315        5.223       70.689       39.881       27.277        0.039        0.007       25.313        3.379        0.018      332.932        1.916      862.842
12/18/2014  08:06:00       -5.286        2.907        3.336       13.907        5.373        8.415      193.411       28.874       70.820        0.017        0.015        6.032        7.153        1.406      333.233        2.414      862.849
12/18/2014  08:07:00       18.401       19.279       12.757        8.888        8.537       10.693       78.993       72.887      114.340        0.057        0.013       26.651        4.756        0.032      333.267        2.469      862.856
12/18/2014  08:08:00       34.329       16.970       11.943       22.750       20.942       17.611      517.556      438.560      310.131        0.144        0.063       38.294       14.982        0.153      333.214        2.381      862.858
12/18/2014  08:09:00       85.453       46.030        1.196       23.739       26.802       20.982      563.559      718.355      440.255        0.557        0.086       97.061       11.582        0.014      333.028        2.075      862.865
12/18/2014  08:10:00       81.405       62.575        4.701       30.221       19.286       22.571      913.333      371.958      509.458        0.618        0.090      102.676       12.143        0.014      333.005        2.036      862.871
12/18/2014  08:11:00       98.504       64.462       16.903       22.872       26.291       26.999      523.106      691.204      728.945        0.804        0.097      117.722       14.712        0.016      332.996        2.022      862.876
12/18/2014  08:12:00       61.123       71.100       58.958       46.217       26.340       30.736     2136.014      693.780      944.725        0.802        0.189       93.761       25.477        0.074      333.075        2.152      862.875
12/18/2014  08:13:00       75.608       39.562       38.336       41.895       29.262       34.808     1755.208      856.285     1211.622        0.629        0.191       85.333       29.710        0.121      333.065        2.136      862.870
12/18/2014  08:14:00       84.127       38.213       18.048       43.493       23.721       27.927     1891.626      562.701      779.924        0.605        0.162       92.399       27.930        0.091      333.069        2.143      862.865
12/18/2014  08:15:00       85.940       31.158       13.829       31.201       28.651       27.985      973.473      820.874      783.143        0.556        0.129       91.414       16.749        0.034      333.046        2.106      862.854
12/18/2014  08:16:00       96.889       59.184       10.554       39.253       32.411       31.748     1540.782     1050.447     1007.956        0.830        0.180      113.535       19.746        0.030      333.007        2.040      862.852
12/18/2014  08:17:00      121.443       88.454        8.243       25.779       21.670       28.046      664.577      469.603      786.576        1.228        0.096      150.241       13.874        0.009      332.897        1.860      862.851
12/18/2014  08:18:00       90.239       54.287        5.652       43.370       38.237       28.857     1880.944     1462.060      832.711        0.765        0.209      105.310       15.736        0.022      332.997        2.024      862.868
12/18/2014  08:19:00       50.595       60.286        7.257       35.375       20.087       28.561     1251.366      403.484      815.754        0.436        0.124       78.703       15.500        0.039      332.973        1.984      862.893
12/18/2014  08:20:00       56.707       45.417        5.666       31.086       22.723       20.835      966.340      516.337      434.116        0.361        0.096       72.652       12.303        0.029      333.003        2.033      862.926
12/18/2014  08:21:00       56.038       46.454       -3.078       20.173       18.567       14.964      406.936      344.719      223.907        0.314        0.049       72.789       12.042        0.027      333.045        2.104      862.953
12/18/2014  08:22:00       88.400       53.172       -1.663       18.360       21.114       19.994      337.075      445.820      399.777        0.591        0.059      103.159        8.562        0.007      333.047        2.107      862.967
12/18/2014  08:23:00       87.534       71.130        2.771       19.014       17.258       14.810      361.547      297.831      219.331        0.680        0.044      112.791        9.126        0.007      332.951        1.948      862.981
12/18/2014  08:24:00       62.212       52.204       10.958       28.131       23.286       22.071      791.374      542.248      487.150        0.427        0.091       81.213       15.326        0.036      333.056        2.122      862.983
12/18/2014  08:25:00       73.715       53.480       13.215       19.146       23.786       24.355      366.567      565.778      593.179        0.500        0.076       91.072       17.354        0.036      333.073        2.149      862.994
12/18/2014  08:26:00       70.965       51.934        6.729       19.762       24.398       20.977      390.534      595.280      440.028        0.460        0.071       87.938       14.288        0.026      333.038        2.092      862.999
12/18/2014  08:27:00       73.764       53.708        6.083       27.604       19.867       20.830      761.993      394.681      433.873        0.498        0.080       91.245        5.627        0.004      333.090        2.178      863.003
12/18/2014  08:28:00       77.836       56.444        5.947       17.364       20.694       19.215      301.497      428.237      369.225        0.519        0.055       96.148        5.045        0.003      333.017        2.057      863.004
12/18/2014  08:29:00       58.629       59.443       29.591       28.121       27.217       26.858      790.793      740.773      721.338        0.505        0.113       83.492       14.023        0.028      333.183        2.330      863.000
12/18/2014  08:30:00        4.669       61.106       65.476       29.156       30.012       29.076      850.091      900.693      845.435        0.532        0.130       61.284       24.608        0.161      333.300        2.524      862.995
12/18/2014  08:31:00       15.554       93.752       84.196       28.150       32.937       23.780      792.398     1084.850      565.477        0.928        0.122       95.034       15.833        0.028      333.200        2.359      862.992
12/18/2014  08:32:00       78.529       70.237       39.228       47.824       22.939       31.634     2287.161      526.216     1000.705        0.823        0.191      105.356       28.007        0.071      333.158        2.289      862.991
12/18/2014  08:33:00       29.461       65.516       72.146       32.554       29.097       23.511     1059.739      846.643      552.784        0.641        0.123       71.835       15.359        0.046      333.249        2.439      862.991
12/18/2014  08:34:00       94.319       57.718       24.190       32.217       27.995       30.865     1037.931      783.738      952.630        0.779        0.139      110.578       23.575        0.045      333.050        2.110      863.001
12/18/2014  08:35:00       72.978       38.040       -0.262       30.190       23.615       25.227      911.408      557.663      636.395        0.444        0.105       82.297       15.055        0.033      333.146        2.270      863.013
12/18/2014  08:36:00       51.349       52.530       39.531       32.095       27.425       21.644     1030.108      752.117      468.459        0.460        0.113       73.458       14.871        0.041      333.272        2.478      863.031
12/18/2014  08:37:00       35.048       43.084       46.289       32.061       31.229       21.101     1027.928      975.237      445.264        0.384        0.122       55.539       14.870        0.072      333.390        2.674      863.045
12/18/2014  08:38:00       58.574       73.069       56.021       34.110       24.343       18.265     1163.518      592.597      333.616        0.700        0.104       93.648       11.919        0.016      333.276        2.484      863.057
12/18/2014  08:39:00       91.139       60.948       30.501       29.849       18.920       26.885      890.969      357.972      722.781        0.746        0.099      109.640       21.377        0.038      333.176        2.319      863.074
12/18/2014  08:40:00       81.896       45.142       40.687       35.300       26.667       28.131     1246.082      711.116      791.342        0.657        0.137       93.513       18.188        0.038      333.208        2.371      863.071
12/18/2014  08:41:00       74.609        4.331       20.993       34.148       19.964       25.305     1166.120      398.562      640.321        0.411        0.110       74.734       22.010        0.087      333.230        2.408      863.077
12/18/2014  08:42:00       23.493       42.639       43.859       39.158       33.946       30.846     1533.321     1152.349      951.484        0.396        0.182       48.683       28.743        0.349      333.466        2.799      863.073
12/18/2014  08:43:00       86.787       40.865       10.950       36.717       36.335       28.408     1348.143     1320.231      807.009        0.640        0.174       95.927       18.876        0.039      333.273        2.479      863.070
12/18/2014  08:44:00       34.687       40.495       35.560       28.819       27.679       28.834      830.533      766.107      831.398        0.327        0.121       53.320       16.002        0.090      333.535        2.914      863.065
12/18/2014  08:45:00       73.534       57.748       43.646       25.339       25.260       19.703      642.069      638.092      388.192        0.616        0.083       93.499       15.206        0.026      333.417        2.717      863.066
12/18/2014  08:46:00       63.781       57.551       36.798       27.755       18.448       19.320      770.348      340.339      373.275        0.511        0.074       85.908       15.630        0.033      333.491        2.840      863.072
12/18/2014  08:47:00       32.448       39.327       31.957       30.056       22.208       30.048      903.373      493.202      902.912        0.296        0.115       50.986       16.480        0.104      333.622        3.057      863.070
12/18/2014  08:48:00       50.822       44.608       32.833       31.498       26.658       28.989      992.150      710.672      840.359        0.410        0.127       67.622       19.804        0.086      333.663        3.125      863.086
12/18/2014  08:49:00       97.646       56.078       31.335       23.796       20.177       26.161      566.259      407.100      684.418        0.766        0.083      112.603       12.817        0.013      333.557        2.950      863.085
12/18/2014  08:50:00       36.808       41.749       43.023       33.449       36.481       29.389     1118.865     1330.845      863.721        0.413        0.166       55.658       21.690        0.152      333.736        3.247      863.103
12/18/2014  08:51:00       91.215       59.204       14.849       30.485       33.043       38.050      929.333     1091.859     1447.804        0.776        0.173      108.744       25.285        0.054      333.597        3.014      863.116
12/18/2014  08:52:00       81.198       62.334       20.442       33.744       22.263       23.486     1138.625      495.639      551.583        0.654        0.109      102.365       18.595        0.033      333.567        2.966      863.142
12/18/2014  08:53:00       99.636       55.015       21.211       29.720       22.352       27.210      883.258      499.633      740.364        0.776        0.106      113.815       14.372        0.016      333.598        3.015      863.166
12/18/2014  08:54:00       89.526       54.454       28.586       35.823       25.180       27.811     1283.282      634.019      773.452        0.724        0.135      104.787       20.452        0.038      333.652        3.106      863.187
12/18/2014  08:55:00       84.315       72.403        2.799       24.177       23.116       19.746      584.506      534.351      389.895        0.693        0.075      111.136       11.703        0.011      333.576        2.980      863.200
12/18/2014  08:56:00       96.014       65.792        4.096       29.083       22.269       25.989      845.793      495.916      675.419        0.779        0.101      116.393       14.613        0.016      333.635        3.079      863.221
12/18/2014  08:57:00       94.705       74.291       -0.537       30.908       27.366       32.062      955.332      748.893     1027.976        0.861        0.137      120.367       14.192        0.014      333.638        3.084      863.237
12/18/2014  08:58:00       49.676       42.800       33.527       46.073       34.931       26.126     2122.715     1220.183      682.544        0.472        0.201       65.571       22.129        0.114      333.910        3.535      863.242
12/18/2014  08:59:00       69.810       39.249       -0.552       24.801       18.829       17.129      615.091      354.547      293.412        0.384        0.063       80.087       16.360        0.042      333.461        2.788      863.257
12/18/2014  09:00:00       44.886       31.158       -0.371       25.339       20.484       13.228      642.077      419.609      174.984        0.211        0.062       54.641        6.598        0.015      333.611        3.040      863.253
12/18/2014  09:01:00       38.899       40.656        9.491       25.031       21.894       22.996      626.532      479.340      528.810        0.245        0.082       56.268       16.827        0.089      333.827        3.398      863.262
12/18/2014  09:02:00       42.561       52.697       -0.524       25.738       21.664       25.985      662.464      469.323      675.198        0.320        0.090       67.738       14.853        0.048      333.888        3.498      863.270
12/18/2014  09:03:00       21.665       49.896        0.992       29.617       28.088       21.753      877.193      788.926      473.186        0.255        0.107       54.397       21.015        0.149      333.866        3.462      863.282
12/18/2014  09:04:00       52.460       58.171        2.583       42.686       26.624       25.722     1822.092      708.822      661.609        0.467        0.160       78.332       18.199        0.054      333.809        3.368      863.294
12/18/2014  09:05:00       51.804       50.347       -2.413       23.352       21.733       25.208      545.330      472.308      635.457        0.344        0.083       72.239       13.812        0.037      333.708        3.200      863.328
12/18/2014  09:06:00       22.828       36.885        5.753       25.593       24.610       17.432      655.012      605.653      303.887        0.174        0.078       43.377       15.667        0.130      333.904        3.525      863.350
12/18/2014  09:07:00       18.497       48.750       -0.046       22.638       27.680       20.091      512.494      766.186      403.668        0.220        0.084       52.141       15.714        0.091      333.849        3.433      863.370
12/18/2014  09:08:00       16.082       34.089        8.754       17.182       26.649       18.313      295.225      710.149      335.358        0.142        0.067       37.692       18.115        0.231      333.981        3.653      863.380
12/18/2014  09:09:00       45.273       33.002       -3.128       25.534       19.617       22.333      651.964      384.839      498.763        0.234        0.077       56.025       10.291        0.034      333.903        3.523      863.373
12/18/2014  09:10:00       61.687       39.893       10.006       26.334       15.097       22.158      693.490      227.925      490.960        0.345        0.071       73.463       10.475        0.020      333.933        3.573      863.386
12/18/2014  09:11:00       70.305       58.247        8.698       23.547       22.255       24.920      554.481      495.273      621.020        0.504        0.084       91.299       13.618        0.022      333.863        3.457      863.388
12/18/2014  09:12:00       57.274       67.362        7.662       36.621       29.576       25.122     1341.102      874.732      631.135        0.536        0.142       88.419        6.469        0.005      333.827        3.397      863.398
12/18/2014  09:13:00       40.391       39.258        7.658       24.965       25.502       21.173      623.259      650.376      448.283        0.248        0.086       56.326       14.085        0.063      333.989        3.667      863.417
12/18/2014  09:14:00       48.187       61.007        4.107       29.082       26.302       25.582      845.765      691.812      654.457        0.413        0.110       77.742       18.609        0.057      333.928        3.565      863.428
12/18/2014  09:15:00       41.614       45.579        1.799       36.422       31.982       23.083     1326.566     1022.836      532.822        0.335        0.144       61.718       22.794        0.136      333.959        3.618      863.419
12/18/2014  09:16:00       94.452       57.337       -1.710       33.319       23.366       24.893     1110.157      545.988      619.665        0.724        0.114      110.493       13.754        0.015      333.828        3.398      863.422
12/18/2014  09:17:00       71.874       62.838       -1.777       38.061       15.347       19.127     1448.622      235.516      365.856        0.558        0.102       95.470       12.733        0.018      333.928        3.565      863.426
12/18/2014  09:18:00       71.310       58.543        3.388       25.179       20.513       24.386      634.003      420.779      594.678        0.509        0.082       92.262       15.761        0.029      333.840        3.418      863.436
12/18/2014  09:19:00       63.907       37.752      -13.431       10.981       14.220       16.049      120.583      202.205      257.567        0.313        0.029       74.225       10.118        0.019      333.769        3.300      863.451
12/18/2014  09:20:00       62.285       45.525       -5.651       17.532       17.028       26.020      307.355      289.949      677.015        0.363        0.064       77.149       10.829        0.020      333.837        3.414      863.467
12/18/2014  09:21:00       44.392       47.644       15.680       28.246       21.305       20.928      797.842      453.892      437.967        0.309        0.084       65.120       11.797        0.033      333.918        3.547      863.485
12/18/2014  09:22:00       82.709       63.791        3.748       19.846       24.062       18.701      393.851      578.987      349.716        0.612        0.066      104.452        9.049        0.008      333.899        3.517      863.486
12/18/2014  09:23:00       79.249       52.976       -0.804       19.387       11.674       20.110      375.839      136.290      404.400        0.500        0.046       95.326        6.738        0.005      333.871        3.471      863.502
12/18/2014  09:24:00       49.516       30.610       -0.677       17.681       18.122       13.107      312.634      328.401      171.802        0.210        0.041       58.214        9.726        0.028      333.935        3.576      863.505
12/18/2014  09:25:00       75.384       59.636       30.743       24.778       23.746       36.256      613.939      563.891     1314.462        0.634        0.125       96.121       14.971        0.024      334.089        3.831      863.502
12/18/2014  09:26:00       16.700       67.227       81.445       35.587       37.894       16.548     1266.458     1435.947      273.835        0.720        0.149       69.271       18.071        0.068      334.196        4.010      863.501
12/18/2014  09:27:00       57.031       61.341       50.114       33.401       23.558       30.510     1115.631      554.968      930.839        0.606        0.130       83.757       23.513        0.079      334.029        3.732      863.524
12/18/2014  09:28:00       86.357       40.929       29.959       31.764       32.032       28.812     1008.968     1026.059      830.157        0.645        0.143       95.565       24.399        0.065      333.999        3.682      863.539
12/18/2014  09:29:00       73.129       19.051       23.718       34.823       27.754       28.764     1212.615      770.263      827.352        0.454        0.141       75.570       23.547        0.097      334.107        3.862      863.562
12/18/2014  09:30:00       54.734       41.057       -0.921       38.554       26.007       29.399     1486.423      676.343      864.274        0.385        0.151       68.421       26.211        0.147      334.088        3.830      863.583
12/18/2014  09:31:00       45.701       38.226       19.392       51.004       22.938       34.031     2601.389      526.167     1158.136        0.410        0.214       59.580       32.079        0.290      334.090        3.834      863.599
12/18/2014  09:32:00       33.958       18.584       21.100       32.521       20.079       26.292     1057.644      403.186      691.255        0.205        0.108       38.710       12.873        0.111      334.204        4.023      863.627
12/18/2014  09:33:00       40.323       50.147       31.894       28.861       24.883       29.650      832.963      619.177      879.146        0.374        0.117       64.348       18.769        0.085      334.164        3.955      863.634
12/18/2014  09:34:00       24.474       47.991       44.548       19.906       18.314       12.509      396.239      335.403      156.474        0.289        0.044       53.871        5.764        0.011      334.258        4.113      863.643
12/18/2014  09:35:00       41.740       55.414       45.923       33.581       18.055       18.536     1127.716      325.975      343.594        0.436        0.090       69.376       16.665        0.058      334.266        4.126      863.650
12/18/2014  09:36:00       43.555       33.350       58.759       48.174       57.103       38.778     2320.773     3260.697     1503.752        0.677        0.354       54.857       47.432        0.748      334.366        4.292      863.672
12/18/2014  09:37:00       59.618       35.615       53.495       38.704       35.792       29.319     1498.019     1281.040      859.625        0.566        0.182       69.446       22.555        0.105      334.416        4.376      863.679
12/18/2014  09:38:00       97.367       46.073       14.279       30.317       23.634       28.219      919.092      558.544      796.320        0.704        0.114      107.717       14.650        0.018      334.253        4.104      863.680
12/18/2014  09:39:00       90.661       51.424        6.295       26.589       22.779       15.244      706.951      518.900      232.372        0.618        0.073      104.229        6.723        0.004      334.260        4.115      863.668
12/18/2014  09:40:00       37.887       43.465       20.799       34.493       29.075       19.390     1189.751      845.372      375.976        0.308        0.121       57.660       11.925        0.043      334.557        4.608      863.648
12/18/2014  09:41:00       77.339       64.904       13.213       33.703       26.901       27.445     1135.880      723.657      753.255        0.649        0.131      100.965       13.242        0.017      334.488        4.493      863.625
12/18/2014  09:42:00       11.608       67.455       86.557       42.847       39.691       29.053     1835.899     1575.348      844.095        0.822        0.213       68.446       25.515        0.139      334.672        4.798      863.619
12/18/2014  09:43:00       68.012       52.246       11.208       31.244       24.767       32.151      976.187      613.417     1033.680        0.505        0.131       85.763       21.243        0.061      334.233        4.069      863.639
12/18/2014  09:44:00       77.942       50.312       24.784       50.367       27.106       30.558     2536.821      734.758      933.794        0.671        0.210       92.769       23.395        0.064      334.551        4.599      863.649
12/18/2014  09:45:00       -2.078       90.220      105.900       32.318       51.913       25.063     1044.464     2694.989      628.178        1.186        0.218       90.244       26.735        0.088      334.568        4.626      863.651
12/18/2014  09:46:00       28.297       86.819       98.244       49.987       51.819       36.426     2498.683     2685.243     1326.823        1.225        0.326       91.314       38.341        0.176      334.435        4.406      863.650
12/18/2014  09:47:00      100.824      109.849       77.147       67.046       44.175       43.811     4495.218     1951.393     1919.371        1.827        0.418      149.105       37.890        0.065      334.256        4.107      863.648
12/18/2014  09:48:00       99.969       32.109       46.687       62.723       43.773       39.441     3934.117     1916.042     1555.581        1.030        0.370      104.999       36.362        0.120      334.309        4.197      863.653
12/18/2014  09:49:00       87.874       91.849       69.847       42.689       36.360       40.147     1822.321     1322.032     1611.744        1.290        0.238      127.114       29.314        0.053      334.411        4.366      863.664
12/18/2014  09:50:00       82.391       75.190       70.688       54.134       48.092       43.805     2930.501     2312.851     1918.872        1.230        0.358      111.543       29.699        0.071      334.466        4.456      863.695
12/18/2014  09:51:00      131.877       48.549       17.728       53.285       41.237       36.224     2839.268     1700.527     1312.192        1.296        0.293      140.529       22.079        0.025      334.243        4.086      863.723
12/18/2014  09:52:00       61.383       27.755       54.336       49.461       46.612       33.310     2446.371     2172.716     1109.545        0.661        0.286       67.366       34.956        0.269      334.443        4.418      863.748
12/18/2014  09:53:00       18.263       34.082       28.033       33.662       34.309       23.391     1133.134     1177.138      547.120        0.257        0.143       38.667       17.642        0.208      334.627        4.726      863.740
12/18/2014  09:54:00       52.746       19.000       16.361       39.116       32.371       31.406     1530.040     1047.871      986.355        0.349        0.178       56.064       18.316        0.107      334.622        4.716      863.735
12/18/2014  09:55:00       21.063       41.419       49.962       41.991       48.768       38.864     1763.258     2378.308     1510.381        0.515        0.283       46.467       29.284        0.397      334.820        5.046      863.724
12/18/2014  09:56:00       69.312       86.831       59.873       44.299       36.493       43.096     1962.360     1331.709     1857.254        1.054        0.258      111.102       32.334        0.085      334.439        4.413      863.737
12/18/2014  09:57:00        7.961       62.802       73.531       24.184       36.636       20.783      584.874     1342.207      431.916        0.589        0.118       63.305       22.857        0.130      334.621        4.713      863.752
12/18/2014  09:58:00       29.030       59.006       59.826       27.075       25.463       15.601      733.067      648.363      243.403        0.476        0.081       65.761       10.496        0.025      334.539        4.578      863.778
12/18/2014  09:59:00       89.289       52.399       48.211       56.525       28.555       40.539     3195.049      815.378     1643.374        0.935        0.283      103.528       37.701        0.133      334.504        4.521      863.800
12/18/2014  10:00:00       94.054       65.587       12.532       35.925       37.046       31.046     1290.640     1372.382      963.880        0.847        0.181      114.664       20.339        0.031      334.408        4.361      863.815
12/18/2014  10:01:00       56.323       22.650       16.186       36.893       30.673       25.451     1361.093      940.816      647.737        0.345        0.147       60.707       21.501        0.125      334.494        4.503      863.832
12/18/2014  10:02:00       63.503       59.117        9.124       21.339       19.762       18.593      455.352      390.530      345.712        0.440        0.060       86.761       14.745        0.029      334.359        4.281      863.845
12/18/2014  10:03:00       15.007       41.555        4.999       22.877       14.170       19.725      523.379      200.796      389.067        0.154        0.056       44.182       14.341        0.105      334.551        4.599      863.859
12/18/2014  10:04:00       82.741       82.579       16.816       32.460       30.305       23.661     1053.683      918.394      559.841        0.824        0.127      116.899       19.528        0.028      334.414        4.371      863.863
12/18/2014  10:05:00       91.218       73.701        7.948       47.631       25.900       30.071     2268.744      670.824      904.238        0.883        0.192      117.271       17.736        0.023      334.475        4.471      863.876
12/18/2014  10:06:00       65.511       50.907       10.544       25.534       15.940       20.818      651.997      254.080      433.398        0.417        0.067       82.965       14.144        0.029      334.605        4.686      863.896
12/18/2014  10:07:00       31.940       37.608       18.769       43.358       37.787       24.050     1879.915     1427.891      578.416        0.334        0.194       49.341        7.153        0.021      334.714        4.868      863.934
12/18/2014  10:08:00       41.242       60.342       69.264       36.632       47.935       30.395     1341.932     2297.765      923.861        0.735        0.228       73.089       32.323        0.196      334.808        5.025      863.956
12/18/2014  10:09:00       34.701       22.063       52.976       41.188       69.300       42.512     1696.420     4802.439     1807.295        0.640        0.415       41.121       50.511        1.509      334.829        5.060      863.964
12/18/2014  10:10:00       82.878      112.782      100.244       40.151       35.682       30.437     1612.084     1273.178      926.432        1.672        0.191      139.959       19.737        0.020      334.687        4.824      863.949
12/18/2014  10:11:00      118.900       86.648       77.238       55.843       56.210       39.856     3118.440     3159.579     1588.513        1.774        0.393      147.123       38.065        0.067      334.640        4.746      863.921
12/18/2014  10:12:00       76.681       95.044       88.716       59.547       45.813       43.573     3545.790     2098.829     1898.570        1.516        0.377      122.120       38.755        0.101      334.690        4.829      863.922
12/18/2014  10:13:00      102.794       81.816       48.535       57.634       43.363       43.597     3321.705     1880.338     1900.674        1.336        0.355      131.379       34.416        0.069      334.675        4.804      863.929
12/18/2014  10:14:00       28.253       77.178       90.698       43.265       40.456       30.051     1871.821     1636.675      903.050        0.970        0.221       82.186       27.602        0.113      334.795        5.003      863.942
12/18/2014  10:15:00       40.849       64.365       84.939       59.090       45.420       32.277     3491.634     2062.974     1041.822        0.981        0.330       76.234       36.990        0.235      334.737        4.906      863.961
12/18/2014  10:16:00       23.192       64.688       76.843       34.964       34.595       28.088     1222.509     1196.804      788.955        0.692        0.160       68.720       22.680        0.109      334.898        5.175      863.971
12/18/2014  10:17:00       61.760       57.189       51.467       56.423       35.504       30.717     3183.509     1260.539      943.554        0.756        0.269       84.172       23.081        0.075      334.746        4.921      863.996
12/18/2014  10:18:00       93.328       56.339       40.788       50.255       40.545       28.342     2525.546     1643.910      803.295        0.926        0.249      109.015       20.448        0.035      334.786        4.988      864.000
12/18/2014  10:19:00       96.427       59.445       23.961       28.638       22.404       29.904      820.153      501.961      894.272        0.781        0.111      113.278       12.912        0.013      334.721        4.880      864.017
12/18/2014  10:20:00       44.614       51.465       49.853       31.676       24.426       28.741     1003.385      596.647      826.046        0.477        0.121       68.111       11.459        0.028      334.809        5.025      864.031
12/18/2014  10:21:00       60.657       39.409       30.390       33.783       31.072       33.992     1141.289      965.482     1155.457        0.471        0.163       72.335        9.636        0.018      334.885        5.152      864.035
12/18/2014  10:22:00       36.217       47.984       12.962       27.570       24.027       32.348      760.125      577.297     1046.392        0.308        0.119       60.118       17.866        0.088      334.847        5.091      864.034
12/18/2014  10:23:00       32.216       55.629       43.067       43.563       24.215       38.061     1897.701      586.346     1448.672        0.496        0.197       64.285       14.046        0.048      335.059        5.440      864.033
12/18/2014  10:24:00       52.218       67.842       73.288       53.399       54.807       43.024     2851.428     3003.789     1851.063        1.020        0.385       85.611       38.785        0.205      334.967        5.289      864.026
12/18/2014  10:25:00       81.987       51.137       22.509       32.046       29.502       29.305     1026.937      870.377      858.756        0.630        0.138       96.628       17.034        0.031      335.020        5.378      864.015
12/18/2014  10:26:00       -2.687       14.945       50.512       22.270       38.815       27.174      495.951     1506.573      738.425        0.276        0.137       15.184       27.143        3.195      335.422        6.044      864.019
12/18/2014  10:27:00       16.686       44.170       59.386       24.431       55.629       22.468      596.880     3094.551      504.793        0.498        0.210       47.217       24.946        0.279      335.351        5.927      864.022
12/18/2014  10:28:00        5.512      -48.198       15.022       26.739       34.846       21.558      714.948     1214.233      464.748        0.249        0.120       48.512        8.906        0.034      335.114        5.532      864.021
12/18/2014  10:29:00        6.301      -35.228       22.329       24.588       43.207       26.334      604.560     1866.865      693.458        0.247        0.158       35.787       14.191        0.157      335.393        5.996      864.032
12/18/2014  10:30:00       41.909      -48.568        8.842       47.037       59.911       34.194     2212.461     3589.363     1169.209        0.558        0.349       64.150       30.029        0.219      335.308        5.855      864.038
12/18/2014  10:31:00       35.675      -17.823       31.517       50.525       85.682       52.332     2552.754     7341.404     2738.670        0.761        0.632       39.880       57.439        2.074      335.333        5.898      864.040
12/18/2014  10:32:00       24.876       76.906       72.926       45.068       49.045       32.645     2031.150     2405.405     1065.708        0.868        0.275       80.830       27.231        0.113      335.267        5.787      864.054
12/18/2014  10:33:00       12.215       -5.546       54.362       24.026       48.223       27.137      577.271     2325.429      736.398        0.339        0.182       13.415       29.119        4.712      335.657        6.438      864.048
12/18/2014  10:34:00       59.718      -32.310       20.237       29.354       54.305       37.449      861.635     2949.053     1402.402        0.512        0.261       67.898       38.747        0.326      335.349        5.924      864.053
12/18/2014  10:35:00       52.218      -99.854        1.478       34.050       32.707       24.136     1159.412     1069.726      582.537        0.776        0.141      112.684       21.965        0.038      335.153        5.597      864.059
12/18/2014  10:36:00       54.522       56.036       42.626       48.170       32.174       25.873     2320.373     1035.137      669.430        0.598        0.201       78.183        5.614        0.005      335.474        6.132      864.062
12/18/2014  10:37:00       64.864       39.709       51.673       23.927       37.452       25.390      572.490     1402.675      644.628        0.554        0.131       76.054       19.975        0.069      335.238        5.739      864.066
12/18/2014  10:38:00       47.713        9.088       40.366       27.584       29.442       29.222      760.901      866.814      853.909        0.323        0.124       48.571       18.065        0.138      335.310        5.857      864.067
12/18/2014  10:39:00       33.550       53.763       48.402       40.150       32.780       38.389     1612.055     1074.522     1473.683        0.526        0.208       63.372       34.416        0.295      335.285        5.818      864.057
12/18/2014  10:40:00       41.984       52.080       26.678       31.882       33.267       25.255     1016.489     1106.669      637.833        0.397        0.138       66.896       20.511        0.094      335.208        5.689      864.060
12/18/2014  10:41:00       29.705      -91.232        8.443       33.854       60.147       28.149     1146.110     3617.704      792.382        0.742        0.278       95.946       29.777        0.096      335.433        6.064      864.065
12/18/2014  10:42:00       21.151       28.900       39.619       27.940       39.167       31.536      780.616     1534.061      994.547        0.308        0.165       35.813       25.415        0.504      335.712        6.528      864.062
12/18/2014  10:43:00       71.646       75.546       55.959       34.811       28.388       21.512     1211.817      805.866      462.783        0.823        0.124      104.117       10.778        0.011      335.366        5.951      864.059
12/18/2014  10:44:00       46.175       50.198       49.544       28.677       19.985       23.060      822.360      399.408      531.783        0.443        0.088       68.205       18.622        0.075      335.436        6.068      864.060
12/18/2014  10:45:00       40.258       54.602       54.135       40.517       36.352       34.463     1641.665     1321.492     1187.723        0.584        0.208       67.839       28.284        0.174      335.584        6.314      864.042
12/18/2014  10:46:00       71.568       65.937       36.080       49.873       33.830       34.535     2487.275     1144.468     1192.647        0.780        0.241       97.312       23.864        0.060      335.491        6.160      864.047
12/18/2014  10:47:00        8.685       56.618       14.644       31.244       37.368       24.811      976.157     1396.387      615.582        0.324        0.149       57.280       22.946        0.160      335.512        6.196      864.047
12/18/2014  10:48:00       34.351       14.882       14.388       28.341       18.585       24.733      803.220      345.413      611.729        0.168        0.088       37.436        9.589        0.066      335.563        6.280      864.034
12/18/2014  10:49:00       46.103       48.706       44.152       29.378       27.224       21.273      863.066      741.148      452.556        0.425        0.103       67.065        8.796        0.017      335.592        6.328      864.026
12/18/2014  10:50:00       76.338       50.789       38.934       61.348       37.904       33.564     3763.603     1436.745     1126.547        0.812        0.316       91.690       22.105        0.058      335.625        6.385      864.021
12/18/2014  10:51:00      126.663       93.643       15.816       58.676       44.249       40.503     3442.854     1957.958     1640.532        1.605        0.352      157.519       20.428        0.017      335.432        6.061      864.008
12/18/2014  10:52:00       77.932       54.898       23.996       45.005       50.321       44.861     2025.471     2532.232     2012.495        0.812        0.329       95.327       28.851        0.092      335.450        6.092      864.021
12/18/2014  10:53:00       50.543       48.711        7.605       25.886       30.456       22.802      670.064      927.570      519.952        0.355        0.106       70.195       15.768        0.050      335.477        6.137      864.013
12/18/2014  10:54:00       61.213       47.297       60.966       51.328       39.108       36.436     2634.546     1529.455     1327.577        0.760        0.275       77.357       33.576        0.188      335.761        6.610      864.002
12/18/2014  10:55:00      129.800       93.227       17.550       51.112       27.526       28.601     2612.401      757.658      818.018        1.502        0.209      159.810       13.631        0.007      335.345        5.917      863.994
12/18/2014  10:56:00       67.530       52.883        8.801       67.860       49.182       32.545     4605.010     2418.895     1059.179        0.776        0.404       85.772       24.226        0.080      335.516        6.200      863.983
12/18/2014  10:57:00       15.191       68.667       82.548       57.271       80.611       51.313     3279.966     6498.192     2633.036        1.208        0.621       70.327       59.333        0.712      335.796        6.669      863.982
12/18/2014  10:58:00       73.343       73.569       60.301       58.350       50.070       45.267     3404.725     2506.961     2049.119        1.119        0.398      103.883       39.470        0.144      335.727        6.554      863.969
12/18/2014  10:59:00       19.582       57.224       63.676       33.100       33.077       32.100     1095.638     1094.110     1030.383        0.547        0.161       60.482       24.375        0.162      335.795        6.665      863.958
12/18/2014  11:00:00       67.389       39.600       17.364       51.689       43.615       47.410     2671.709     1902.253     2247.691        0.661        0.341       78.163       41.771        0.286      335.679        6.473      863.937
12/18/2014  11:01:00       75.582       51.721       36.477       63.971       38.409       35.188     4092.308     1475.285     1238.228        0.826        0.340       91.584       19.630        0.046      335.685        6.484      863.894
12/18/2014  11:02:00       57.506       66.161       78.848       74.605       47.347       45.760     5565.901     2241.765     2093.976        1.190        0.495       87.660       45.570        0.270      335.753        6.597      863.880
12/18/2014  11:03:00       38.412       61.521       84.984       70.041       66.912       42.334     4905.744     4477.256     1792.162        1.183        0.559       72.528       42.855        0.349      335.820        6.708      863.880
12/18/2014  11:04:00       55.753       47.000       51.402       58.624       42.740       33.640     3436.799     1826.695     1131.683        0.718        0.320       72.920       22.559        0.096      335.751        6.594      863.902
12/18/2014  11:05:00      104.659       19.073       52.487       66.449       56.922       46.118     4415.505     3240.084     2126.895        1.193        0.489      106.383       39.333        0.137      335.574        6.297      863.903
12/18/2014  11:06:00       42.083       34.297       63.740       59.506       43.501       40.207     3540.985     1892.310     1616.581        0.703        0.352       54.289       29.783        0.301      335.778        6.639      863.888
12/18/2014  11:07:00       19.621       12.842       50.748       36.200       57.078       39.224     1310.452     3257.907     1538.554        0.461        0.305       23.450       43.551        3.449      336.000        7.010      863.866
12/18/2014  11:08:00       84.981       80.475       55.204       57.677       46.807       44.983     3326.661     2190.850     2023.505        1.214        0.377      117.038       40.527        0.120      335.717        6.536      863.833
12/18/2014  11:09:00       44.903       43.562       66.316       45.491       48.219       32.036     2069.466     2325.105     1026.312        0.687        0.271       62.561       31.772        0.258      335.804        6.682      863.824
12/18/2014  11:10:00       58.715       33.227       54.239       64.307       47.094       40.911     4135.346     2217.851     1673.717        0.776        0.401       67.464       28.581        0.179      335.848        6.755      863.793
12/18/2014  11:11:00       71.239       29.506       39.613       66.820       54.169       40.749     4464.942     2934.289     1660.511        0.829        0.453       77.107       36.839        0.228      335.948        6.921      863.784
12/18/2014  11:12:00      105.056      -77.166       25.382       83.314       77.774       44.582     6941.145     6048.791     1987.537        1.630        0.749      130.351       41.196        0.100      335.865        6.783      863.762
12/18/2014  11:13:00       68.887      -93.253        9.345       53.000       85.939       44.368     2809.004     7385.524     1968.531        1.284        0.608      115.937       52.408        0.204      335.751        6.594      863.745
12/18/2014  11:14:00       42.378        8.709       62.325       61.003       72.540       56.020     3721.366     5261.984     3138.287        0.894        0.606       43.263       62.712        2.101      335.995        7.001      863.738
12/18/2014  11:15:00       50.577       63.892       86.425       52.054       54.928       47.651     2709.579     3017.125     2270.634        1.105        0.400       81.487       39.637        0.237      336.038        7.070      863.734
12/18/2014  11:16:00      110.983       77.926       71.494       85.783       62.856       57.090     7358.674     3950.888     3259.262        1.903        0.728      135.609       40.198        0.088      335.763        6.610      863.723
12/18/2014  11:17:00       52.106      113.097      113.642       83.000       64.428       67.780     6889.003     4150.929     4594.193        2.202        0.782      124.523       63.886        0.263      335.731        6.558      863.718
12/18/2014  11:18:00       94.831      104.867       76.201       60.321       48.243       48.247     3638.611     2327.422     2327.744        1.704        0.415      141.386       37.874        0.072      335.629        6.390      863.711
12/18/2014  11:19:00       61.413      113.994       99.573       67.154       63.142       67.003     4509.605     3986.954     4489.401        1.983        0.649      129.484       58.947        0.207      335.764        6.613      863.699
12/18/2014  11:20:00      110.798      148.779      113.315       68.784       52.638       64.562     4731.238     2770.790     4168.209        2.946        0.584      185.503       55.959        0.091      335.682        6.475      863.706
12/18/2014  11:21:00       82.236       92.866       77.097       49.239       38.331       46.872     2424.502     1469.286     2197.011        1.371        0.305      124.043       25.385        0.042      335.726        6.552      863.696
12/18/2014  11:22:00      103.121       88.527       62.509       65.550       47.784       52.162     4296.802     2283.274     2720.859        1.584        0.465      135.908       35.470        0.068      335.825        6.715      863.666
12/18/2014  11:23:00       44.659      -29.760       39.190       45.484       68.077       40.367     2068.820     4634.476     1629.488        0.637        0.417       53.666       38.677        0.519      335.987        6.986      863.657
12/18/2014  11:24:00      100.779       53.181       63.009      102.901       58.803       55.072    10588.599     3457.748     3032.873        1.701        0.854      113.950       56.547        0.246      335.951        6.926      863.638
12/18/2014  11:25:00       58.737      -99.734        4.344       39.684       69.628       46.799     1574.857     4847.989     2190.142        1.101        0.431      115.745       42.320        0.134      335.978        6.971      863.618
12/18/2014  11:26:00      130.307       30.361       61.194       68.700       68.645       54.591     4719.687     4712.204     2980.152        1.703        0.621      133.797       47.458        0.126      335.899        6.839      863.580
12/18/2014  11:27:00       62.990       58.662       53.289       37.084       40.871       37.170     1375.202     1670.425     1381.582        0.734        0.221       86.075       29.258        0.116      336.003        7.014      863.553
12/18/2014  11:28:00      112.238      105.573       32.428       66.316       62.852       55.499     4397.788     3950.351     3080.169        1.811        0.571      154.088       45.185        0.086      336.143        7.245      863.539
12/18/2014  11:29:00      102.894       57.108       25.141       65.546       59.376       46.868     4296.276     3525.533     2196.585        1.225        0.501      117.680       32.526        0.076      336.122        7.211      863.531
12/18/2014  11:30:00       43.374       71.878       13.640       56.938       53.334       46.646     3241.979     2844.487     2175.824        0.775        0.413       83.951       27.400        0.107      336.048        7.088      863.525
12/18/2014  11:31:00      125.036       92.439       89.173       73.339       65.246       52.667     5378.641     4257.024     2773.827        2.227        0.620      155.496       46.656        0.090      335.933        6.894      863.515
12/18/2014  11:32:00       65.501      104.078      107.440       64.507       69.633       52.426     4161.103     4848.786     2748.485        1.921        0.588      122.974       53.157        0.187      336.199        7.339      863.495
12/18/2014  11:33:00      127.047       91.996       55.318       75.449       55.343       66.186     5692.551     3062.872     4380.597        2.040        0.657      156.857       56.055        0.128      336.044        7.081      863.484
12/18/2014  11:34:00       63.722       88.189       88.721       75.103       72.308       61.634     5640.495     5228.464     3798.789        1.719        0.733      108.802       53.118        0.238      335.962        6.945      863.453
12/18/2014  11:35:00      153.400      100.067       31.757       88.201       64.063       57.197     7779.464     4104.051     3271.520        2.485        0.758      183.153       20.045        0.012      335.852        6.761      863.390
12/18/2014  11:36:00      118.308       86.276       68.799       83.935       77.064       63.755     7045.059     5938.928     4064.687        2.161        0.852      146.425       46.652        0.102      336.111        7.192      863.295
12/18/2014  11:37:00      111.122      122.382      100.377       73.951       46.527       52.887     5468.803     2164.738     2797.050        2.391        0.522      165.304       30.583        0.034      335.797        6.669      863.227
12/18/2014  11:38:00       80.368      132.793      152.138       95.289       87.165       78.166     9079.915     7597.755     6109.987        3.501        1.139      155.219       74.823        0.232      335.900        6.839      863.154
12/18/2014  11:39:00      170.397       93.359       53.240      101.255       81.816       86.638    10252.567     6693.861     7506.091        3.251        1.223      194.296       59.911        0.095      335.963        6.943      863.110
12/18/2014  11:40:00      166.245       96.436       86.681       89.826      103.841       70.162     8068.645    10782.946     4922.745        3.411        1.189      192.191       69.437        0.131      335.895        6.830      863.103
12/18/2014  11:41:00      104.763       49.095       53.220       85.065       80.309       65.970     7235.990     6449.508     4351.986        1.712        0.902      115.696       52.411        0.205      336.095        7.165      863.071
12/18/2014  11:42:00       82.374      113.860       98.548       96.579       78.881       95.956     9327.575     6222.249     9207.511        2.710        1.238      140.533       76.024        0.293      336.151        7.259      863.026
12/18/2014  11:43:00       98.363      117.549       81.778       83.293       58.503       46.328     6937.709     3422.555     2146.265        2.134        0.625      153.275       45.532        0.088      336.178        7.304      862.996
12/18/2014  11:44:00       59.834      139.918      130.107       89.064       55.310       56.099     7932.422     3059.213     3147.060        2.711        0.707      152.174       59.650        0.154      336.248        7.418      862.967
12/18/2014  11:45:00      114.485      127.304      115.825      104.745       87.479       52.780    10971.605     7652.544     2785.770        3.206        1.070      171.211       51.464        0.090      336.118        7.202      862.966
12/18/2014  11:46:00      164.987       74.000       59.149      102.120       82.305       67.726    10428.574     6774.061     4586.798        2.899        1.089      180.822       52.634        0.085      336.047        7.083      862.977
12/18/2014  11:47:00       36.607       77.955      100.087       63.573       58.729       39.187     4041.469     3449.110     1535.616        1.323        0.451       86.122       35.307        0.168      336.143        7.246      863.040
12/18/2014  11:48:00       81.576       65.326       43.984       60.122       53.193       51.082     3614.625     2829.512     2609.371        1.095        0.453      104.509       40.200        0.148      336.046        7.086      863.089
12/18/2014  11:49:00      105.376       28.821       36.973       63.419       46.487       44.016     4021.997     2161.076     1937.436        1.071        0.406      109.247       18.213        0.028      336.040        7.074      863.110
12/18/2014  11:50:00      146.876       55.572       29.219      101.842       57.519       53.659    10371.792     3308.490     2879.258        2.103        0.828      157.037       14.468        0.008      336.010        7.024      863.094
12/18/2014  11:51:00      108.931       91.439       69.444       76.799       52.609       51.633     5898.145     2767.676     2665.987        1.819        0.567      142.222       52.318        0.135      336.018        7.038      863.065
12/18/2014  11:52:00       59.485       53.994       43.197       67.684       37.379       42.667     4581.141     1397.154     1820.499        0.806        0.390       80.336       43.349        0.291      336.063        7.112      863.053
12/18/2014  11:53:00      127.687       73.944       29.328       41.512       49.257       39.310     1723.242     2426.229     1545.287        1.416        0.285      147.552       28.711        0.038      335.962        6.945      863.052
12/18/2014  11:54:00       41.071      -15.027       10.674       57.792       89.385       37.738     3339.952     7989.692     1424.130        0.739        0.638       43.734       46.287        1.120      336.236        7.402      863.050
12/18/2014  11:55:00      100.855      -39.755       52.349      120.357      164.746      104.057    14485.710    27141.281    10827.783        3.346        2.623      108.407      132.082        1.484      336.152        7.261      863.014
12/18/2014  11:56:00       73.248      -83.171       25.114       73.609      104.217       68.469     5418.223    10861.086     4687.996        1.694        1.048      110.827       65.230        0.346      336.291        7.493      862.986
12/18/2014  11:57:00      139.063     -145.852      -20.769       70.458       97.647       60.192     4964.339     9534.863     3623.080        2.958        0.906      201.523       62.970        0.098      336.144        7.247      862.935
12/18/2014  11:58:00      134.836     -140.573      -22.681       58.614       83.059       51.040     3435.547     6898.738     2605.033        2.570        0.647      194.786       50.332        0.067      335.970        6.956      862.919
12/18/2014  11:59:00       27.880       18.936       46.174       27.832       65.128       32.950      774.637     4241.667     1085.690        0.468        0.305       33.703       30.852        0.838      336.249        7.424      862.913
12/18/2014  12:00:00       80.272       85.633       70.855       62.807       66.873       69.359     3944.676     4471.982     4810.653        1.601        0.661      117.373       57.900        0.243      336.181        7.308      862.891
12/18/2014  12:01:00      129.581       86.180       98.332       74.594       63.418       47.959     5564.249     4021.896     2300.027        2.288        0.594      155.622       45.923        0.087      335.900        6.840      862.888
12/18/2014  12:02:00       60.576       10.888       66.701       66.821       69.926       42.910     4465.030     4889.623     1841.285        0.971        0.560       61.547       46.163        0.563      336.221        7.378      862.901
12/18/2014  12:03:00       -1.927       45.643       59.677       34.027       44.314       39.267     1157.851     1963.739     1541.915        0.515        0.233       45.684       33.069        0.524      336.654        8.101      862.921
12/18/2014  12:04:00       48.858       42.895       35.201       59.703       50.320       44.722     3564.466     2532.090     2000.018        0.678        0.405       65.016       33.359        0.263      336.556        7.937      862.949
12/18/2014  12:05:00       17.033       43.588       64.099       44.078       54.851       29.221     1942.828     3008.608      853.846        0.605        0.290       46.798       19.373        0.171      336.767        8.289      862.954
12/18/2014  12:06:00       59.465       52.094       38.928       41.092       33.748       25.525     1688.587     1138.948      651.545        0.562        0.174       79.057       26.346        0.111      336.163        7.281      862.934
12/18/2014  12:07:00       91.092       84.086       56.299       68.293       48.477       49.630     4663.946     2349.985     2463.108        1.401        0.474      123.969       39.655        0.102      336.372        7.629      862.900
12/18/2014  12:08:00      143.219       79.167       41.576       67.252       58.523       52.214     4522.882     3424.992     2726.325        1.959        0.534      163.643       41.477        0.064      336.057        7.101      862.862
12/18/2014  12:09:00       72.252       67.707       31.718       83.598       68.162       51.331     6988.550     4646.015     2634.908        1.254        0.713       99.018       40.534        0.168      336.441        7.745      862.822
12/18/2014  12:10:00      102.244       68.926       53.274       69.558       53.239       49.618     4838.303     2834.357     2461.945        1.409        0.507      123.307       21.030        0.029      336.509        7.858      862.814
12/18/2014  12:11:00       53.781      -55.262       25.527       76.143      125.703       67.118     5797.740    15801.215     4504.762        1.635        1.305       77.112       90.914        1.390      336.374        7.631      862.817
12/18/2014  12:12:00       95.558      -64.557        7.527       42.667      108.966       42.771     1820.469    11873.529     1829.327        1.444        0.776      115.321       57.949        0.253      336.176        7.301      862.823
12/18/2014  12:13:00       71.624      -16.974       36.982       70.511       82.398       47.124     4971.805     6789.427     2220.679        1.038        0.699       73.608       46.181        0.394      336.397        7.671      862.825
12/18/2014  12:14:00       90.894     -126.844      -14.524       58.732       46.113       35.071     3449.497     2126.417     1229.974        1.568        0.340      156.049       30.156        0.037      336.220        7.375      862.830
12/18/2014  12:15:00       69.810       17.868       53.714       85.354       67.995       50.778     7285.298     4623.292     2578.423        1.128        0.724       72.060       58.427        0.657      336.436        7.735      862.845
12/18/2014  12:16:00      134.750       42.449        9.448       50.724       65.969       37.337     2572.876     4351.844     1394.047        1.418        0.416      141.278       29.665        0.044      336.065        7.117      862.868
12/18/2014  12:17:00       88.881       78.299        2.687       66.952       58.660       29.843     4482.604     3440.987      890.588        1.142        0.441      118.451       20.544        0.030      336.034        7.064      862.894
12/18/2014  12:18:00       73.095       63.460       23.407       49.252       46.477       36.382     2425.787     2160.141     1323.657        0.791        0.295       96.799       15.783        0.027      336.244        7.417      862.918
12/18/2014  12:19:00       68.310       78.602       18.898       42.603       40.678       38.389     1815.006     1654.673     1473.744        0.807        0.247      104.137       26.981        0.067      336.286        7.486      862.943
12/18/2014  12:20:00       80.290       81.003        6.230       60.319       37.719       36.339     3638.416     1422.716     1320.523        0.971        0.319      114.052       23.674        0.043      336.157        7.270      862.940
12/18/2014  12:21:00       51.917       25.425      -16.642       66.411       50.433       21.055     4410.444     2543.501      443.316        0.551        0.370       57.809       19.678        0.116      336.133        7.230      862.939
12/18/2014  12:22:00       55.451        8.426       -1.041       62.658       37.866       30.835     3926.080     1433.803      950.778        0.473        0.316       56.088       19.768        0.124      336.342        7.579      862.924
12/18/2014  12:23:00      117.876       57.868        8.812       39.678       29.726       29.593     1574.361      883.662      875.758        1.033        0.167      131.315       20.812        0.025      336.282        7.480      862.915
12/18/2014  12:24:00        4.409       -5.863       22.254       49.878       50.067       27.025     2487.796     2506.681      730.358        0.314        0.286        7.336       16.067        4.797      336.756        8.272      862.906
12/18/2014  12:25:00       13.451       22.033       55.384       36.178       38.073       35.314     1308.868     1449.528     1247.075        0.387        0.200       25.815       32.427        1.578      336.731        8.228      862.905
12/18/2014  12:26:00        1.394       39.975       95.005       44.923       66.687       39.580     2018.042     4447.196     1566.585        0.933        0.402       39.999       38.321        0.918      336.838        8.408      862.895
12/18/2014  12:27:00       64.611     -100.871       12.308       72.146      112.296       86.504     5205.061    12610.342     7482.902        1.989        1.265      119.789       83.782        0.489      336.480        7.810      862.894
12/18/2014  12:28:00       62.169      -44.377       -1.939       73.953       80.806       58.361     5469.043     6529.677     3405.978        1.062        0.770       76.383       69.464        0.827      336.265        7.451      862.921
12/18/2014  12:29:00       12.627       -4.686       44.182       34.632       95.350       41.839     1199.353     9091.605     1750.523        0.709        0.602       13.468       56.481       17.587      336.547        7.923      862.932
12/18/2014  12:30:00       29.527      -40.265       17.856       38.652      104.473       47.567     1493.957    10914.506     2262.609        0.874        0.734       49.931       63.603        1.623      336.486        7.819      862.927
12/18/2014  12:31:00       -3.301      -58.339       16.410       42.684       50.193       27.704     1821.928     2519.387      767.514        0.440        0.255       58.432       25.429        0.189      336.711        8.198      862.911
12/18/2014  12:32:00        6.639      -85.533        6.086       55.275       90.547       35.985     3055.359     8198.804     1294.889        0.997        0.627       85.790       29.748        0.120      336.716        8.203      862.877
12/18/2014  12:33:00       38.580      -57.557        8.475       65.631       73.183       50.777     4307.440     5355.753     2578.346        0.855        0.612       69.291       48.824        0.496      336.607        8.022      862.866
12/18/2014  12:34:00      -13.598      -56.924      -12.080       52.800       46.170       33.384     2787.817     2131.624     1114.484        0.480        0.302       58.526       23.635        0.163      336.569        7.958      862.853
12/18/2014  12:35:00      -14.442      -25.656       16.880       70.843       50.922       31.872     5018.798     2593.059     1015.818        0.489        0.431       29.442       26.030        0.782      336.748        8.257      862.831
12/18/2014  12:36:00      -39.276      -54.944       -4.066       41.802       40.267       18.733     1747.401     1621.450      350.913        0.415        0.186       67.539        7.112        0.011      336.685        8.154      862.814
12/18/2014  12:37:00      -42.172      -22.568       10.656       49.428       54.288       35.284     2443.106     2947.178     1244.928        0.452        0.332       47.831       40.643        0.722      336.498        7.839      862.790
12/18/2014  12:38:00       27.517        1.525       40.121       44.002       38.300       33.313     1936.143     1466.860     1109.724        0.344        0.226       27.560       25.498        0.856      336.717        8.205      862.748
12/18/2014  12:39:00       53.466      -90.878       -6.036       53.376       79.224       36.383     2849.043     6276.392     1323.690        1.080        0.522      105.439       46.054        0.191      336.591        7.994      862.728
12/18/2014  12:40:00        1.974     -101.458      -16.617       70.346       55.007       29.745     4948.516     3025.745      884.771        0.971        0.443      101.478       19.960        0.039      336.204        7.347      862.705
12/18/2014  12:41:00      -24.047       37.136        9.057       24.727       33.500       26.378      611.413     1122.255      695.792        0.223        0.121       44.242       15.604        0.124      336.465        7.785      862.669
12/18/2014  12:42:00      -20.721       14.485       12.589       24.277       23.890       20.185      589.371      570.753      407.436        0.118        0.078       25.282       11.531        0.208      336.779        8.311      862.662
12/18/2014  12:43:00      -20.247       -7.844       11.922       32.532       42.818       20.198     1058.338     1833.389      407.955        0.196        0.165       21.714       17.298        0.635      336.754        8.269      862.666
12/18/2014  12:44:00       -6.094       28.142       46.142       25.010       35.519       39.612      625.490     1261.571     1569.072        0.321        0.173       28.795       31.448        1.193      336.703        8.183      862.671
12/18/2014  12:45:00       16.171       53.428       47.603       25.942       31.417       24.630      672.970      987.008      606.626        0.382        0.113       55.822       18.557        0.111      336.478        7.808      862.672
12/18/2014  12:46:00       -4.674      -17.181       26.190       27.252       34.163       22.837      742.657     1167.106      521.510        0.172        0.122       17.806       15.617        0.769      336.794        8.336      862.672
12/18/2014  12:47:00      -13.933        9.911       24.998       30.339       20.139       19.842      920.426      405.572      393.706        0.132        0.086       17.099       19.027        1.238      336.862        8.449      862.676
12/18/2014  12:48:00       32.386      -85.877       15.850       45.220       90.190       46.929     2044.856     8134.252     2202.373        1.053        0.619       91.781       54.929        0.358      336.557        7.939      862.654
12/18/2014  12:49:00       57.537      -92.686       21.195       68.498       73.522       53.726     4692.021     5405.498     2886.464        1.266        0.649      109.093       44.845        0.169      336.626        8.054      862.641
12/18/2014  12:50:00       58.763      -67.937       33.976       43.897       73.322       27.929     1926.910     5376.183      780.056        0.865        0.404       89.825       23.702        0.070      336.364        7.616      862.636
12/18/2014  12:51:00       31.818        9.021       23.876       20.376       16.812       19.328      415.173      282.633      373.558        0.137        0.054       33.072       10.685        0.104      336.487        7.822      862.627
12/18/2014  12:52:00       41.289      -31.186       18.929       39.658       54.912       27.024     1572.779     3015.365      730.275        0.418        0.266       51.743       33.490        0.419      336.414        7.701      862.591
12/18/2014  12:53:00      -14.983      -23.333       13.787       36.764       30.909       20.791     1351.557      955.374      432.257        0.185        0.137       27.729       13.508        0.237      336.846        8.420      862.552
12/18/2014  12:54:00       -4.359      -53.736       -2.835       32.274       35.043       24.658     1041.606     1228.003      608.016        0.290        0.144       53.912       20.251        0.141      336.766        8.287      862.536
12/18/2014  12:55:00        6.617      -64.359      -23.985       34.732       40.223       18.723     1206.321     1617.925      350.532        0.397        0.159       64.698       14.035        0.047      336.541        7.912      862.517
12/18/2014  12:56:00      -37.198      -53.668      -15.859       45.247       36.717       32.379     2047.334     1348.174     1048.411        0.448        0.222       65.299       25.232        0.149      336.609        8.028      862.506
12/18/2014  12:57:00       46.990        2.984       45.986       40.516       39.581       32.124     1641.542     1566.616     1031.931        0.429        0.212       47.085       26.575        0.319      336.559        7.942      862.514
12/18/2014  12:58:00       34.619       57.093       42.012       27.665       39.789       41.681      765.362     1583.178     1737.346        0.515        0.204       66.769       31.153        0.218      336.359        7.608      862.506
12/18/2014  12:59:00       39.166       41.130       14.993        9.263       14.916       13.503       85.803      222.493      182.342        0.197        0.025       56.795       11.853        0.044      336.145        7.248      862.517
12/18/2014  13:00:00       37.487      -13.519       12.225       26.663       47.032       28.100      710.931     2211.965      789.604        0.272        0.186       39.850       27.907        0.490      336.374        7.632      862.523
12/18/2014  13:01:00       48.132      -56.021        5.993       69.506       39.837       35.226     4831.016     1586.969     1240.864        0.657        0.383       73.858       31.172        0.178      336.509        7.860      862.518
12/18/2014  13:02:00       18.265      -37.893       13.554       33.079       46.635       28.785     1094.235     2174.815      828.582        0.302        0.205       42.066       29.265        0.484      336.887        8.490      862.509
12/18/2014  13:03:00       25.168      -77.967      -18.536       57.859       40.597       30.341     3347.625     1648.149      920.589        0.648        0.296       81.928       20.231        0.061      336.599        8.008      862.495
12/18/2014  13:04:00       10.261      -20.771       24.643       39.763       32.971       28.757     1581.086     1087.062      826.942        0.232        0.175       23.167       26.614        1.320      336.880        8.479      862.470
12/18/2014  13:05:00       27.370       25.913       35.573       27.397       29.662       20.423      750.574      879.862      417.081        0.237        0.102       37.690       17.032        0.204      336.743        8.250      862.454
12/18/2014  13:06:00       52.542      -35.138        9.714       48.342       77.286       31.869     2336.912     5973.186     1015.660        0.671        0.466       63.209       44.157        0.488      336.775        8.303      862.439
12/18/2014  13:07:00       56.755     -156.196       -5.398       44.909       47.274       27.597     2016.814     2234.813      761.567        1.633        0.251      166.188       22.597        0.018      336.598        8.007      862.427
12/18/2014  13:08:00       62.490      -80.085        0.972       72.722       73.742       33.710     5288.493     5437.867     1136.350        1.109        0.593      101.580       38.312        0.142      336.847        8.423      862.429
12/18/2014  13:09:00       47.898      -95.556      -12.238       56.408       51.048       38.843     3181.848     2605.920     1508.809        0.943        0.365      106.888       28.582        0.072      336.736        8.237      862.440
12/18/2014  13:10:00       64.228       38.601       34.038       58.769       54.765       34.517     3453.839     2999.232     1191.401        0.721        0.382       74.935       16.670        0.049      336.812        8.364      862.451
12/18/2014  13:11:00       86.315       48.257       14.742       33.712       18.707       28.244     1136.515      349.950      797.739        0.614        0.114       98.889       10.170        0.011      336.394        7.666      862.483
12/18/2014  13:12:00       44.294       24.375       19.050       16.377       22.000       17.958      268.197      483.996      322.473        0.200        0.054       50.557       10.948        0.047      336.451        7.763      862.501
12/18/2014  13:13:00       39.107        2.185       29.407       34.251       45.224       37.272     1173.150     2045.207     1389.175        0.350        0.230       39.168       28.385        0.525      336.762        8.281      862.517
12/18/2014  13:14:00       14.262       52.236       60.258       31.504       46.381       38.983      992.505     2151.185     1519.640        0.561        0.233       54.148       36.781        0.461      336.998        8.677      862.525
12/18/2014  13:15:00       12.134       10.221       11.711       14.841       19.171       10.518      220.268      367.539      110.622        0.054        0.035       15.865        6.625        0.174      336.889        8.495      862.502
12/18/2014  13:16:00       31.394       23.350       35.649       36.502       28.127       21.096     1332.368      791.112      445.031        0.268        0.128       39.126       19.164        0.240      336.947        8.592      862.489
12/18/2014  13:17:00       51.103       70.021       61.162       70.138       46.060       39.622     4919.325     2121.495     1569.934        0.993        0.431       86.686       33.424        0.149      336.949        8.595      862.477
12/18/2014  13:18:00       62.684       41.122       17.685       53.500       60.556       33.153     2862.208     3667.043     1099.103        0.678        0.381       74.969       20.159        0.072      336.756        8.272      862.465
12/18/2014  13:19:00       71.713       50.725       26.899       66.627       53.806       38.554     4439.171     2895.087     1486.419        0.863        0.441       87.839       31.930        0.132      337.003        8.683      862.449
12/18/2014  13:20:00       30.737       40.333       10.086       26.396       32.966       24.093      696.755     1086.760      580.476        0.252        0.118       50.710       17.485        0.119      336.762        8.282      862.444
12/18/2014  13:21:00       41.679       13.852       -3.699       27.463       30.244       23.084      754.218      914.698      532.867        0.207        0.110       43.920       14.375        0.107      336.666        8.121      862.449
12/18/2014  13:22:00        0.345        3.805       -5.194       21.334       36.207       17.877      455.157     1310.967      319.586        0.106        0.104        3.820       22.002       33.166      336.874        8.469      862.450
12/18/2014  13:23:00       13.426      -29.067        8.984       42.634       52.845       37.105     1817.642     2792.600     1376.790        0.355        0.299       32.018       33.268        1.080      337.200        9.012      862.430
12/18/2014  13:24:00       41.051       -7.950       46.842       58.483       74.683       56.800     3420.237     5577.526     3226.238        0.808        0.611       41.814       57.263        1.875      336.938        8.575      862.408
12/18/2014  13:25:00       72.585      -13.977       41.309       82.759       95.451       65.523     6849.090     9110.946     4293.217        1.371        1.013       73.918       80.921        1.198      336.968        8.624      862.393
12/18/2014  13:26:00      -40.107       -4.750       39.663       34.673       79.383       58.459     1202.209     6301.710     3417.488        0.706        0.546       40.387       60.722        2.260      337.169        8.962      862.360
12/18/2014  13:27:00      -46.914      -75.894       -3.439       44.204       65.067       28.023     1954.028     4233.707      785.311        0.747        0.349       89.223       17.392        0.038      337.170        8.963      862.365
12/18/2014  13:28:00      -68.623      -90.513       10.688       73.151       67.909       42.967     5351.073     4611.686     1846.200        1.241        0.590      113.586       39.169        0.119      336.944        8.585      862.386
12/18/2014  13:29:00     -142.335      -27.622      -11.488       67.461       59.745       27.534     4551.000     3569.472      758.146        1.501        0.444      144.991       29.634        0.042      336.718        8.207      862.404
12/18/2014  13:30:00      -83.393      -71.698        7.775       81.766       65.810       38.861     6685.603     4330.933     1510.171        1.234        0.626      109.977       46.383        0.178      336.897        8.507      862.395
12/18/2014  13:31:00      -51.068     -138.133       -6.884       54.049       38.255       23.243     2921.252     1463.467      540.253        1.333        0.246      147.271       23.931        0.026      336.603        8.014      862.400
12/18/2014  13:32:00      -25.927     -132.991        5.603       29.689       40.015       16.996      881.422     1601.178      288.861        1.058        0.139      135.495        3.857        0.001      336.639        8.077      862.393
12/18/2014  13:33:00     -100.739      -66.000       -0.679       62.866       53.555       31.753     3952.107     2868.159     1008.282        1.117        0.391      120.434       20.140        0.028      336.935        8.570      862.382
12/18/2014  13:34:00     -147.166      -54.756      -12.604       27.867       31.077       20.103      776.571      965.778      404.116        1.348        0.107      157.023       14.109        0.008      336.700        8.178      862.384
12/18/2014  13:35:00     -139.209      -27.512      -15.643       29.821       30.433       17.327      889.308      926.152      300.208        1.125        0.106      141.901       13.345        0.009      336.969        8.627      862.385
12/18/2014  13:36:00     -106.526      -31.518      -17.125       32.902       19.564       15.960     1082.526      382.754      254.709        0.718        0.086      111.090       11.935        0.012      336.614        8.035      862.382
12/18/2014  13:37:00      -34.069      -19.344       -8.066       29.074       34.628       11.771      845.325     1199.104      138.547        0.189        0.109       39.178       13.451        0.118      336.825        8.388      862.382
12/18/2014  13:38:00      -63.850       -1.369       -9.140       33.357       50.514       21.677     1112.696     2551.703      469.886        0.415        0.207       63.865       14.379        0.051      337.131        8.897      862.374
12/18/2014  13:39:00      -74.504      -84.764      -13.267       80.950       24.219       27.429     6552.892      586.544      752.348        1.040        0.395      112.853       30.036        0.071      336.757        8.274      862.395
12/18/2014  13:40:00       -3.988      -19.759       28.171       30.282       44.870       21.460      916.980     2013.336      460.537        0.229        0.170       20.157       15.526        0.593      337.134        8.902      862.404
12/18/2014  13:41:00       -8.910       18.742       10.805       31.161       32.070       23.304      970.982     1028.495      543.083        0.154        0.127       20.752       22.073        1.131      337.129        8.894      862.396
12/18/2014  13:42:00       16.276       40.826        9.152       48.114       31.055       26.342     2315.002      964.428      693.906        0.299        0.199       43.950       28.103        0.409      337.161        8.948      862.398
12/18/2014  13:43:00        0.823       10.699       16.414       14.354       19.199       16.823      206.029      368.596      283.022        0.062        0.043       10.731        5.695        0.282      337.532        9.570      862.402
12/18/2014  13:44:00       29.818       27.594       33.102       31.465       22.516       21.873      990.025      506.975      478.444        0.236        0.099       40.627       17.125        0.178      337.433        9.405      862.388
12/18/2014  13:45:00       33.372       89.030        1.003       36.854       50.297       29.063     1358.220     2529.813      844.682        0.689        0.237       95.079       30.404        0.102      337.055        8.771      862.368
12/18/2014  13:46:00       22.187       78.907        2.388       38.906       34.708       29.241     1513.672     1204.643      855.015        0.515        0.179       81.967       25.843        0.099      337.025        8.719      862.359
12/18/2014  13:47:00       22.067       55.646        6.214       30.293       27.501       23.757      917.650      756.317      564.377        0.293        0.112       59.862       11.600        0.038      337.167        8.957      862.349
12/18/2014  13:48:00       86.603      -40.082        0.733       61.050       72.301       36.902     3727.123     5227.449     1361.780        0.971        0.516       95.429       40.109        0.177      337.175        8.972      862.328
12/18/2014  13:49:00       34.481       59.808       61.159       47.413       43.262       36.006     2247.964     1871.626     1296.441        0.696        0.271       69.035       24.484        0.126      337.187        8.992      862.292
12/18/2014  13:50:00       45.260       71.352       74.078       43.204       41.922       32.935     1866.598     1757.494     1084.728        0.867        0.235       84.496       31.883        0.142      337.078        8.810      862.258
12/18/2014  13:51:00        2.323      -35.956       23.457       26.643       46.624       26.817      709.848     2173.773      719.154        0.272        0.180       36.031       24.518        0.463      337.420        9.382      862.227
12/18/2014  13:52:00      -23.645       30.649       31.888       36.909       30.947       23.235     1362.295      957.706      539.869        0.269        0.143       38.710       23.734        0.376      337.209        9.029      862.199
12/18/2014  13:53:00      -44.190      -13.425        7.234       38.995       26.495       24.557     1520.581      701.973      603.055        0.250        0.141       46.184       23.626        0.262      337.480        9.482      862.192
12/18/2014  13:54:00      -19.939        5.014        7.945       15.473       12.980       16.369      239.415      168.491      267.945        0.058        0.034       20.560       11.442        0.310      337.450        9.432      862.181
12/18/2014  13:55:00       56.798       34.885       21.471       34.840       33.324       31.463     1213.815     1110.512      989.945        0.411        0.166       66.656       11.447        0.029      337.258        9.111      862.176
12/18/2014  13:56:00      -65.707       -9.721       -7.886       37.598       19.195       17.294     1413.577      368.434      299.081        0.328        0.104       66.423       16.842        0.064      337.271        9.133      862.165
12/18/2014  13:57:00       -5.754       33.688        5.549       26.097       29.003       22.813      681.046      841.169      520.427        0.162        0.102       34.176       19.154        0.314      337.639        9.749      862.161
12/18/2014  13:58:00       20.739       18.299       27.084       31.880       23.507       29.138     1016.341      552.562      849.022        0.196        0.121       27.658       22.682        0.673      337.627        9.728      862.152
12/18/2014  13:59:00       20.753       27.230       59.521       29.792       40.224       20.725      887.556     1617.975      429.533        0.382        0.147       34.237       22.569        0.435      337.374        9.306      862.156
12/18/2014  14:00:00      -11.781      -18.641        5.470       35.335       40.208       33.179     1248.543     1616.661     1100.872        0.224        0.198       22.052       20.497        0.864      337.434        9.404      862.157
12/18/2014  14:01:00      -26.424      -54.609       -1.680       59.549       45.726       29.020     3546.103     2090.840      842.150        0.508        0.324       60.666       23.580        0.151      337.494        9.506      862.145
12/18/2014  14:02:00      -53.365      -57.042       17.643       66.784       46.746       34.216     4460.138     2185.174     1170.724        0.711        0.391       78.113       35.260        0.204      337.584        9.657      862.146
12/18/2014  14:03:00     -114.513      -65.036      -18.255       44.907       39.789       25.097     2016.682     1583.169      629.878        1.095        0.211      131.692       25.115        0.036      337.029        8.727      862.165
12/18/2014  14:04:00       -9.051        8.813       13.950       28.749       16.187       21.505      826.533      262.025      462.486        0.095        0.078       12.632       13.067        1.070      337.354        9.270      862.147
12/18/2014  14:05:00       33.517       27.293       14.515       17.459       13.848       15.123      304.829      191.769      228.711        0.140        0.036       43.224        9.823        0.052      337.035        8.735      862.140
12/18/2014  14:06:00        4.324       13.777       -9.533       32.530       28.887       19.198     1058.206      834.487      368.552        0.128        0.113       14.439       15.404        1.138      337.322        9.217      862.134
12/18/2014  14:07:00      -90.247      -37.975       12.365       84.531       41.416       24.422     7145.550     1715.311      596.449        0.960        0.473       97.912       32.604        0.111      337.454        9.439      862.106
12/18/2014  14:08:00     -119.161      -59.338      -12.877       32.964       40.248       22.532     1086.622     1619.930      507.681        1.055        0.161      133.118       21.009        0.025      337.223        9.050      862.105
12/18/2014  14:09:00      -52.789      -10.169        8.097       40.643       31.289       19.371     1651.894      978.978      375.228        0.298        0.150       53.759       23.386        0.189      337.507        9.528      862.096
12/18/2014  14:10:00       34.337       57.475       29.165       20.557       33.420       20.893      422.583     1116.926      436.501        0.365        0.099       66.951       18.179        0.074      337.338        9.245      862.063
12/18/2014  14:11:00      -33.823       59.683        9.311       38.670       32.160       25.892     1495.358     1034.293      670.389        0.400        0.160       68.601       22.593        0.108      337.328        9.229      862.039
12/18/2014  14:12:00       22.386      -17.180       15.087       28.835       31.136       18.449      831.453      969.435      340.364        0.158        0.107       28.219       16.579        0.345      337.615        9.709      862.023
12/18/2014  14:13:00       -8.090      -69.715        3.696       30.935       44.231       22.160      956.985     1956.352      491.064        0.417        0.170       70.183       15.934        0.052      337.299        9.178      862.009
12/18/2014  14:14:00        4.470       23.957       42.279       36.724       29.851       32.257     1348.688      891.103     1040.513        0.283        0.164       24.370       15.709        0.416      337.649        9.767      861.984
12/18/2014  14:15:00      -13.390      -21.465       14.502       25.405       33.630       29.621      645.395     1130.983      877.425        0.175        0.133       25.299       26.266        1.078      337.635        9.742      861.974
12/18/2014  14:16:00       34.447     -109.442       -5.485       48.058       47.543       30.024     2309.542     2260.363      901.464        0.933        0.274      114.735       17.589        0.024      337.469        9.463      861.973
12/18/2014  14:17:00      -55.149      -39.914       -6.255       52.643       30.747       26.202     2771.291      945.400      686.559        0.454        0.220       68.078       30.556        0.201      337.540        9.582      861.958
12/18/2014  14:18:00      -16.663      -21.379       10.243       41.130       26.888       24.614     1691.695      722.955      605.854        0.193        0.151       27.106       14.564        0.289      337.730        9.902      861.962
12/18/2014  14:19:00      -27.209      -34.611        4.448       36.432       24.531       20.190     1327.272      601.775      407.627        0.215        0.117       44.026        8.731        0.039      337.687        9.828      861.967
12/18/2014  14:20:00      -19.220        6.937       12.602       27.617       15.918       18.836      762.687      253.386      354.797        0.097        0.069       20.434       14.737        0.520      337.751        9.938      861.976
12/18/2014  14:21:00      -27.135        0.681        1.819       15.954       13.551       11.075      254.546      183.630      122.651        0.065        0.028       27.144        1.797        0.004      337.566        9.627      861.997
12/18/2014  14:22:00       39.773       34.223       39.951       51.649       29.168       26.271     2667.592      850.801      690.157        0.428        0.210       52.470       20.825        0.158      337.616        9.711      862.017
12/18/2014  14:23:00        6.470      -15.410       11.133       49.735       24.604       25.177     2473.576      605.339      633.885        0.206        0.186       16.713        9.285        0.309      337.719        9.883      862.036
12/18/2014  14:24:00      -24.837        8.241        1.330       17.278       18.175       17.214      298.538      330.315      296.312        0.081        0.046       26.169        7.220        0.076      337.712        9.871      862.047
12/18/2014  14:25:00       44.433      -92.130        0.280       65.005       70.617       36.742     4225.634     4986.763     1349.956        1.051        0.528      102.285       38.579        0.142      337.647        9.763      862.047
12/18/2014  14:26:00       56.129      -56.294        4.543       52.729       48.911       33.748     2780.354     2392.276     1138.895        0.632        0.316       79.495       31.905        0.161      337.714        9.874      862.038
12/18/2014  14:27:00       72.277      -76.151       12.839       56.694       60.690       43.265     3214.224     3683.291     1871.871        0.998        0.438      104.990       42.249        0.162      337.709        9.865      862.045
12/18/2014  14:28:00      -23.521      -60.642       18.764       70.860       79.942       43.756     5021.089     6390.754     1914.573        0.895        0.666       65.044       45.241        0.484      337.763        9.955      862.048
12/18/2014  14:29:00     -127.473      -92.745       -2.558       59.253       44.749       29.271     3510.923     2002.453      856.803        1.561        0.319      157.642       25.454        0.026      337.412        9.368      862.062
12/18/2014  14:30:00      -35.060      -44.529       15.149       59.729       44.140       32.553     3567.588     1948.321     1059.692        0.501        0.329       56.675       37.536        0.439      337.613        9.705      862.060
12/18/2014  14:31:00       -5.765      -13.737       26.692       64.721       63.313       38.783     4188.778     4008.554     1504.090        0.532        0.485       14.897       46.554        9.766      337.593        9.672      862.052
12/18/2014  14:32:00        4.307        9.700       29.786       30.714       17.189       16.661      943.370      295.453      277.588        0.126        0.076       10.614        9.287        0.766      337.806       10.028      862.033
12/18/2014  14:33:00       78.282     -110.026      -28.417       49.130       59.624       37.352     2413.788     3554.986     1395.156        1.320        0.368      135.032       30.943        0.053      337.688        9.830      862.032
12/18/2014  14:34:00      136.310     -146.588      -18.493       56.114       73.339       30.927     3148.751     5378.609      956.474        2.495        0.474      200.172       27.379        0.019      337.671        9.800      862.033
12/18/2014  14:35:00       57.090     -114.486       -9.533       63.176       72.035       35.343     3991.175     5189.109     1249.094        1.344        0.521      127.931       24.664        0.037      337.601        9.685      862.044
12/18/2014  14:36:00        3.792       88.556      115.196       45.716       51.977       33.260     2089.923     2701.624     1106.210        1.351        0.295       88.637       33.116        0.140      337.608        9.697      862.025
12/18/2014  14:37:00       27.481       60.521       92.583       59.901       53.506       53.955     3588.162     2862.862     2911.192        1.117        0.468       66.467       43.930        0.437      337.559        9.615      862.029
12/18/2014  14:38:00       11.740       58.183       91.784       61.789       57.118       39.126     3817.892     3262.499     1530.849        1.028        0.431       59.355       40.668        0.469      337.747        9.931      862.047
12/18/2014  14:39:00      127.450       84.041       82.803       96.383       57.020       56.283     9289.774     3251.333     3167.793        2.293        0.785      152.664       46.540        0.093      337.531        9.567      862.049
12/18/2014  14:40:00      131.001      118.043       96.979       71.327       46.996       49.506     5087.503     2208.637     2450.891        2.512        0.487      176.339       51.481        0.085      337.391        9.331      862.041
12/18/2014  14:41:00       84.168       20.627       38.095       67.365       84.507       37.332     4538.088     7141.397     1393.690        1.101        0.654       86.658       48.499        0.313      337.516        9.543      862.060
12/18/2014  14:42:00      102.035      -14.755       26.140       53.595       47.943       36.125     2872.459     2298.506     1304.992        0.889        0.324      103.096       39.206        0.145      337.531        9.567      862.079
12/18/2014  14:43:00       34.204      -35.249       46.239       51.806       77.467       50.683     2683.891     6001.107     2568.722        0.790        0.563       49.116       32.312        0.433      337.797       10.013      862.077
12/18/2014  14:44:00       33.712      -19.719       25.387       53.568       45.225       27.700     2869.543     2045.263      767.272        0.392        0.284       39.056       28.289        0.525      337.792       10.005      862.096
12/18/2014  14:45:00       82.504       60.967       76.274       96.336       73.101       58.865     9280.593     5343.746     3465.036        1.721        0.904      102.586       55.361        0.291      337.681        9.818      862.074
12/18/2014  14:46:00       68.340       83.765       90.199      105.884       66.857       50.801    11211.434     4469.919     2580.720        1.904        0.913      108.106       40.035        0.137      337.697        9.845      862.048
12/18/2014  14:47:00       96.201     -106.105       14.707       68.235      130.461       51.704     4655.950    17020.072     2673.270        2.253        1.217      143.223       57.849        0.163      337.670        9.799      862.041
12/18/2014  14:48:00       35.674       95.352      111.375       66.256       66.363       52.870     4389.810     4404.043     2795.197        1.718        0.579      101.807       53.465        0.276      337.676        9.811      862.041
12/18/2014  14:49:00      140.020      108.033       59.490       81.400       67.444       62.431     6625.880     4548.735     3897.605        2.494        0.754      176.852       46.448        0.069      337.372        9.300      862.044
12/18/2014  14:50:00       64.094       50.808       52.791       63.714       47.927       40.310     4059.486     2296.952     1624.923        0.873        0.399       81.789       44.086        0.291      337.517        9.545      862.051
12/18/2014  14:51:00      120.408       57.988       36.764       64.344       69.573       60.836     4140.099     4840.450     3700.995        1.594        0.634      133.644       43.681        0.107      337.496        9.508      862.039
12/18/2014  14:52:00       35.878       35.181       33.165       50.666       46.245       30.422     2567.061     2138.609      925.506        0.463        0.282       50.249       17.293        0.118      337.680        9.818      862.031
12/18/2014  14:53:00       18.569      -71.175       -2.878       66.909       67.230       45.716     4476.838     4519.872     2089.923        0.825        0.554       73.557       36.713        0.249      337.806       10.029      862.026
12/18/2014  14:54:00       48.401      -88.594       16.049       72.030      103.498       73.157     5188.277    10711.924     5351.961        1.585        1.063      100.953       55.442        0.302      337.589        9.663      862.014
12/18/2014  14:55:00      121.646      -58.994       48.667       86.861      110.211       72.452     7544.870    12146.451     5249.280        2.279        1.247      135.196       78.629        0.338      337.570        9.632      862.016
12/18/2014  14:56:00       55.182      -33.686       51.463       71.088      151.410       74.137     5053.532    22924.881     5496.344        2.014        1.674       64.651      100.587        2.421      337.469        9.463      862.022
12/18/2014  14:57:00       16.083      -67.577       17.127       26.762       84.169       31.576      716.183     7084.430      997.024        0.696        0.440       69.465       25.459        0.134      337.620        9.717      862.017
12/18/2014  14:58:00       12.768       11.916       62.035       47.860       69.309       51.359     2290.582     4803.689     2637.724        0.694        0.487       17.465       45.686        6.843      337.746        9.928      862.010
12/18/2014  14:59:00        8.983       92.194      128.488       48.038       62.931       43.763     2307.655     3960.363     1915.201        1.663        0.409       92.631       35.684        0.148      337.581        9.651      862.011
12/18/2014  15:00:00       85.793        8.336       59.480       52.123       74.693       57.640     2716.759     5579.111     3322.410        1.129        0.581       86.197       57.657        0.447      337.437        9.410      862.029
12/18/2014  15:01:00       86.637        3.108       26.423       41.141       39.850       32.549     1692.620     1588.000     1059.447        0.628        0.217       86.693       26.532        0.094      337.460        9.451      862.045
12/18/2014  15:02:00       24.728       43.750       39.980       35.766       55.619       56.691     1279.226     3093.460     3213.904        0.585        0.379       50.254       52.994        1.112      337.517        9.544      862.044
12/18/2014  15:03:00      106.605       78.323       50.919       44.150       33.363       42.245     1949.227     1113.122     1784.667        1.247        0.242      132.284       28.575        0.047      337.433        9.405      862.049
12/18/2014  15:04:00       82.332       54.698       25.598       50.361       45.247       30.779     2536.220     2047.257      947.365        0.798        0.277       98.846       21.202        0.046      337.526        9.559      862.045
12/18/2014  15:05:00       58.767       33.113       43.079       49.936       46.680       49.402     2493.621     2179.024     2440.525        0.676        0.356       67.454       36.208        0.288      337.614        9.708      862.046
12/18/2014  15:06:00       73.942       91.811      104.282       63.624       60.408       44.313     4048.064     3649.075     1963.652        1.721        0.483      117.884       33.765        0.082      337.510        9.532      862.039
12/18/2014  15:07:00       99.659       73.843       47.448       68.499       62.877       54.482     4692.121     3953.556     2968.264        1.462        0.581      124.035       51.244        0.171      337.427        9.393      862.046
12/18/2014  15:08:00       84.350       33.508       36.965       51.436       44.909       43.116     2645.643     2016.806     1858.977        0.806        0.326       90.762       23.730        0.068      337.480        9.482      862.042
12/18/2014  15:09:00       38.272      100.819      109.106       74.599       64.566       56.085     5565.004     4168.776     3145.518        1.820        0.644      107.839       55.835        0.268      337.562        9.620      862.042
12/18/2014  15:10:00       51.025      112.153       85.371       59.438       56.633       43.058     3532.918     3207.308     1854.006        1.553        0.430      123.214       38.172        0.096      337.584        9.657      862.053
12/18/2014  15:11:00       66.673       84.927       83.093       64.144       57.286       42.099     4114.495     3281.741     1772.328        1.386        0.458      107.972       31.412        0.085      337.583        9.654      862.061
12/18/2014  15:12:00       22.145       57.900       86.480       45.132       61.164       42.444     2036.854     3741.038     1801.465        0.945        0.379       61.990       40.091        0.418      337.824       10.059      862.077
12/18/2014  15:13:00       50.316       14.880       37.269       46.306       76.576       37.180     2144.211     5863.809     1382.332        0.676        0.470       52.470       32.345        0.380      337.691        9.836      862.083
12/18/2014  15:14:00       20.557        0.578       35.449       29.289       64.740       36.893      857.846     4191.221     1361.109        0.404        0.321       20.565       45.208        4.832      337.668        9.798      862.089
12/18/2014  15:15:00       10.349       -4.148       24.654       24.339       31.061       24.060      592.390      964.758      578.872        0.143        0.107       11.150       18.098        2.635      337.732        9.904      862.086
12/18/2014  15:16:00       16.968      -29.628        2.672       24.418       36.699       20.107      596.250     1346.806      404.277        0.176        0.117       34.142       20.674        0.367      337.613        9.705      862.085
12/18/2014  15:17:00       32.198       35.787       32.020       45.420       30.846       20.828     2062.962      951.450      433.825        0.339        0.172       48.140       22.382        0.216      337.648        9.763      862.097
12/18/2014  15:18:00      101.826       50.866       22.327       24.168       34.719       24.054      584.089     1205.421      578.618        0.791        0.118      113.824       12.688        0.012      337.460        9.449      862.113
12/18/2014  15:19:00       74.986       31.170        7.530       35.532       28.886       23.256     1262.555      834.390      540.829        0.464        0.132       81.207       20.320        0.063      337.535        9.575      862.130
12/18/2014  15:20:00       84.606       47.736       10.985       28.907       31.808       21.920      835.639     1011.743      480.505        0.594        0.116       97.144       19.788        0.041      337.560        9.616      862.145
12/18/2014  15:21:00       78.087       56.535        4.178       30.106       21.269       22.129      906.343      452.384      489.713        0.558        0.092       96.404       14.069        0.021      337.488        9.495      862.158
12/18/2014  15:22:00       32.223       26.275        0.299       24.356       23.987       19.063      593.231      575.363      363.415        0.163        0.077       41.578       12.740        0.094      337.578        9.647      862.167
12/18/2014  15:23:00       29.955       54.365       -3.283       31.178       28.447       26.665      972.041      809.218      711.027        0.318        0.125       62.071       20.649        0.111      337.486        9.491      862.180
12/18/2014  15:24:00       46.835       82.963       -9.037       28.448       38.719       28.222      809.276     1499.154      796.496        0.613        0.155       95.270       28.111        0.087      337.454        9.438      862.193
12/18/2014  15:25:00       16.672       89.777      -20.717       16.387       14.118        9.677      268.519      199.318       93.643        0.466        0.028       91.312        9.641        0.011      337.464        9.459      862.196
12/18/2014  15:26:00      -12.235       57.188      -14.553       14.043       17.973        8.058      197.219      323.027       64.929        0.211        0.029       58.482        3.680        0.004      337.464        9.455      862.196
12/18/2014  15:27:00       -7.499       18.849      -14.550        8.828       19.119       10.539       77.942      365.545      111.077        0.059        0.028       20.286        9.380        0.214      337.550        9.599      862.188
12/18/2014  15:28:00      -21.219      -17.439        4.562       16.106       18.403       13.455      259.400      338.681      181.036        0.078        0.039       27.466       11.746        0.183      337.769        9.968      862.195
12/18/2014  15:29:00       20.899       13.750        2.455       19.484       20.620       14.827      379.637      425.169      219.834        0.083        0.051       25.016        7.268        0.084      337.852       10.107      862.197
12/18/2014  15:30:00       20.004       17.045       22.075       22.213       20.702       15.169      493.433      428.565      230.102        0.116        0.058       26.281       13.453        0.262      337.631        9.735      862.192
12/18/2014  15:31:00       33.326       34.272        1.838       32.682       32.335       24.872     1068.127     1045.545      618.611        0.251        0.137       47.804       23.686        0.245      337.605        9.691      862.191
12/18/2014  15:32:00       37.346       35.009        6.019       32.711       28.148       24.219     1070.026      792.326      586.571        0.255        0.122       51.190       17.859        0.122      337.572        9.637      862.195
12/18/2014  15:33:00       30.356       52.876       53.795       34.823       23.899       21.241     1212.616      571.171      451.166        0.442        0.112       60.970       20.816        0.117      337.584        9.657      862.201
12/18/2014  15:34:00       12.524       13.940       29.705       28.925       27.327       19.293      836.643      746.755      372.236        0.159        0.098       18.740       18.614        0.987      337.682        9.820      862.207
12/18/2014  15:35:00       31.469       43.361       12.178       41.364       21.743       19.246     1710.960      472.754      370.425        0.279        0.128       53.577       24.557        0.210      337.600        9.683      862.216
12/18/2014  15:36:00       31.473       30.031        8.923       23.719       21.843       24.494      562.594      477.109      599.949        0.181        0.082       43.502       17.893        0.169      337.635        9.742      862.224
12/18/2014  15:37:00       17.392       28.280        0.854       23.848       32.313       15.495      568.712     1044.107      240.099        0.148        0.093       33.200       13.013        0.154      337.565        9.625      862.241
12/18/2014  15:38:00       12.744       22.325       35.157       27.752       20.912       23.125      770.147      437.312      534.767        0.182        0.087       25.707       20.910        0.662      337.610        9.699      862.255
12/18/2014  15:39:00       85.880       35.336        7.177       49.805       37.888       28.052     2480.568     1435.510      786.890        0.669        0.235       92.866       26.631        0.082      337.524        9.555      862.268
12/18/2014  15:40:00       40.256        2.210        5.172       19.617       16.258       15.119      384.841      264.327      228.591        0.126        0.044       40.317        9.792        0.059      337.524        9.558      862.275
12/18/2014  15:41:00       36.988       54.670       -2.286       26.952       22.670       18.163      726.429      513.941      329.896        0.297        0.079       66.007       12.675        0.037      337.537        9.577      862.277
12/18/2014  15:42:00       33.578       40.444       -5.441       23.883       16.700       17.228      570.414      278.887      296.793        0.197        0.057       52.566       12.013        0.052      337.541        9.584      862.278
12/18/2014  15:43:00       28.961       40.357       -2.088       19.169       13.577       16.212      367.465      184.331      262.823        0.164        0.041       49.673       10.730        0.047      337.549        9.597      862.276
12/18/2014  15:44:00       38.357       27.320       -1.060       28.023       15.584       13.652      785.291      242.874      186.367        0.172        0.061       47.092        6.320        0.018      337.515        9.542      862.272
12/18/2014  15:45:00       60.546       33.354        7.534       29.181       21.415       21.190      851.503      458.609      449.027        0.330        0.088       69.125       15.973        0.053      337.500        9.516      862.268
12/18/2014  15:46:00       32.250       25.114        4.888       22.188       21.128       14.890      492.310      446.372      221.707        0.143        0.058       40.875       12.509        0.094      337.502        9.519      862.263
12/18/2014  15:47:00       28.928       20.992       23.292       31.259       25.571       21.530      977.134      653.871      463.524        0.196        0.105       35.742       14.162        0.157      337.509        9.530      862.249
12/18/2014  15:48:00       51.509       25.469        9.778       14.494       12.045       11.888      210.088      145.087      141.324        0.195        0.025       57.462        9.362        0.027      337.488        9.495      862.238
12/18/2014  15:49:00       79.457       43.975       10.185       28.118       33.595       26.576      790.636     1128.597      706.295        0.549        0.131       90.815       22.076        0.059      337.475        9.474      862.227
12/18/2014  15:50:00       86.127       54.534       18.434       32.541       34.267       33.118     1058.886     1174.259     1096.808        0.703        0.166      101.941       13.872        0.019      337.429        9.397      862.214
12/18/2014  15:51:00      122.323       54.413       20.323       26.683       26.795       23.835      711.961      717.990      568.113        1.017        0.100      133.880        4.369        0.001      337.475        9.474      862.211
12/18/2014  15:52:00       80.731       55.664        3.522       42.292       23.701       24.654     1788.578      561.751      607.811        0.629        0.148       98.061       18.290        0.035      337.467        9.461      862.203
12/18/2014  15:53:00       61.728       60.283       -2.331       33.559       22.121       21.107     1126.203      489.327      445.497        0.476        0.103       86.281       14.027        0.026      337.451        9.434      862.201
12/18/2014  15:54:00       84.027       61.940       21.733       28.853       29.052       21.461      832.519      844.006      460.560        0.675        0.107      104.390       13.775        0.017      337.502        9.518      862.202
12/18/2014  15:55:00       84.937       65.629        8.803       20.207       30.440       21.582      408.338      926.591      465.779        0.670        0.090      107.338       16.294        0.023      337.480        9.481      862.207
12/18/2014  15:56:00       75.213       54.706        5.502       32.345       28.052       17.260     1046.192      786.930      297.901        0.541        0.107       93.004       11.286        0.015      337.472        9.467      862.211
12/18/2014  15:57:00       34.056       45.426       38.845       26.950       29.558       24.892      726.290      873.695      619.618        0.348        0.111       56.775       22.564        0.158      337.479        9.480      862.222
12/18/2014  15:58:00       13.720       38.671       52.829       29.394       27.080       18.100      864.007      733.327      327.600        0.320        0.096       41.033       12.017        0.086      337.525        9.558      862.239
12/18/2014  15:59:00       51.982       41.544       25.967       40.865       24.389       25.827     1669.960      594.836      667.041        0.402        0.147       66.543       22.303        0.112      337.472        9.469      862.263
12/18/2014  16:00:00      -32.369       61.152      -19.520       64.138       35.546       17.780     4113.659     1263.494      316.135        0.543        0.285       69.191       13.630        0.039      337.577        9.644      862.289
12/18/2014  16:01:00      -55.675      142.027      -39.835       64.845       50.841       24.811     4204.927     2584.757      615.592        1.613        0.370      152.549       22.117        0.021      337.523        9.554      862.308
12/18/2014  16:02:00       -7.030      110.495      -23.951       16.160       16.723       10.633      261.161      279.650      113.054        0.674        0.033      110.718        6.677        0.004      337.499        9.513      862.318
12/18/2014  16:03:00       -8.475      102.013      -22.946       25.689       45.889       16.166      659.904     2105.767      261.328        0.702        0.151      102.364       25.512        0.062      337.427        9.392      862.326
12/18/2014  16:04:00       46.041       46.664       -2.644       21.191       21.578       17.161      449.063      465.612      294.515        0.276        0.060       65.554       12.616        0.037      337.397        9.342      862.320
12/18/2014  16:05:00       27.388      131.915      -21.300       24.827       70.613       27.045      616.400     4986.203      731.429        1.247        0.317      134.728       37.670        0.078      337.384        9.321      862.315
12/18/2014  16:06:00      -12.622      210.247      -30.174       28.067       26.616       15.773      787.741      708.413      248.792        2.351        0.087      210.626       12.217        0.003      337.412        9.367      862.299
12/18/2014  16:07:00      -12.317      129.358      -13.055       25.899       52.976       27.026      670.750     2806.497      730.417        1.063        0.210      129.943       23.528        0.033      337.421        9.384      862.290
12/18/2014  16:08:00       -7.708      114.238      -13.810       27.857       29.387       17.427      776.005      863.566      303.687        0.762        0.097      114.498       16.961        0.022      337.537        9.579      862.285
12/18/2014  16:09:00      -12.948      109.848       -9.450       18.826       25.613       16.401      354.417      656.041      268.990        0.680        0.064      110.608       11.063        0.010      337.486        9.492      862.277
12/18/2014  16:10:00      -29.040       67.846        1.158       32.633       25.709       24.145     1064.900      660.931      582.985        0.388        0.115       73.800       19.311        0.068      337.562        9.619      862.274
12/18/2014  16:11:00      -62.130       93.874      -24.259       33.321       29.292       19.854     1110.290      858.021      394.187        0.781        0.118      112.572       10.185        0.008      337.469        9.463      862.267
12/18/2014  16:12:00      -30.561       62.715       -8.795       20.419       30.594       18.692      416.938      935.996      349.386        0.332        0.085       69.764       13.787        0.039      337.457        9.444      862.259
12/18/2014  16:13:00      -55.382       82.250      -21.750       32.073       44.203       19.315     1028.704     1953.870      373.065        0.683        0.168       99.157       19.489        0.039      337.410        9.365      862.250
12/18/2014  16:14:00      -66.698      111.967      -21.616       30.847       47.346       23.074      951.557     2241.624      532.417        1.059        0.186      130.328       18.544        0.020      337.312        9.201      862.245
12/18/2014  16:15:00      -89.892       74.576      -27.257       32.216       47.291       22.730     1037.897     2236.448      516.670        0.909        0.190      116.799        7.376        0.004      337.371        9.301      862.255
12/18/2014  16:16:00      -31.011        0.139       -3.009       46.074       63.685       25.407     2122.850     4055.796      645.512        0.390        0.341       31.011       14.695        0.225      337.317        9.210      862.268
12/18/2014  16:17:00      -52.149       26.151       -2.417       37.499       34.560       21.123     1406.197     1194.404      446.175        0.323        0.152       58.339       15.132        0.067      337.452        9.435      862.272
12/18/2014  16:18:00      -86.530       74.318      -11.939       46.078       32.804       28.651     2123.194     1076.118      820.880        0.859        0.201      114.064       29.498        0.067      337.301        9.184      862.272
12/18/2014  16:19:00      -36.537      112.597      -20.092       29.713       35.700       21.956      882.882     1274.516      482.081        0.853        0.132      118.377       13.138        0.012      337.255        9.107      862.271
12/18/2014  16:20:00      -86.685      106.500      -19.313       39.819       50.313       26.157     1585.532     2531.424      684.213        1.201        0.240      137.319       22.776        0.028      337.281        9.148      862.267
12/18/2014  16:21:00      -78.249      109.200      -21.707       31.200       49.032       21.411      973.454     2404.144      458.435        1.118        0.192      134.342       21.675        0.026      337.196        9.007      862.273
12/18/2014  16:22:00      -71.976      104.715      -16.788       30.014       25.492       18.350      900.837      649.829      336.710        0.916        0.094      127.066       15.069        0.014      337.194        9.004      862.278
12/18/2014  16:23:00     -100.601       73.339      -24.933       27.082       32.212       16.484      733.415     1037.606      271.709        0.908        0.102      124.496       11.203        0.008      337.338        9.246      862.271
12/18/2014  16:24:00      -59.423      110.494       -6.280       28.564       40.215       25.604      815.908     1617.259      655.559        0.943        0.154      125.459       23.453        0.035      337.150        8.930      862.267
12/18/2014  16:25:00     -110.185       94.490      -23.076       44.453       42.547       24.890     1976.099     1810.226      619.501        1.300        0.220      145.152       28.765        0.039      337.282        9.148      862.277
12/18/2014  16:26:00     -118.844       90.036      -23.829       41.210       36.991       26.155     1698.269     1368.329      684.104        1.327        0.188      149.099       23.830        0.026      337.143        8.916      862.299
12/18/2014  16:27:00     -109.675      100.346      -20.283       27.439       38.886       23.539      752.896     1512.085      554.070        1.266        0.141      148.654       10.980        0.005      337.126        8.891      862.314
12/18/2014  16:28:00      -86.878        5.350      -15.727       34.823       29.278       19.088     1212.623      857.195      364.365        0.513        0.122       87.042       15.444        0.031      337.106        8.855      862.325
12/18/2014  16:29:00      -64.311      -24.926       -0.306       31.008       34.892       20.892      961.498     1217.434      436.479        0.369        0.131       68.973       20.456        0.088      337.056        8.771      862.332
12/18/2014  16:30:00      -56.124      -26.818       -9.458       31.176       25.782       17.996      971.955      664.695      323.858        0.296        0.098       62.202       11.798        0.036      337.110        8.861      862.337
12/18/2014  16:31:00      -36.319       21.193       -8.773       31.105       43.960       15.138      967.538     1932.517      229.169        0.249        0.156       42.050       14.753        0.123      337.065        8.786      862.332
12/18/2014  16:32:00      -60.629       95.375       -9.915       35.461       46.501       28.524     1257.457     2162.365      813.640        0.855        0.212      113.014       18.302        0.026      336.981        8.646      862.341
12/18/2014  16:33:00      -99.043      135.922      -23.385       40.245       45.742       25.618     1619.632     2092.305      656.264        1.660        0.218      168.179       19.984        0.014      336.969        8.626      862.334
12/18/2014  16:34:00     -125.617      151.409      -30.083       39.820       50.869       29.106     1585.657     2587.658      847.159        2.231        0.251      196.734       21.219        0.012      336.966        8.621      862.350
12/18/2014  16:35:00     -114.841      116.244      -17.084       42.425       46.723       32.772     1799.867     2183.031     1074.003        1.602        0.253      163.405       23.741        0.021      336.968        8.624      862.357
12/18/2014  16:36:00     -118.549      136.981      -28.991       44.029       55.750       31.613     1938.567     3108.007      999.397        1.985        0.302      181.156       29.691        0.027      336.924        8.549      862.374
12/18/2014  16:37:00     -124.287      114.219      -24.747       43.306       44.644       29.506     1875.449     1993.128      870.587        1.692        0.237      168.800       23.303        0.019      336.931        8.563      862.388
12/18/2014  16:38:00     -120.232      131.625      -25.674       43.725       56.681       31.270     1911.849     3212.717      977.806        1.927        0.305      178.272       23.249        0.017      336.885        8.485      862.398
12/18/2014  16:39:00     -130.070      101.146      -19.214       41.420       69.105       26.456     1715.599     4775.499      699.901        1.735        0.360      164.768       19.300        0.014      336.891        8.495      862.411
12/18/2014  16:40:00     -100.132       64.582      -12.123       48.466       72.627       40.979     2348.982     5274.640     1679.250        1.182        0.465      119.152       28.716        0.058      336.981        8.647      862.404
12/18/2014  16:41:00     -103.736      101.476      -26.791       46.719       63.716       37.914     2182.643     4059.748     1437.482        1.473        0.384      145.115       27.252        0.035      336.865        8.453      862.407
12/18/2014  16:42:00     -130.177      112.998      -25.168       50.360       70.210       40.621     2536.081     4929.466     1650.102        1.973        0.456      172.379       42.963        0.062      336.923        8.550      862.407
12/18/2014  16:43:00     -122.443      121.215      -28.584       55.165       52.881       33.297     3043.167     2796.438     1108.662        1.872        0.347      172.294       28.980        0.028      336.756        8.272      862.398
12/18/2014  16:44:00     -127.601      154.627      -40.598       62.383       42.800       28.315     3891.627     1831.864      801.752        2.418        0.326      200.478       30.412        0.023      336.775        8.300      862.390
12/18/2014  16:45:00     -123.234      139.568      -21.344       68.128       54.254       38.419     4641.459     2943.484     1475.985        2.209        0.453      186.188       38.226        0.042      336.775        8.302      862.396
12/18/2014  16:46:00     -130.229      177.171      -24.088       52.864       71.597       37.411     2794.584     5126.182     1399.594        2.912        0.466      219.885       29.185        0.018      336.763        8.280      862.418
12/18/2014  16:47:00      -90.102      107.912      -20.982       58.721       48.098       31.537     3448.192     2313.371      994.570        1.348        0.338      140.583       31.653        0.051      336.829        8.393      862.441
12/18/2014  16:48:00     -103.247      116.643      -19.491       37.773       57.684       30.336     1426.771     3327.476      920.270        1.516        0.284      155.775       25.267        0.026      336.768        8.290      862.469
12/18/2014  16:49:00     -132.098      164.790      -33.586       56.440       53.994       34.879     3185.491     2915.315     1216.547        2.652        0.366      211.201       30.394        0.021      336.729        8.224      862.480
12/18/2014  16:50:00     -109.439      159.915      -35.455       37.672       52.176       25.500     1419.183     2722.372      650.251        2.180        0.240      193.777       17.257        0.008      336.707        8.188      862.484
12/18/2014  16:51:00      -82.106      153.235      -28.387       42.963       55.638       20.227     1845.789     3095.533      409.151        1.819        0.268      173.846       14.738        0.007      336.747        8.255      862.471
12/18/2014  16:52:00      -76.207      109.578      -23.237       32.430       37.047       22.045     1051.731     1372.486      485.964        1.063        0.146      133.472       15.780        0.014      336.719        8.211      862.459
12/18/2014  16:53:00      -73.825      111.396      -18.589       44.343       38.331       27.972     1966.286     1469.290      782.435        1.121        0.211      133.638       26.245        0.039      336.681        8.146      862.445
12/18/2014  16:54:00      -76.168      126.583      -23.999       34.992       40.425       28.251     1224.412     1634.168      798.105        1.303        0.183      147.733       28.469        0.037      336.689        8.161      862.439
12/18/2014  16:55:00     -129.889      103.621      -28.444       37.202       47.598       30.414     1384.013     2265.588      924.990        1.650        0.229      166.158       26.865        0.026      336.744        8.251      862.440
12/18/2014  16:56:00     -122.445      114.287      -27.618       57.121       45.307       37.740     3262.845     2052.684     1424.287        1.778        0.337      167.494       37.987        0.051      336.736        8.238      862.427
12/18/2014  16:57:00      -89.296       86.279       -1.147       61.200       42.474       30.034     3745.499     1804.081      902.016        1.093        0.323      124.168       24.923        0.040      336.765        8.287      862.432
12/18/2014  16:58:00      -94.099      111.161      -20.698       59.277       60.357       30.728     3513.772     3642.924      944.193        1.487        0.405      145.641       35.314        0.059      336.687        8.156      862.430
12/18/2014  16:59:00     -118.604      111.142      -21.818       38.004       43.313       31.137     1444.284     1875.985      969.524        1.559        0.214      162.541       24.192        0.022      336.711        8.197      862.431
12/18/2014  17:00:00      -93.269      110.892      -20.692       44.374       53.712       31.750     1969.071     2884.967     1008.062        1.364        0.293      144.901       31.667        0.048      336.667        8.122      862.425
12/18/2014  17:01:00     -121.399       97.874      -11.377       66.422       61.601       38.598     4411.826     3794.725     1489.832        1.707        0.485      155.939       34.162        0.048      336.590        7.994      862.423
12/18/2014  17:02:00     -122.597      154.745      -29.329       57.729       56.796       40.273     3332.652     3225.756     1621.876        2.401        0.409      197.423       37.065        0.035      336.553        7.932      862.422
12/18/2014  17:03:00     -125.254      108.472      -28.622       32.941       49.135       27.017     1085.133     2414.278      729.918        1.625        0.211      165.694       24.831        0.022      336.590        7.993      862.432
12/18/2014  17:04:00     -115.161      110.339      -19.373       37.111       51.469       29.772     1377.236     2649.050      886.388        1.536        0.246      159.490       22.273        0.020      336.591        7.996      862.433
12/18/2014  17:05:00      -88.484       78.607       -8.083       38.751       45.614       30.466     1501.633     2080.643      928.162        0.929        0.226      118.358       16.744        0.020      336.643        8.083      862.456
12/18/2014  17:06:00     -116.089      167.856      -30.085       43.013       62.979       35.854     1850.142     3966.366     1285.517        2.483        0.355      204.089       24.418        0.014      336.554        7.933      862.467
12/18/2014  17:07:00     -102.902       96.195      -20.025       41.780       45.635       28.203     1745.538     2082.556      795.406        1.243        0.231      140.863       24.464        0.030      336.502        7.846      862.484
12/18/2014  17:08:00     -144.069      142.077      -30.588       42.968       66.876       38.011     1846.274     4472.425     1444.843        2.482        0.388      202.341       24.178        0.014      336.554        7.933      862.496
12/18/2014  17:09:00     -140.576      144.269      -32.855       51.008       62.675       29.591     2601.788     3928.104      875.624        2.453        0.370      201.433       29.992        0.022      336.572        7.961      862.496
12/18/2014  17:10:00      -79.795      102.719      -17.138       58.272       75.564       38.530     3395.618     5709.894     1484.531        1.390        0.530      130.071       49.789        0.147      336.498        7.838      862.499
12/18/2014  17:11:00     -120.000      136.867      -26.682       46.652       62.513       35.719     2176.432     3907.933     1275.846        2.060        0.368      182.023       35.369        0.038      336.539        7.906      862.500
12/18/2014  17:12:00      -97.859       77.492      -15.738       43.110       35.391       26.360     1858.489     1252.546      694.836        0.982        0.190      124.826       23.207        0.035      336.601        8.013      862.490
12/18/2014  17:13:00      -90.055       44.213      -12.575       58.397       50.409       30.074     3410.219     2541.091      904.428        0.854        0.343      100.323       31.204        0.097      336.608        8.025      862.485
12/18/2014  17:14:00     -105.067      122.692      -19.176       51.269       54.368       36.731     2628.522     2955.855     1349.185        1.670        0.347      161.532       27.241        0.028      336.538        7.907      862.498
12/18/2014  17:15:00     -104.914       77.400      -15.895       57.348       52.690       33.329     3288.769     2776.239     1110.841        1.221        0.359      130.376       21.560        0.027      336.639        8.076      862.514
12/18/2014  17:16:00     -117.401      173.352      -25.608       50.573       56.955       38.186     2557.661     3243.871     1458.168        2.587        0.363      209.366       39.431        0.035      336.534        7.899      862.520
12/18/2014  17:17:00      -91.799       53.951      -20.271       57.282       47.111       40.234     3281.224     2219.400     1618.781        0.943        0.356      106.478       40.401        0.144      336.655        8.103      862.524
12/18/2014  17:18:00     -134.719       18.137      -22.033       36.991       44.767       26.005     1368.337     2004.061      676.241        1.151        0.202      135.934       19.260        0.020      336.584        7.982      862.542
12/18/2014  17:19:00     -166.832      -74.084       -9.304       44.426       46.914       28.657     1973.632     2200.936      821.196        1.920        0.250      182.541       25.057        0.019      336.333        7.563      862.552
12/18/2014  17:20:00     -160.272      -46.529       -2.886       56.915       37.769       29.745     3239.320     1426.501      884.746        1.670        0.278      166.889       31.733        0.036      336.189        7.321      862.573
12/18/2014  17:21:00     -152.826      -27.608       -9.253       39.047       34.522       25.122     1524.665     1191.790      631.103        1.377        0.167      155.300       19.855        0.016      336.208        7.356      862.587
12/18/2014  17:22:00     -112.994      -22.363      -11.095       39.358       31.294       24.044     1549.047      979.307      578.110        0.825        0.155      115.186       18.215        0.025      336.347        7.587      862.596
12/18/2014  17:23:00      -92.738       31.094       -8.810       43.573       42.126       35.829     1898.611     1774.588     1283.708        0.730        0.248       97.812       27.520        0.079      336.507        7.855      862.605
12/18/2014  17:24:00      -68.972       95.754        2.257       57.703       61.952       40.782     3329.603     3838.098     1663.211        1.138        0.442      118.008       35.780        0.092      336.485        7.819      862.583
12/18/2014  17:25:00     -130.939      121.853      -27.277       56.040       53.404       35.001     3140.432     2851.960     1225.073        1.998        0.361      178.867       38.720        0.047      336.735        8.234      862.558
12/18/2014  17:26:00     -157.561       68.562      -25.509       53.597       61.923       31.366     2872.682     3834.434      983.806        1.893        0.385      171.832       34.981        0.041      336.760        8.276      862.548
12/18/2014  17:27:00     -119.161       15.563      -17.250       43.455       44.468       18.819     1888.299     1977.370      354.139        0.948        0.211      120.173       17.006        0.020      336.702        8.181      862.535
12/18/2014  17:28:00     -184.494      -72.542      -19.051       53.754       57.723       27.620     2889.466     3331.944      762.863        2.332        0.349      198.243       19.504        0.010      336.420        7.708      862.538
12/18/2014  17:29:00     -202.889      -26.927      -12.049       48.446       67.936       30.983     2346.975     4615.339      959.916        2.498        0.396      204.668       27.635        0.018      336.345        7.582      862.540
12/18/2014  17:30:00     -130.305      -26.474       -7.023       62.499       49.810       33.997     3906.106     2480.993     1155.798        1.263        0.377      132.967       31.769        0.057      336.506        7.852      862.549
12/18/2014  17:31:00     -162.521      -53.776      -13.712       44.737       43.597       29.295     2001.382     1900.678      858.184        1.713        0.238      171.186       27.101        0.025      336.360        7.610      862.542
12/18/2014  17:32:00     -127.932      -40.970       -0.836       48.083       42.447       30.315     2311.960     1801.738      918.991        1.154        0.252      134.332       31.928        0.056      336.256        7.434      862.551
12/18/2014  17:33:00      -97.089      -40.613       -7.814       53.030       44.768       25.466     2812.193     2004.208      648.533        0.830        0.273      105.241       24.994        0.056      336.356        7.603      862.551
12/18/2014  17:34:00     -127.453      -51.644      -16.487       56.637       39.166       27.404     3207.735     1534.012      750.997        1.234        0.275      137.519       19.216        0.020      336.256        7.436      862.547
12/18/2014  17:35:00     -147.708      -28.370      -20.179       41.376       53.796       36.211     1711.984     2893.980     1311.208        1.447        0.296      150.408       26.016        0.030      336.214        7.365      862.540
12/18/2014  17:36:00     -132.352       34.851      -19.194       92.078       57.420       40.247     8478.274     3297.065     1619.824        1.624        0.670      136.863       41.304        0.091      336.217        7.371      862.544
12/18/2014  17:37:00     -120.590       70.906      -27.253       57.605       76.166       32.980     3318.322     5801.263     1087.686        1.526        0.510      139.892       30.617        0.048      336.273        7.463      862.560
12/18/2014  17:38:00     -168.800       24.302      -19.066       86.850       67.199       40.206     7542.952     4515.677     1616.562        2.156        0.684      170.541       18.828        0.012      336.251        7.426      862.574
12/18/2014  17:39:00     -127.218       38.611      -10.606       73.682       95.341       40.215     5429.015     9089.853     1617.259        1.696        0.807      132.948       33.557        0.064      336.271        7.460      862.596
12/18/2014  17:40:00     -126.184       26.744      -12.606       56.265       75.464       33.937     3165.715     5694.767     1151.749        1.340        0.501      128.987       18.517        0.021      336.291        7.493      862.607
12/18/2014  17:41:00     -102.795       58.131      -14.001       77.890      100.683       44.423     6066.784    10137.167     1973.432        1.616        0.909      118.094       33.896        0.082      336.195        7.333      862.624
12/18/2014  17:42:00     -136.729      113.642      -10.680       70.560       96.935       47.179     4978.773     9396.470     2225.843        2.416        0.830      177.790       46.037        0.067      336.222        7.376      862.612
12/18/2014  17:43:00     -140.276      105.967      -27.876       76.334       69.926       38.033     5826.833     4889.579     1446.525        2.192        0.608      175.802       40.459        0.053      336.163        7.276      862.615
12/18/2014  17:44:00     -123.354       83.516      -25.362       54.302       62.556       33.297     2948.729     3913.315     1108.693        1.540        0.399      148.967       27.919        0.035      336.233        7.397      862.601
12/18/2014  17:45:00     -179.317      149.600      -36.266       85.584       84.840       47.241     7324.655     7197.891     2231.696        3.630        0.838      233.527       50.063        0.046      336.204        7.344      862.602
12/18/2014  17:46:00     -117.946      104.496      -23.788       47.038       57.655       35.280     2212.565     3324.076     1244.648        1.609        0.339      157.578       27.718        0.031      336.207        7.352      862.598
12/18/2014  17:47:00      -88.664      117.930      -18.441       45.854       77.341       33.127     2102.545     5981.595     1097.365        1.564        0.459      147.542       32.215        0.048      336.276        7.469      862.584
12/18/2014  17:48:00     -149.851      126.076      -18.147       67.356       76.213       50.592     4536.788     5808.419     2559.523        2.579        0.645      195.833       52.210        0.071      336.249        7.422      862.586
12/18/2014  17:49:00     -150.275      131.292      -18.760       82.836       75.385       50.586     6861.800     5682.963     2558.915        2.763        0.755      199.550       42.222        0.045      336.214        7.363      862.586
12/18/2014  17:50:00     -102.508      108.935      -17.499       47.763       55.242       31.283     2281.344     3051.698      978.616        1.450        0.316      149.582       23.646        0.025      336.235        7.400      862.604
12/18/2014  17:51:00      -62.721       72.998       -3.927       38.731       63.694       25.328     1500.116     4056.893      641.487        0.774        0.310       96.243       25.774        0.072      336.242        7.413      862.622
12/18/2014  17:52:00      -77.024       57.092       -4.137       37.927       41.564       26.712     1438.475     1727.564      713.517        0.654        0.194       95.876       19.569        0.042      336.285        7.484      862.655
12/18/2014  17:53:00      -66.963       88.204      -11.985       33.604       44.012       21.199     1129.245     1937.072      449.394        0.796        0.176      110.743       20.881        0.036      336.304        7.515      862.673
12/18/2014  17:54:00      -65.519      113.211      -19.984       38.408       58.599       32.869     1475.211     3433.792     1080.358        1.175        0.299      130.804       29.474        0.051      336.173        7.298      862.698
12/18/2014  17:55:00     -108.588      135.212      -20.702       42.595       58.461       31.378     1814.296     3417.712      984.571        1.836        0.311      173.417       24.679        0.020      336.280        7.475      862.724
12/18/2014  17:56:00     -122.605      129.819      -25.790       45.134       61.806       35.363     2037.049     3820.031     1250.507        1.983        0.355      178.564       32.734        0.034      336.224        7.379      862.740
12/18/2014  17:57:00      -94.889       19.134      -10.449       36.373       55.048       27.502     1323.030     3030.313      756.333        0.729        0.255       96.799       17.663        0.033      336.209        7.356      862.753
12/18/2014  17:58:00      -89.907        1.113       -8.610       39.215       22.778       13.556     1537.780      518.819      183.758        0.520        0.112       89.914        9.614        0.011      336.102        7.179      862.748
12/18/2014  17:59:00      -85.231       41.021      -16.375       38.172       43.447       23.306     1457.087     1887.609      543.191        0.655        0.194       94.589       19.529        0.043      336.209        7.357      862.745
12/18/2014  18:00:00      -36.027       27.303        1.324       35.240       35.518       30.505     1241.874     1261.507      930.554        0.274        0.172       45.205       23.925        0.280      336.194        7.331      862.734
12/18/2014  18:01:00      -40.094       76.947        7.270       52.459       64.678       30.720     2751.984     4183.276      943.708        0.773        0.394       86.766       28.053        0.105      336.239        7.406      862.733
12/18/2014  18:02:00     -106.045      220.475      -23.800       89.827       83.318       44.442     8068.957     6941.853     1975.050        3.870        0.849      244.653       33.833        0.019      336.236        7.399      862.747
12/18/2014  18:03:00     -131.274      126.725      -16.998       60.145       61.683       46.112     3617.369     3804.814     2126.345        2.156        0.477      182.462       36.324        0.040      336.297        7.502      862.744
12/18/2014  18:04:00      -98.946      163.787      -25.219       79.483       67.589       41.986     6317.527     4568.231     1762.819        2.495        0.632      191.354       37.706        0.039      336.261        7.441      862.754
12/18/2014  18:05:00      -58.924       97.733       -0.113       43.212       77.889       31.412     1867.289     6066.733      986.737        1.097        0.446      114.122       22.551        0.039      336.237        7.404      862.778
12/18/2014  18:06:00     -112.311      -52.860       -1.195       46.669       35.644       21.775     2177.973     1270.517      474.151        0.967        0.196      124.129       19.912        0.026      336.122        7.211      862.794
12/18/2014  18:07:00     -113.834      -16.117       -6.692       55.608       53.633       27.478     3092.211     2876.489      755.037        0.999        0.336      114.970       29.883        0.068      336.092        7.163      862.815
12/18/2014  18:08:00     -144.737        5.155      -23.343       47.297       49.898       30.326     2237.002     2489.794      919.644        1.358        0.282      144.828       28.096        0.038      336.154        7.264      862.847
12/18/2014  18:09:00     -127.693        1.708      -21.460       24.773       40.090       18.350      613.726     1607.226      336.715        0.966        0.128      127.705       15.868        0.015      336.187        7.320      862.849
12/18/2014  18:10:00     -102.266      -14.854       -5.483       44.949       71.448       31.353     2020.457     5104.872      982.990        0.941        0.405      103.339       23.928        0.054      336.191        7.327      862.833
12/18/2014  18:11:00     -102.260       -2.580       -7.983       57.183       54.245       28.921     3269.914     2942.491      836.399        0.879        0.352      102.293       20.647        0.041      336.111        7.193      862.832
12/18/2014  18:12:00     -129.106       35.321      -13.848       67.803       46.815       34.557     4597.275     2191.611     1194.166        1.304        0.399      133.850       35.159        0.069      336.214        7.366      862.830
12/18/2014  18:13:00     -123.604       13.988      -21.973       49.457       62.680       28.391     2445.957     3928.767      806.076        1.157        0.359      124.393       21.401        0.030      336.210        7.360      862.822
12/18/2014  18:14:00     -165.314        4.145      -22.964       41.919       46.236       21.540     1757.165     2137.732      463.967        1.612        0.218      165.366       20.120        0.015      336.070        7.126      862.837
12/18/2014  18:15:00     -163.888      -44.011      -16.785       75.447       67.284       30.138     5692.227     4527.092      908.274        2.010        0.556      169.694       27.253        0.026      336.022        7.042      862.850
12/18/2014  18:16:00     -162.046       56.325      -23.468       44.286       66.818       32.644     1961.224     4464.602     1065.617        1.874        0.375      171.555       21.077        0.015      336.068        7.120      862.849
12/18/2014  18:17:00     -101.730       20.530      -14.310       60.705       33.831       21.192     3685.063     1144.547      449.096        0.813        0.264      103.781       18.440        0.032      336.104        7.182      862.834
12/18/2014  18:18:00      -22.099       68.699        8.892       49.170       36.097       25.241     2417.660     1303.000      637.107        0.482        0.218       72.166       13.271        0.034      336.101        7.176      862.815
12/18/2014  18:19:00      -44.958      -15.570        2.089       24.086       29.980       17.159      580.147      898.816      294.438        0.202        0.089       47.578       14.406        0.092      336.190        7.325      862.801
12/18/2014  18:20:00      -57.259        8.207        0.583       48.376       36.549       26.054     2340.204     1335.811      678.815        0.385        0.218       57.845       21.782        0.142      336.126        7.217      862.809
12/18/2014  18:21:00      -73.013        8.189      -10.743       29.771       36.234       22.227      886.287     1312.887      494.023        0.410        0.135       73.471       16.174        0.048      336.238        7.406      862.816
12/18/2014  18:22:00      -77.702        4.513       -8.286       27.808       26.514       16.912      773.276      703.013      286.000        0.394        0.088       77.833       13.656        0.031      336.327        7.554      862.827
12/18/2014  18:23:00      -92.227      -42.538      -11.261       22.289       23.836       19.654      496.786      568.147      386.293        0.595        0.073      101.564       13.070        0.017      336.036        7.067      862.836
12/18/2014  18:24:00      -72.810      -25.751       -2.305       31.275       31.512       16.414      978.111      992.985      269.406        0.410        0.112       77.229       14.435        0.035      336.029        7.056      862.841
12/18/2014  18:25:00      -67.221      -13.928       -5.108       52.077       23.260       21.327     2711.969      541.010      454.820        0.422        0.185       68.649       25.718        0.140      336.091        7.159      862.849
12/18/2014  18:26:00      -84.168      -14.561       -7.371       50.387       18.320       20.843     2538.889      335.606      434.423        0.533        0.165       85.419       24.506        0.082      336.028        7.053      862.863
12/18/2014  18:27:00     -118.595      -20.273      -11.820       37.857       27.312       19.529     1433.128      745.954      381.386        0.859        0.128      120.315       17.282        0.021      335.976        6.967      862.879
12/18/2014  18:28:00     -105.100      -25.598       -7.736       40.559       35.546       24.643     1645.035     1263.510      607.267        0.764        0.176      108.172       23.395        0.047      335.985        6.984      862.898
12/18/2014  18:29:00      -91.643      -17.812       -8.119       26.127       34.163       18.662      682.601     1167.107      348.277        0.549        0.110       93.358       11.423        0.015      336.123        7.212      862.920
12/18/2014  18:30:00      -86.617        3.646      -14.429       34.857       29.069       24.703     1215.030      845.031      610.255        0.520        0.134       86.693       14.064        0.026      336.239        7.407      862.930
12/18/2014  18:31:00      -71.766      -40.140       -0.880       39.107       35.739       22.309     1529.375     1277.270      497.686        0.503        0.165       82.229       19.785        0.058      336.130        7.225      862.941
12/18/2014  18:32:00      -36.116       -4.246        2.350       20.538       22.180       17.770      421.825      491.952      315.759        0.128        0.061       36.364       13.887        0.146      336.032        7.062      862.950
12/18/2014  18:33:00      -54.645       61.517      -14.239       35.051       28.878       19.701     1228.583      833.953      388.133        0.471        0.123       82.283       13.547        0.027      336.245        7.417      862.955
12/18/2014  18:34:00      -48.427      102.897       -8.668       28.094       28.511       19.583      789.248      812.875      383.488        0.750        0.099      113.723       17.334        0.023      336.147        7.253      862.945
12/18/2014  18:35:00      -45.603       99.919      -17.182       23.785       21.742       16.287      565.717      472.698      265.276        0.683        0.065      109.834        8.139        0.005      336.296        7.502      862.943
12/18/2014  18:36:00      -53.170       80.430       -8.666       29.336       34.383       17.982      860.598     1182.192      323.342        0.587        0.118       96.416       15.982        0.027      336.298        7.507      862.950
12/18/2014  18:37:00      -25.879       67.982       -3.619       23.323       32.513       17.263      543.958     1057.114      298.016        0.360        0.095       72.741       16.707        0.053      336.362        7.612      862.975
12/18/2014  18:38:00      -13.369      117.490      -16.167       21.489       25.237       13.106      461.778      636.916      171.760        0.776        0.064      118.248       10.919        0.009      336.275        7.467      862.984
12/18/2014  18:39:00      -41.652       48.385       -3.677       29.598       39.775       17.356      876.014     1582.066      301.227        0.342        0.138       63.844       23.569        0.136      336.275        7.467      862.993
12/18/2014  18:40:00      -58.457       68.545      -13.206       34.785       28.487       17.354     1210.005      811.519      301.168        0.531        0.116       90.087       12.626        0.020      336.282        7.481      862.998
12/18/2014  18:41:00      -66.926      133.446      -20.947       32.231       34.096       19.260     1038.809     1162.519      370.953        1.265        0.129      149.288       19.665        0.017      336.290        7.493      863.004
12/18/2014  18:42:00      -92.282      121.145      -22.048       26.329       34.344       22.555      693.205     1179.534      508.740        1.303        0.119      152.290       12.657        0.007      336.081        7.143      863.018
12/18/2014  18:43:00      -47.461       78.853      -19.997       28.688       30.063       16.314      822.986      903.810      266.132        0.543        0.100       92.034       14.814        0.026      336.157        7.268      863.033
12/18/2014  18:44:00      -49.196      107.068      -14.827       31.330       37.039       19.068      981.539     1371.915      363.591        0.841        0.136      117.830       16.952        0.021      336.312        7.529      863.044
12/18/2014  18:45:00      -39.849       96.957      -12.273       33.974       33.332       19.941     1154.200     1111.028      397.640        0.690        0.133      104.827       14.055        0.018      336.302        7.511      863.049
12/18/2014  18:46:00      -38.145      100.395      -12.724       25.240       29.943       16.106      637.060      896.610      259.398        0.674        0.090      107.398       12.303        0.013      336.328        7.555      863.050
12/18/2014  18:47:00      -56.336       33.353       -6.178       19.216       30.627       19.332      369.256      938.008      373.723        0.300        0.084       65.469       14.747        0.051      336.358        7.606      863.052
12/18/2014  18:48:00      -64.678       37.510      -11.483       20.801       19.827       14.573      432.662      393.095      212.361        0.338        0.052       74.768        9.024        0.015      336.397        7.671      863.044
12/18/2014  18:49:00      -74.042       26.761       -2.769       22.763       27.468       17.006      518.172      754.492      289.192        0.388        0.078       78.729       12.009        0.023      336.591        7.995      863.047
12/18/2014  18:50:00      -67.681       40.039        2.391       26.380       27.579       16.772      695.908      760.625      281.311        0.396        0.087       78.638       11.390        0.021      336.690        8.161      863.052
12/18/2014  18:51:00      -76.103       39.821        1.141       31.720       17.719       23.140     1006.163      313.954      535.438        0.462        0.093       85.892       20.210        0.055      336.632        8.064      863.040
12/18/2014  18:52:00      -76.962        7.487      -10.369       41.790       31.086       16.503     1746.402      966.349      272.350        0.454        0.149       77.325       16.488        0.045      336.568        7.957      863.037
12/18/2014  18:53:00      -79.874      -34.643      -13.173       16.837       15.528       12.644      283.500      241.121      159.862        0.422        0.034       87.063       11.555        0.018      336.092        7.161      863.028
12/18/2014  18:54:00      -71.047      -41.521       -4.380       24.960       23.230       16.638      623.010      539.617      276.838        0.411        0.072       82.290       12.239        0.022      336.129        7.222      863.033
12/18/2014  18:55:00      -69.250      -52.974        2.815       36.267       26.337       19.836     1315.315      693.633      393.469        0.501        0.120       87.188       21.893        0.063      335.996        7.001      863.033
12/18/2014  18:56:00     -108.435      -45.814       -9.141       30.694       19.414       14.391      942.132      376.899      207.099        0.773        0.076      117.716       12.345        0.011      335.933        6.897      863.030
12/18/2014  18:57:00     -133.181      -24.171        3.345       57.490       55.300       28.506     3305.131     3058.137      812.596        1.275        0.359      135.357       30.695        0.051      336.095        7.168      863.024
12/18/2014  18:58:00     -152.053      -36.720        7.661       58.949       36.943       29.709     3474.927     1364.774      882.643        1.512        0.286      156.424       32.073        0.042      336.110        7.192      863.019
12/18/2014  18:59:00     -124.683      -44.961       -2.803       46.406       41.034       29.214     2153.515     1683.760      853.440        1.113        0.235      132.542       34.505        0.068      336.036        7.068      863.028
12/18/2014  19:00:00     -113.593      -36.280        2.861       64.330       35.969       24.875     4138.324     1293.735      618.745        1.014        0.303      119.246       31.161        0.068      336.030        7.056      863.039
12/18/2014  19:01:00      -68.510      -64.274        0.565       36.333       28.014       19.354     1320.094      784.811      374.564        0.565        0.124       93.940       18.234        0.038      336.086        7.149      863.033
12/18/2014  19:02:00      -71.457      -69.554       -1.196       32.668       34.956       24.570     1067.202     1221.899      603.688        0.642        0.145       99.719       20.538        0.042      336.105        7.183      863.028
12/18/2014  19:03:00      -40.787      -44.726       15.254       46.184       34.420       26.284     2132.962     1184.761      690.861        0.395        0.200       60.531       22.461        0.138      336.158        7.272      863.019
12/18/2014  19:04:00      -43.322      -69.482        3.762       32.487       49.702       19.437     1055.422     2470.303      377.778        0.531        0.195       81.881       20.827        0.065      336.192        7.327      863.020
12/18/2014  19:05:00      -23.601      -32.710        5.885       22.696       32.259       16.476      515.099     1040.634      271.453        0.174        0.091       40.335       12.675        0.099      336.208        7.355      863.034
12/18/2014  19:06:00      -43.876      -63.517        3.658       22.821       40.156       16.633      520.803     1612.487      276.648        0.419        0.120       77.198        5.660        0.005      336.206        7.352      863.050
12/18/2014  19:07:00      -12.696       -5.329      -12.455       23.876       26.333       18.068      570.059      693.442      326.446        0.097        0.079       13.769       15.027        1.191      336.089        7.156      863.051
12/18/2014  19:08:00      -34.897      -51.167       -5.716       32.042       30.293       24.035     1026.714      917.686      577.662        0.319        0.126       61.934       11.710        0.036      336.106        7.184      863.047
12/18/2014  19:09:00      -36.356      -28.756        6.013       27.536       36.584       13.784      758.247     1338.424      189.992        0.224        0.114       46.353       14.065        0.092      336.087        7.153      863.043
12/18/2014  19:10:00       10.081      -36.702        9.394       26.171       43.502       28.693      684.926     1892.429      823.276        0.247        0.170       38.061       20.756        0.297      336.015        7.032      863.039
12/18/2014  19:11:00        6.361       -6.076       40.722       22.204       49.002       22.009      493.032     2401.149      484.411        0.256        0.169        8.797       29.520       11.261      335.959        6.938      863.034
12/18/2014  19:12:00       11.256       14.061       41.887       22.155       26.711       18.425      490.843      713.456      339.471        0.181        0.077       18.011       15.621        0.752      335.921        6.877      863.033
12/18/2014  19:13:00       26.684       -0.109       32.689       41.965       40.523       42.724     1761.066     1642.124     1825.322        0.350        0.261       26.684       31.198        1.367      335.880        6.808      863.027
12/18/2014  19:14:00        5.012       14.637       62.211       24.010       44.177       29.694      576.486     1951.568      881.749        0.376        0.170       15.472       24.967        2.604      335.978        6.971      863.043
12/18/2014  19:15:00      -11.563       67.331       90.858       21.692       48.425       27.877      470.522     2344.934      777.133        0.826        0.180       68.316       25.938        0.144      335.993        6.995      863.059
12/18/2014  19:16:00       20.053        6.064       47.017       44.830       62.822       40.741     2009.764     3946.585     1659.804        0.513        0.381       20.950       30.195        2.077      335.875        6.798      863.078
12/18/2014  19:17:00       84.090     -100.925      -22.267       49.072       38.967       27.991     2408.082     1518.437      783.505        1.123        0.236      131.366       21.924        0.028      335.935        6.899      863.093
12/18/2014  19:18:00       71.403     -108.191      -16.799       32.953       26.267       21.363     1085.904      689.957      456.376        0.966        0.112      129.629       13.153        0.010      335.968        6.956      863.125
12/18/2014  19:19:00       24.960      -58.520       -6.169       34.288       36.687       25.070     1175.697     1345.915      628.515        0.362        0.158       63.621       27.080        0.181      335.972        6.960      863.144
12/18/2014  19:20:00      -14.903      -26.210       10.134       16.459       26.436       12.695      270.883      698.879      161.163        0.107        0.057       30.150       12.834        0.181      335.929        6.890      863.164
12/18/2014  19:21:00      -15.780      -20.823        5.812       10.153       19.160        9.844      103.089      367.120       96.895        0.064        0.028       26.126        8.324        0.102      335.878        6.804      863.176
12/18/2014  19:22:00        5.498        4.970       28.222       19.519       41.901       36.737      381.011     1755.698     1349.609        0.217        0.174        7.412       36.755       24.592      335.876        6.802      863.182
12/18/2014  19:23:00       -3.536       27.825       55.821       15.502       38.447       23.502      240.307     1478.135      552.349        0.309        0.114       28.049       26.558        0.896      335.887        6.819      863.190
12/18/2014  19:24:00        2.615      -10.108       23.375       17.531       34.605       26.920      307.321     1197.474      724.708        0.144        0.111       10.441       27.824        7.102      335.888        6.820      863.197
12/18/2014  19:25:00       -5.340      -12.159       -0.360       21.702       20.193       17.981      470.978      407.776      323.324        0.069        0.060       13.280       11.976        0.813      335.911        6.859      863.199
12/18/2014  19:26:00      -40.661      -21.035       -4.596       21.469       17.188        9.874      460.937      295.419       97.498        0.149        0.043       45.780        7.170        0.025      335.764        6.616      863.205
12/18/2014  19:27:00      -31.960       -0.578        3.403       21.499       22.564       12.258      462.187      509.120      150.246        0.108        0.056       31.965       11.842        0.137      335.851        6.761      863.211
12/18/2014  19:28:00       -6.013        7.508       16.692        7.837        8.376        5.969       61.413       70.154       35.632        0.027        0.008        9.619        2.937        0.093      335.842        6.746      863.206
12/18/2014  19:29:00       -1.649        0.740        6.930       15.696       10.518        8.521      246.378      110.628       72.601        0.024        0.021        1.807        5.201        8.285      335.850        6.758      863.207
12/18/2014  19:30:00      -26.238       -6.851        6.020       25.736       22.649       15.949      662.344      512.998      254.361        0.110        0.071       27.117       15.501        0.327      335.861        6.776      863.195
12/18/2014  19:31:00      -35.489      -23.537       -4.182       31.105       24.753       19.739      967.537      612.712      389.633        0.190        0.098       42.584       12.283        0.083      335.827        6.721      863.182
12/18/2014  19:32:00        6.385       -9.634        2.874       17.800       11.882        8.950      316.823      141.184       80.102        0.034        0.027       11.557        9.495        0.675      335.779        6.642      863.166
12/18/2014  19:33:00      -17.850       22.314       -4.443       19.669       16.589       19.326      386.855      275.197      373.513        0.094        0.052       28.575       10.672        0.139      335.780        6.642      863.145
12/18/2014  19:34:00      -19.546       -0.335       23.237       20.926       27.624       15.148      437.913      763.072      229.462        0.118        0.072       19.549        8.026        0.169      335.837        6.738      863.128
12/18/2014  19:35:00       -6.427      -19.659        7.204       24.038       14.122       15.142      577.838      199.434      229.291        0.074        0.050       20.683        7.470        0.130      335.817        6.704      863.117
12/18/2014  19:36:00      -14.189      -30.436        8.915       20.102       19.511       17.019      404.095      380.672      289.648        0.114        0.054       33.581       14.655        0.190      335.771        6.627      863.111
12/18/2014  19:37:00      -31.321      -44.560       -1.973       28.190       28.083       24.431      794.648      788.629      596.895        0.257        0.109       54.467       18.725        0.118      335.766        6.619      863.108
12/18/2014  19:38:00      -31.763       -7.743       -3.298       26.178       27.117       17.281      685.275      735.307      298.643        0.140        0.086       32.693       15.022        0.211      335.767        6.620      863.118
12/18/2014  19:39:00      -43.696       -2.625       -0.297       29.368       21.591       15.641      862.495      466.153      244.636        0.174        0.079       43.775       16.481        0.142      335.767        6.621      863.134
12/18/2014  19:40:00      -70.572      -34.860       -2.664       31.014       38.211       18.523      961.862     1460.068      343.092        0.448        0.138       78.712       13.997        0.032      335.799        6.674      863.146
12/18/2014  19:41:00      -78.086      -23.511       -6.788       18.427       18.429       13.704      339.567      339.629      187.810        0.378        0.043       81.548        8.227        0.010      335.724        6.549      863.140
12/18/2014  19:42:00      -44.113      -42.111        1.477       22.772       20.504       16.632      518.569      420.419      276.639        0.247        0.061       60.986       12.149        0.040      335.716        6.535      863.128
12/18/2014  19:43:00      -58.964      -29.979        0.835       17.337       17.159       13.393      300.560      294.447      179.364        0.258        0.039       66.148        9.502        0.021      335.638        6.405      863.105
12/18/2014  19:44:00       -8.102      -19.122        5.132       19.260       21.628       11.418      370.932      467.775      130.367        0.071        0.048       20.768        9.123        0.193      335.635        6.400      863.072
12/18/2014  19:45:00      -13.199      -23.096        7.528       16.969       15.413       11.579      287.959      237.566      134.072        0.071        0.033       26.601       10.647        0.160      335.656        6.436      863.052
12/18/2014  19:46:00       -1.638        5.329       10.153       10.761        9.174        7.158      115.798       84.156       51.238        0.019        0.013        5.575        5.815        1.088      335.547        6.252      863.043
12/18/2014  19:47:00       -7.616        1.343       -6.649        6.891       11.687        8.146       47.480      136.586       66.352        0.018        0.013        7.733        3.739        0.234      335.582        6.314      863.045
12/18/2014  19:48:00       13.368       -3.474      -13.816        9.764        9.215        5.597       95.326       84.909       31.322        0.030        0.011       13.812        2.382        0.030      335.512        6.194      863.051
12/18/2014  19:49:00       17.766       -2.225        1.142        5.401        4.498        9.213       29.175       20.233       84.878        0.023        0.007       17.905        4.168        0.054      335.486        6.150      863.047
12/18/2014  19:50:00       11.440        5.377        1.129        5.849        6.794        7.158       34.215       46.153       51.230        0.015        0.007       12.641        6.429        0.259      335.493        6.163      863.035
12/18/2014  19:51:00        4.161       10.841        0.615        4.559        4.516        5.900       20.781       20.393       34.811        0.011        0.004       11.612        3.682        0.101      335.525        6.214      863.026
12/18/2014  19:52:00       -2.078       -3.026        1.049        4.819        4.604        2.612       23.223       21.193        6.825        0.003        0.003        3.671        2.714        0.547      335.517        6.203      863.027
12/18/2014  19:53:00        1.447       -3.662       -2.384        8.423        7.704        4.138       70.954       59.346       17.122        0.008        0.007        3.937        4.039        1.052      335.535        6.231      863.040
12/18/2014  19:54:00        0.203       -4.128        2.716       17.800       12.341        5.195      316.829      152.303       26.990        0.026        0.025        4.133        5.165        1.562      335.556        6.268      863.058
12/18/2014  19:55:00      -88.732      -33.513       -4.834       30.612       16.098        9.779      937.121      259.158       95.636        0.516        0.065       94.850        8.332        0.008      335.373        5.962      863.087
12/18/2014  19:56:00     -121.312      -24.606       -9.435       25.994       25.034       14.549      675.712      626.706      211.682        0.846        0.076      123.782       10.488        0.007      335.315        5.866      863.112
12/18/2014  19:57:00     -116.260        2.845       -9.908       35.831       26.134       22.166     1283.896      683.005      491.339        0.804        0.123      116.295       21.188        0.033      335.523        6.213      863.127
12/18/2014  19:58:00      -79.463       -2.728       -5.610       41.350       22.773       23.509     1709.806      518.612      552.653        0.457        0.139       79.510       24.814        0.097      335.452        6.095      863.137
12/18/2014  19:59:00      -79.076       -0.587       -7.138       43.921       26.451       20.466     1929.067      699.660      418.852        0.468        0.152       79.079       22.696        0.082      335.546        6.252      863.127
12/18/2014  20:00:00     -106.277       -6.769      -12.086       20.885       16.392       13.797      436.168      268.692      190.360        0.619        0.045      106.492       12.953        0.015      335.323        5.881      863.122
12/18/2014  20:01:00      -68.755      -20.049        0.130       37.670       22.246       19.054     1419.022      494.876      363.055        0.370        0.114       71.618       18.274        0.065      335.316        5.868      863.117
12/18/2014  20:02:00      -42.711      -10.496        2.168       35.801       26.872       19.338     1281.723      722.107      373.965        0.216        0.119       43.982       18.926        0.185      335.268        5.787      863.118
12/18/2014  20:03:00      -70.423      -29.045       -3.574       36.387       27.598       19.285     1324.045      761.662      371.929        0.414        0.123       76.177       21.152        0.077      335.238        5.737      863.118
12/18/2014  20:04:00      -98.034      -26.406        2.054       53.766       29.095       24.317     2890.824      846.509      591.318        0.732        0.216      101.528       31.165        0.094      335.229        5.723      863.119
12/18/2014  20:05:00      -96.580      -20.557       -3.731       31.193       26.598       17.371      973.027      707.460      301.736        0.587        0.099       98.744       14.958        0.023      335.209        5.688      863.114
12/18/2014  20:06:00      -95.987      -27.524       -9.153       16.429       20.671       14.303      269.897      427.287      204.565        0.548        0.045       99.855        9.297        0.009      335.238        5.740      863.104
12/18/2014  20:07:00     -110.637      -32.669       -9.544       21.312       28.743       13.987      454.212      826.140      195.650        0.744        0.074      115.359       10.439        0.008      335.198        5.672      863.097
12/18/2014  20:08:00      -90.629      -10.988       -4.422       39.205       27.881       20.028     1537.069      777.372      401.112        0.553        0.136       91.293       21.733        0.057      335.207        5.687      863.089
12/18/2014  20:09:00      -82.389      -10.945       -7.056       37.953       31.258       19.839     1440.451      977.068      393.602        0.488        0.141       83.113       12.667        0.023      335.293        5.830      863.080
12/18/2014  20:10:00      -95.491       -8.125       -7.516       34.817       33.503       24.881     1212.201     1122.444      619.057        0.610        0.148       95.836       23.062        0.058      335.121        5.545      863.066
12/18/2014  20:11:00      -66.891      -13.519        2.668       25.061       23.399       16.598      628.063      547.508      275.509        0.306        0.073       68.244       15.487        0.052      335.145        5.585      863.050
12/18/2014  20:12:00      -85.846      -18.931       -2.460       28.205       20.834       14.780      795.534      434.072      218.455        0.459        0.072       87.909       15.595        0.031      335.089        5.493      863.036
12/18/2014  20:13:00      -67.277      -42.530       -1.447       34.496       21.220       15.309     1189.980      450.300      234.356        0.411        0.094       79.593       15.273        0.037      335.194        5.665      863.029
12/18/2014  20:14:00       -7.135       -2.295        4.631       16.255       10.204        9.887      264.217      104.116       97.751        0.027        0.023        7.495        9.484        1.601      335.110        5.527      863.022
12/18/2014  20:15:00       -8.136        1.035        8.440       14.923       16.602       12.523      222.688      275.622      156.824        0.040        0.033        8.202       14.887        3.294      335.126        5.554      863.011
12/18/2014  20:16:00        2.195       -7.571        1.560        7.092       18.259        8.727       50.303      333.400       76.155        0.026        0.023        7.883        8.130        1.064      335.148        5.589      863.001
12/18/2014  20:17:00       12.469        5.742        6.131        8.699        7.547        7.016       75.673       56.963       49.228        0.020        0.009       13.728        2.960        0.047      335.146        5.588      863.005
12/18/2014  20:18:00        2.462       11.612        1.450        5.621        6.858        7.284       31.597       47.030       53.057        0.014        0.007       11.870        4.187        0.124      335.153        5.595      863.027
12/18/2014  20:19:00       -0.813       -0.248        7.656       15.392       11.883        8.463      236.912      141.203       71.616        0.025        0.022        0.850        5.691       44.793      335.108        5.523      863.048
12/18/2014  20:20:00      -45.243      -24.312       -7.970       18.383        8.749        7.525      337.936       76.554       56.628        0.159        0.024       51.361        6.191        0.015      335.156        5.604      863.060
12/18/2014  20:21:00      -31.271      -22.546       -1.282       25.958       15.296        9.559      673.840      233.967       91.365        0.124        0.050       38.551        6.925        0.032      335.122        5.546      863.075
12/18/2014  20:22:00      -58.846       15.112       -1.414       40.572       24.461       18.422     1646.098      598.357      339.370        0.314        0.129       60.755       22.158        0.133      335.122        5.546      863.087
12/18/2014  20:23:00      -85.817       -2.927       -0.626       36.615       30.465       21.931     1340.665      928.117      480.948        0.506        0.137       85.867       19.927        0.054      335.002        5.347      863.109
12/18/2014  20:24:00      -62.776      -15.376        3.770       41.218       34.889       21.441     1698.888     1217.220      459.727        0.378        0.169       64.631       23.422        0.131      335.030        5.394      863.127
12/18/2014  20:25:00      -50.298       -4.304       -0.091       35.588       21.978       23.284     1266.492      483.016      542.135        0.242        0.115       50.482       20.585        0.166      335.077        5.472      863.137
12/18/2014  20:26:00      -17.425      -15.399        1.932       23.851       33.727       18.908      568.887     1137.524      357.514        0.130        0.103       23.254       14.633        0.396      335.082        5.480      863.134
12/18/2014  20:27:00       -0.568       -0.981        7.033       20.223       18.284       13.593      408.952      334.322      184.764        0.049        0.046        1.133        8.868       61.247      335.034        5.400      863.106
12/18/2014  20:28:00       -1.977       18.621        0.257       12.641       17.610       10.664      159.803      310.107      113.718        0.047        0.029       18.726        9.023        0.232      335.133        5.564      863.084
12/18/2014  20:29:00      -85.182      -14.024      -10.320       30.745       21.203       13.127      945.231      449.570      172.323        0.456        0.078       86.329        9.891        0.013      334.993        5.332      863.072
12/18/2014  20:30:00     -101.184      -18.897      -13.724       19.228       24.717       14.863      369.715      610.916      220.911        0.599        0.060      102.934        8.017        0.006      334.821        5.046      863.070
12/18/2014  20:31:00      -28.508       43.666        0.594       20.731       32.847       12.008      429.787     1078.906      144.183        0.219        0.083       52.148       13.921        0.071      335.011        5.362      863.063
12/18/2014  20:32:00       -3.383       42.619        4.225       11.941       14.255        7.829      142.579      203.195       61.287        0.113        0.020       42.753        4.514        0.011      335.224        5.715      863.059
12/18/2014  20:33:00       12.297       31.741       -0.433       12.570       16.203       10.535      157.994      262.527      110.976        0.085        0.027       34.040        7.396        0.047      335.241        5.745      863.067
12/18/2014  20:34:00      -58.402       -9.068       -8.952       36.453       25.794        9.596     1328.785      665.335       92.085        0.283        0.104       59.102        7.206        0.015      335.220        5.708      863.086
12/18/2014  20:35:00     -119.602      -16.100      -10.622       22.045       23.811       14.373      485.976      566.985      206.586        0.797        0.063      120.681        9.211        0.006      334.822        5.049      863.103
12/18/2014  20:36:00      -87.417      -27.562       -6.775       13.427       11.590        8.574      180.288      134.317       73.517        0.442        0.019       91.659        2.496        0.001      334.896        5.171      863.104
12/18/2014  20:37:00      -38.149      -24.717       -4.200       23.572        8.708        6.280      555.620       75.837       39.441        0.138        0.034       45.456        9.324        0.042      335.167        5.621      863.098
12/18/2014  20:38:00       18.852       -0.905       -0.585       13.675       12.627        9.412      187.005      159.433       88.589        0.040        0.022       18.874        5.040        0.071      335.281        5.810      863.075
12/18/2014  20:39:00      -10.302      -35.996       -0.900       33.519       19.405        9.918     1123.523      376.550       98.363        0.150        0.080       37.441        9.389        0.063      335.180        5.644      863.067
12/18/2014  20:40:00      -97.546      -62.693       -3.333       30.717       25.092       17.341      943.550      629.626      300.724        0.766        0.094      115.955        8.113        0.005      335.006        5.355      863.052
12/18/2014  20:41:00      -65.876      -40.463        6.677       23.500       30.898       20.373      552.267      954.716      415.050        0.397        0.096       77.311       15.648        0.041      334.961        5.280      863.040
12/18/2014  20:42:00      -22.313      -15.713        3.832       24.255       24.622       14.249      588.303      606.253      203.033        0.108        0.070       27.291       10.981        0.162      334.990        5.328      863.031
12/18/2014  20:43:00       29.298       -3.817       10.915       28.332       13.178       13.571      802.718      173.647      184.168        0.108        0.058       29.546       10.519        0.127      335.002        5.347      863.023
12/18/2014  20:44:00       47.906       24.435       15.087       18.396       10.971       15.239      338.398      120.373      232.221        0.191        0.035       53.778        8.956        0.028      334.979        5.308      863.021
12/18/2014  20:45:00       39.471       13.195        8.127       19.391       17.143       16.381      376.014      293.896      268.337        0.137        0.047       41.618       14.623        0.123      335.093        5.498      863.024
12/18/2014  20:46:00        7.637        7.965       15.682       15.098       12.599       16.663      227.958      158.741      277.654        0.052        0.033       11.034       12.552        1.294      335.073        5.466      863.027
12/18/2014  20:47:00        3.687      -29.851        0.144       25.192       22.019       14.844      634.655      484.858      220.355        0.112        0.067       30.077       15.312        0.259      335.201        5.676      863.033
12/18/2014  20:48:00      -41.633       -7.499       -4.559        9.476       11.306       10.161       89.789      127.825      103.254        0.107        0.016       42.303        7.680        0.033      335.096        5.506      863.052
12/18/2014  20:49:00      -29.736      -10.610        2.129       14.951       14.969       11.603      223.525      224.071      134.640        0.079        0.029       31.572        5.205        0.027      335.083        5.481      863.059
12/18/2014  20:50:00      -10.737        1.223       -1.016       16.629        9.415        8.868      276.524       88.647       78.641        0.028        0.022       10.807        5.671        0.275      335.030        5.394      863.068
12/18/2014  20:51:00       -2.636        2.667       -3.253        4.997       10.030        5.410       24.966      100.608       29.273        0.009        0.008        3.749        2.515        0.450      335.119        5.542      863.076
12/18/2014  20:52:00      -25.335       -3.977       -4.673       17.890       11.593        9.360      320.044      134.400       87.611        0.061        0.027       25.646       10.538        0.169      335.089        5.492      863.086
12/18/2014  20:53:00      -21.039       -7.482       -0.764       23.409       12.222       10.463      547.980      149.368      109.475        0.065        0.040       22.330       11.464        0.264      335.052        5.431      863.106
12/18/2014  20:54:00      -54.958       -7.396      -10.013       13.382        6.828        9.684      179.089       46.628       93.774        0.175        0.016       55.453        8.880        0.026      335.083        5.482      863.112
12/18/2014  20:55:00      -32.175      -28.272       -2.861        9.443        9.188        7.365       89.178       84.425       54.242        0.104        0.011       42.832        4.674        0.012      335.143        5.582      863.108
12/18/2014  20:56:00      -44.447      -21.033       -3.209       20.664       12.765        6.845      426.991      162.942       46.855        0.153        0.032       49.173        6.600        0.018      335.159        5.608      863.095
12/18/2014  20:57:00      -94.696      -22.912       -8.082       21.042       23.412       11.897      442.786      548.104      141.542        0.534        0.057       97.428        9.618        0.010      335.141        5.578      863.077
12/18/2014  20:58:00      -87.586      -19.084       -1.208       22.910       19.483       13.013      524.853      379.597      169.337        0.456        0.054       89.641       11.596        0.017      335.107        5.522      863.072
12/18/2014  20:59:00      -65.076       -8.365        0.654       34.663       19.274       11.604     1201.539      371.473      134.643        0.301        0.085       65.612       14.757        0.051      335.004        5.352      863.069
12/18/2014  21:00:00      -40.300      -15.482        3.723       31.788       21.416       14.018     1010.467      458.666      196.498        0.177        0.083       43.172       17.639        0.167      335.034        5.400      863.073
12/18/2014  21:01:00      -74.216      -16.090       -0.275       38.399       20.327       14.641     1474.451      413.198      214.352        0.393        0.105       75.940       15.352        0.041      335.011        5.362      863.079
12/18/2014  21:02:00     -107.194      -30.198       -4.221       22.441       19.671       14.834      503.582      386.934      220.043        0.677        0.056      111.366       13.225        0.014      334.826        5.054      863.085
12/18/2014  21:03:00     -102.398        2.457       -3.710       34.428       26.534       19.334     1185.297      704.029      373.799        0.638        0.113      102.427       13.222        0.017      334.710        4.862      863.096
12/18/2014  21:04:00      -67.573      -23.145        5.681       46.358       29.147       24.263     2149.042      849.571      588.677        0.436        0.179       71.427       26.725        0.140      334.855        5.103      863.096
12/18/2014  21:05:00      -37.413        0.500        6.796       25.870       17.413       17.590      669.269      303.209      309.405        0.136        0.064       37.416       15.078        0.162      334.880        5.145      863.094
12/18/2014  21:06:00      -24.471      -22.801        5.806       16.275       11.776       12.750      264.873      138.681      162.554        0.086        0.028       33.447       10.455        0.098      334.971        5.296      863.088
12/18/2014  21:07:00      -35.056      -25.724       -2.404       16.015        9.307        4.758      256.470       86.611       22.642        0.113        0.018       43.482        2.283        0.003      334.996        5.337      863.083
12/18/2014  21:08:00      -27.881      -10.662       -1.893       14.244        9.809        5.956      202.882       96.220       35.478        0.061        0.017       29.850        6.998        0.055      334.939        5.243      863.071
12/18/2014  21:09:00      -17.545        5.038        1.362       10.786        9.411        9.923      116.330       88.558       98.472        0.032        0.015       18.254        8.117        0.198      334.918        5.208      863.048
12/18/2014  21:10:00      -12.250        1.443       -0.463       11.546        3.263        6.488      133.310       10.650       42.096        0.017        0.009       12.335        7.613        0.381      334.958        5.274      863.030
12/18/2014  21:11:00       36.402       10.557       -4.093       15.413       15.020        9.725      237.572      225.589       94.568        0.101        0.028       37.902        5.767        0.023      334.943        5.250      863.026
12/18/2014  21:12:00       23.340       14.199       -0.265       14.419       13.057       10.707      207.903      170.491      114.647        0.062        0.025       27.320        6.222        0.052      334.853        5.099      863.029
12/18/2014  21:13:00       34.677       26.409       10.006       13.147       10.799        7.831      172.831      116.629       61.328        0.118        0.018       43.589        6.424        0.022      334.815        5.037      863.025
12/18/2014  21:14:00       39.104       34.535       20.107       17.527       12.269       11.301      307.203      150.524      127.719        0.186        0.029       52.171        9.536        0.033      334.771        4.963      863.018
12/18/2014  21:15:00       48.723       49.679       36.587       19.603       13.274       11.988      384.292      176.194      143.722        0.344        0.035       69.584        6.596        0.009      334.897        5.174      863.012
12/18/2014  21:16:00       65.049       28.575        9.334       18.133       21.007       17.894      328.820      441.302      320.207        0.311        0.055       71.049       11.094        0.024      335.020        5.378      863.022
12/18/2014  21:17:00       41.423       23.065       12.538       20.188       11.575       11.270      407.552      133.982      127.005        0.154        0.033       47.412        8.837        0.035      334.988        5.324      863.022
12/18/2014  21:18:00       21.979       14.379        2.421       15.159        9.258        7.194      229.801       85.719       51.754        0.053        0.018       26.265        4.161        0.025      334.972        5.299      863.019
12/18/2014  21:19:00       13.585       19.483        1.479        9.041        8.120        4.455       81.745       65.930       19.847        0.037        0.008       23.752        3.926        0.027      334.987        5.324      863.011
12/18/2014  21:20:00        5.550       33.482       -1.701        7.173        7.923        2.550       51.449       62.773        6.501        0.064        0.006       33.939        2.729        0.006      335.037        5.406      863.007
12/18/2014  21:21:00        6.221       24.150       -0.758        9.906       17.388        6.376       98.136      302.336       40.650        0.053        0.022       24.938        5.898        0.056      335.042        5.415      863.012
12/18/2014  21:22:00        1.134       13.516        2.645        9.750       17.208        7.336       95.064      296.114       53.810        0.032        0.022       13.564        8.829        0.424      335.008        5.360      863.012
12/18/2014  21:23:00        0.160      -14.501        1.166        6.748        7.081        9.312       45.533       50.143       86.716        0.020        0.009       14.501        4.589        0.100      334.943        5.250      863.005
12/18/2014  21:24:00       18.770        6.239        6.278       21.706       13.283       12.881      471.159      176.446      165.918        0.062        0.041       19.780       14.527        0.539      334.931        5.230      862.986
12/18/2014  21:25:00       71.488       29.031        7.625       17.194       12.474       14.143      295.634      155.604      200.025        0.333        0.033       77.158       12.513        0.026      334.869        5.125      862.959
12/18/2014  21:26:00       69.133       42.962       22.172       21.141       12.730       18.965      446.940      162.045      359.688        0.404        0.048       81.395        3.214        0.002      334.896        5.170      862.953
12/18/2014  21:27:00       63.593       34.285       16.958       21.329       15.949       18.020      454.910      254.376      324.715        0.327        0.052       72.246       12.212        0.029      334.951        5.263      862.954
12/18/2014  21:28:00       52.251       25.002       11.329       11.003        7.769       12.690      121.071       60.354      161.040        0.191        0.017       57.924        6.260        0.012      334.950        5.259      862.960
12/18/2014  21:29:00       30.402       21.354        5.128        9.988        8.374        7.244       99.754       70.116       52.475        0.081        0.011       37.152        5.748        0.024      334.933        5.233      862.965
12/18/2014  21:30:00        3.884        0.476        7.065       11.457       13.742        7.153      131.258      188.844       51.161        0.022        0.019        3.913        5.519        1.990      334.920        5.211      862.961
12/18/2014  21:31:00       -2.327        0.316        1.977        6.112        4.178        4.182       37.360       17.459       17.486        0.004        0.004        2.348        2.480        1.115      334.888        5.156      862.956
12/18/2014  21:32:00        7.049        5.444       -0.204       10.879        7.186        5.647      118.348       51.639       31.887        0.014        0.010        8.907        4.325        0.236      334.978        5.307      862.964
12/18/2014  21:33:00       -2.748       -2.082        2.143        9.473       14.491        7.108       89.742      209.980       50.525        0.018        0.018        3.447        2.461        0.510      334.903        5.181      862.981
12/18/2014  21:34:00      -17.684      -14.434        2.344       11.169        7.219        7.079      124.748       52.116       50.118        0.038        0.011       22.827        4.008        0.031      334.812        5.031      862.982
12/18/2014  21:35:00      -33.443      -10.173       -4.770        6.345       10.204        5.947       40.257      104.115       35.365        0.071        0.009       34.956        2.589        0.005      334.805        5.019      862.987
12/18/2014  21:36:00      -37.863       -5.990       -4.680        8.185        7.053        6.349       66.995       49.740       40.308        0.082        0.008       38.334        4.896        0.016      334.829        5.059      862.990
12/18/2014  21:37:00      -44.896       -9.490       -1.044       10.773       11.221        8.986      116.048      125.905       80.751        0.121        0.016       45.888        6.148        0.018      334.918        5.210      862.997
12/18/2014  21:38:00      -51.229       -8.224       -7.313       29.724       13.870        9.556      883.538      192.368       91.311        0.196        0.058       51.885        6.474        0.016      334.884        5.151      863.018
12/18/2014  21:39:00      -91.732      -24.665       -7.068       14.400       11.374        8.784      207.348      129.370       77.158        0.474        0.021       94.990        8.543        0.008      334.857        5.106      863.038
12/18/2014  21:40:00      -99.339      -18.305      -10.503       13.600       11.555        9.367      184.950      133.513       87.736        0.536        0.020      101.011        6.467        0.004      334.718        4.876      863.047
12/18/2014  21:41:00     -100.327        1.108       -5.184       31.372       21.362       16.067      984.206      456.352      258.139        0.590        0.085      100.334       15.845        0.025      334.910        5.195      863.043
12/18/2014  21:42:00      -75.403      -13.707       -4.720       31.912       22.688       16.441     1018.407      514.746      270.295        0.385        0.090       76.639       16.155        0.044      334.950        5.260      863.028
12/18/2014  21:43:00      -95.180      -29.276       -4.231       37.847       24.583       14.463     1432.383      604.335      209.165        0.609        0.112       99.580       16.400        0.027      334.941        5.246      863.013
12/18/2014  21:44:00      -91.500      -35.351       -6.382       25.984       26.517       15.755      675.156      703.164      248.206        0.564        0.081       98.092       14.867        0.023      334.864        5.118      863.008
12/18/2014  21:45:00     -107.347      -29.157       -7.486       22.938       17.992       13.145      526.131      323.727      172.781        0.673        0.051      111.237       12.837        0.013      334.667        4.791      863.009
12/18/2014  21:46:00      -85.930       -7.081       -6.462       21.795       19.520       14.921      475.020      381.042      222.626        0.428        0.054       86.221       12.569        0.021      334.643        4.750      863.000
12/18/2014  21:47:00      -58.264      -18.919       -2.383       20.061       16.333       10.402      402.464      266.774      108.210        0.227        0.039       61.259        9.825        0.026      334.719        4.879      862.989
12/18/2014  21:48:00      -68.873      -22.944       -7.913       10.780        7.336        6.762      116.202       53.820       45.729        0.277        0.011       72.594        5.424        0.006      334.801        5.014      862.965
12/18/2014  21:49:00      -36.619        4.158       -0.580       19.972       28.808       14.879      398.901      829.881      221.394        0.140        0.073       36.854        5.952        0.026      334.896        5.169      862.938
12/18/2014  21:50:00      -21.438       -6.999        1.010       26.542       21.949       12.085      704.491      481.760      146.038        0.092        0.067       22.551       13.796        0.374      334.911        5.197      862.916
12/18/2014  21:51:00       -0.768      -21.126        4.734       32.478       28.213       13.068     1054.848      795.990      170.771        0.125        0.101       21.140       14.945        0.500      334.804        5.018      862.893
12/18/2014  21:52:00      -33.491      -21.103       -1.927       16.600       17.020       13.540      275.553      289.694      183.331        0.116        0.037       39.585        9.204        0.054      334.714        4.869      862.873
12/18/2014  21:53:00       -8.918      -46.569       -0.884       13.848       11.323        9.835      191.770      128.202       96.735        0.133        0.021       47.415        4.830        0.010      334.628        4.728      862.851
12/18/2014  21:54:00      -34.074      -30.154       -1.020       16.326       12.360       10.460      266.555      152.781      109.414        0.130        0.026       45.501        5.923        0.017      334.716        4.872      862.805
12/18/2014  21:55:00      -21.564      -20.093       -4.135       10.230        6.301        5.888      104.647       39.698       34.673        0.053        0.009       29.474        5.933        0.041      334.824        5.050      862.734
12/18/2014  21:56:00       22.280       17.956        6.866       10.635       12.356       11.556      113.093      152.680      133.541        0.063        0.020       28.615        7.863        0.076      334.870        5.128      862.670
12/18/2014  21:57:00       41.115       37.263       16.188       16.969       16.880       18.241      287.961      284.941      332.738        0.212        0.045       55.488       12.964        0.055      334.792        4.999      862.631
12/18/2014  21:58:00       48.101       27.311        1.962       17.796       10.304        7.946      316.713      106.170       63.134        0.177        0.024       55.313        7.616        0.019      334.764        4.950      862.628
12/18/2014  21:59:00       16.478       14.159        0.855        8.729        4.239        3.765       76.190       17.973       14.174        0.029        0.005       21.725        2.500        0.013      334.828        5.060      862.646
12/18/2014  22:00:00      -13.248       10.594        1.935       12.089        6.577        4.376      146.137       43.255       19.149        0.025        0.010       16.963        4.957        0.085      334.862        5.113      862.686
12/18/2014  22:01:00      -35.948        9.586        5.446       23.049       30.533       15.149      531.279      932.260      229.481        0.155        0.085       37.204       10.941        0.086      334.750        4.928      862.736
12/18/2014  22:02:00      -40.739       17.341        7.337       47.898       26.372       17.305     2294.187      695.488      299.474        0.265        0.164       44.276       20.871        0.222      334.958        5.275      862.797
12/18/2014  22:03:00      -96.129       35.792       -5.704       50.209       29.250       23.460     2520.979      855.567      550.351        0.724        0.196      102.576       24.653        0.058      335.025        5.387      862.835
12/18/2014  22:04:00     -128.756       15.081      -12.730       26.388       26.883       16.486      696.303      722.717      271.783        0.933        0.085      129.636       11.317        0.008      334.996        5.338      862.834
12/18/2014  22:05:00      -38.696        3.435        0.972       20.060       19.656       15.140      402.402      386.351      229.235        0.126        0.051       38.848        8.571        0.049      334.807        5.022      862.829
12/18/2014  22:06:00      -20.567       -1.579       -2.059       12.655        8.991        9.716      160.149       80.834       94.408        0.038        0.017       20.628        5.731        0.077      334.768        4.960      862.818
12/18/2014  22:07:00       -3.825      -17.356       -5.133       10.761        9.184        7.704      115.809       84.355       59.357        0.030        0.013       17.772        5.356        0.091      334.830        5.061      862.823
12/18/2014  22:08:00      -38.655      -20.936       -7.785       23.761        9.959        7.686      564.568       99.174       59.075        0.136        0.036       43.961        4.284        0.009      334.766        4.954      862.830
12/18/2014  22:09:00      -61.437      -23.786       -7.949        9.575       13.836        9.587       91.689      191.440       91.902        0.239        0.019       65.880        6.503        0.010      334.700        4.846      862.846
12/18/2014  22:10:00      -87.881      -26.585      -11.872       15.825        9.529        7.639      250.425       90.798       58.349        0.449        0.020       91.814        6.306        0.005      334.665        4.788      862.863
12/18/2014  22:11:00     -117.503      -26.201      -12.370       12.906       17.307       10.359      166.561      299.525      107.316        0.761        0.029      120.388        6.987        0.003      334.606        4.689      862.897
12/18/2014  22:12:00     -114.811       -8.290      -11.251       32.848       23.340       21.735     1078.991      544.776      472.391        0.774        0.105      115.110       22.392        0.038      334.678        4.810      862.932
12/18/2014  22:13:00      -94.965      -31.572      -11.203       26.563       26.580       16.943      705.593      706.473      287.073        0.592        0.085      100.075       16.017        0.026      334.708        4.858      862.949
12/18/2014  22:14:00      -81.579       -9.824       -6.960       32.503       27.058       19.335     1056.433      732.112      373.837        0.448        0.108       82.168       17.949        0.048      334.952        5.263      862.969
12/18/2014  22:15:00      -70.936        0.827        0.922       31.653       28.219       21.347     1001.899      796.335      455.698        0.364        0.113       70.941       18.225        0.066      335.010        5.361      862.994
12/18/2014  22:16:00     -141.556       14.626      -17.135       47.489       28.928       23.796     2255.232      836.856      566.266        1.210        0.183      142.310       24.097        0.029      334.933        5.231      863.027
12/18/2014  22:17:00     -135.071       20.085      -11.810       55.916       42.677       30.200     3126.655     1821.368      912.045        1.232        0.293      136.556       32.623        0.057      334.763        4.951      863.055
12/18/2014  22:18:00     -142.059       54.631      -21.535       40.294       35.636       20.029     1623.624     1269.922      401.178        1.346        0.165      152.201       14.205        0.009      334.661        4.781      863.077
12/18/2014  22:19:00     -109.716       33.127      -10.446       36.383       35.324       19.517     1323.697     1247.796      380.906        0.810        0.148      114.608       19.391        0.029      334.656        4.773      863.099
12/18/2014  22:20:00     -105.123      -27.862      -13.969       35.328       19.078       20.336     1248.040      363.980      413.564        0.702        0.101      108.753       16.774        0.024      334.512        4.534      863.121
12/18/2014  22:21:00      -94.737      -10.739       -8.412       32.303       26.248       18.529     1043.474      688.943      343.340        0.562        0.104       95.344        8.357        0.008      334.566        4.623      863.146
12/18/2014  22:22:00     -109.431       -8.424       -9.809       36.876       23.289       20.957     1359.843      542.357      439.193        0.724        0.117      109.754       18.476        0.028      334.565        4.622      863.174
12/18/2014  22:23:00      -91.077      -38.880      -11.561       22.678       21.500       14.298      514.275      462.237      204.429        0.556        0.059       99.028       14.928        0.023      334.547        4.591      863.198
12/18/2014  22:24:00     -101.883      -26.919      -19.196       10.693       21.367        8.553      114.336      456.560       73.160        0.606        0.032      105.379        7.073        0.005      334.534        4.571      863.214
12/18/2014  22:25:00     -128.815      -31.676      -24.833       16.913       12.602       11.521      286.046      158.822      132.732        0.940        0.029      132.652       10.189        0.006      334.564        4.621      863.237
12/18/2014  22:26:00     -112.098      -39.025      -13.132       26.592       26.869       17.572      707.155      721.961      308.765        0.800        0.087      118.697       11.725        0.010      334.631        4.732      863.258
12/18/2014  22:27:00     -122.113      -21.607       -8.095       21.737       20.717       16.314      472.496      429.215      266.142        0.831        0.058      124.010       11.171        0.008      334.570        4.628      863.252
12/18/2014  22:28:00      -91.176      -27.317       -7.355       26.299       18.916       17.883      691.659      357.798      319.814        0.524        0.068       95.180       16.069        0.029      334.584        4.652      863.235
12/18/2014  22:29:00      -80.207      -11.961      -10.846       26.652       29.287       16.666      710.330      857.714      277.766        0.427        0.092       81.093       10.080        0.015      334.778        4.975      863.217
12/18/2014  22:30:00      -57.804       -7.316       -2.449       26.010       20.442       14.248      676.502      417.885      203.000        0.235        0.065       58.265       13.698        0.055      334.936        5.238      863.192
12/18/2014  22:31:00      -53.534      -28.480       -6.084       14.629        8.618        6.476      213.998       74.271       41.937        0.202        0.017       60.638        4.978        0.007      334.804        5.018      863.155
12/18/2014  22:32:00      -16.472      -16.829        9.762       21.987       10.975        9.356      483.417      120.456       87.544        0.067        0.035       23.549       12.636        0.288      334.895        5.168      863.091
12/18/2014  22:33:00       17.769        1.722        6.735       11.887        7.014        7.346      141.290       49.200       53.959        0.030        0.012       17.853        6.271        0.123      334.788        4.990      863.048
12/18/2014  22:34:00       31.933       -2.095        0.008       10.018       17.376       13.366      100.356      301.943      178.660        0.080        0.029       32.002        8.876        0.077      334.794        5.002      863.012
12/18/2014  22:35:00       71.711       37.503       22.274       26.943       17.196       18.582      725.930      295.690      345.293        0.421        0.068       80.925        8.211        0.010      334.781        4.979      862.951
12/18/2014  22:36:00       84.425       52.203       29.749       24.099       19.699       23.951      580.779      388.048      573.658        0.614        0.077       99.261       12.116        0.015      334.836        5.071      862.860
12/18/2014  22:37:00       85.321       66.073       21.050       24.471       21.826       22.365      598.814      476.365      500.215        0.683        0.079      107.913       12.969        0.014      334.755        4.936      862.801
12/18/2014  22:38:00       99.297       59.319       12.678       32.373       26.999       23.606     1048.043      728.946      557.264        0.794        0.117      115.667        5.099        0.002      334.732        4.897      862.759
12/18/2014  22:39:00      115.161       64.100       -0.235       32.133       24.296       18.285     1032.518      590.293      334.356        0.966        0.098      131.798       10.898        0.007      334.618        4.710      862.693
12/18/2014  22:40:00       59.440       60.303        4.209       40.396       31.963       27.337     1631.841     1021.624      747.309        0.529        0.170       84.673       16.840        0.040      334.544        4.584      862.630
12/18/2014  22:41:00       22.243       73.016       -1.478       32.030       55.753       28.561     1025.898     3108.386      815.712        0.539        0.247       76.329       29.592        0.150      334.549        4.595      862.625
12/18/2014  22:42:00      -37.833       71.150       -9.047       24.181       57.167       22.747      584.731     3268.011      517.415        0.547        0.219       80.583       24.912        0.096      334.749        4.927      862.681
12/18/2014  22:43:00      -95.575       53.907      -19.000       34.288       43.344       23.437     1175.647     1878.729      549.270        0.800        0.180      109.729       26.355        0.058      334.857        5.105      862.752
12/18/2014  22:44:00     -106.095      -19.392      -10.549       30.341       37.645       18.779      920.604     1417.144      352.645        0.722        0.135      107.853       12.658        0.014      334.802        5.015      862.812
12/18/2014  22:45:00      -85.507      -21.493      -10.154       28.391       33.333       16.635      806.048     1111.121      276.729        0.503        0.110       88.167       12.879        0.021      334.827        5.058      862.813
12/18/2014  22:46:00      -18.862      -24.259       -6.047       27.716       18.752       15.728      768.193      351.638      247.367        0.117        0.068       30.729       12.308        0.160      334.785        4.986      862.748
12/18/2014  22:47:00       33.862       39.253       -7.082       14.264       19.848       13.066      203.450      393.945      170.727        0.175        0.038       51.840       15.151        0.085      334.948        5.257      862.652
12/18/2014  22:48:00       53.007       33.643       -0.038       10.387       13.503        8.206      107.885      182.329       67.345        0.215        0.018       62.782        1.347        0.000      334.818        5.042      862.613
12/18/2014  22:49:00       45.946       29.547       -4.560       13.072       12.777       14.468      170.871      163.249      209.321        0.177        0.027       54.627       11.330        0.043      334.883        5.148      862.646
12/18/2014  22:50:00       45.304       13.163       11.814       20.739       12.426       12.893      430.119      154.409      166.224        0.156        0.038       47.178       10.075        0.046      334.899        5.175      862.696
12/18/2014  22:51:00        0.761       -3.087        5.956        9.223        7.819       11.545       85.061       61.141      133.296        0.016        0.014        3.179        6.760        4.521      334.918        5.206      862.765
12/18/2014  22:52:00      -46.556      -12.858       -5.417       35.611       15.246        9.123     1268.117      232.450       83.221        0.197        0.079       48.299        7.112        0.022      334.929        5.226      862.804
12/18/2014  22:53:00     -113.402      -17.598       -8.548       17.688       13.651        8.435      312.866      186.357       71.147        0.691        0.029      114.759        4.596        0.002      334.796        5.005      862.832
12/18/2014  22:54:00     -102.049      -19.910       -6.563       23.569       16.665       14.192      555.476      277.706      201.410        0.594        0.052      103.973       13.650        0.017      334.710        4.862      862.837
12/18/2014  22:55:00      -80.366      -30.078      -11.261       18.735       12.663       12.465      350.998      160.360      155.368        0.408        0.033       85.810       10.150        0.014      334.748        4.925      862.813
12/18/2014  22:56:00       -7.918      -28.787        3.245       19.557       10.109       12.714      382.482      102.199      161.653        0.077        0.032       29.856       10.701        0.128      334.873        5.133      862.767
12/18/2014  22:57:00       10.239       21.086       28.819       14.123       17.367       18.110      199.457      301.597      327.990        0.110        0.041       23.440       15.897        0.460      334.825        5.054      862.728
12/18/2014  22:58:00       -4.148       35.696       53.567       14.981       23.429       14.742      224.423      548.923      217.330        0.258        0.050       35.936       15.887        0.195      334.869        5.127      862.714
12/18/2014  22:59:00       10.028        6.899       20.939       24.286       29.435       22.564      589.821      866.406      509.125        0.128        0.098       12.172       18.822        2.391      334.881        5.146      862.725
12/18/2014  23:00:00       11.229      -60.001       -7.153       29.313       18.650       16.776      859.264      347.837      281.418        0.263        0.074       61.043        7.569        0.015      335.015        5.369      862.759
12/18/2014  23:01:00      -40.320      -33.406        4.983       37.651       32.904       15.066     1417.597     1082.672      226.992        0.275        0.136       52.361       14.957        0.082      334.844        5.085      862.785
12/18/2014  23:02:00      -63.332      -47.849        5.879       33.202       28.311       17.228     1102.396      801.537      296.788        0.427        0.110       79.375       10.784        0.018      334.770        4.962      862.800
12/18/2014  23:03:00      -41.401      -52.152       16.753       47.351       34.487       26.178     2242.152     1189.373      685.272        0.441        0.206       66.587       28.200        0.179      334.826        5.056      862.809
12/18/2014  23:04:00      -92.018      -89.840       -3.207       25.605       37.946       18.749      655.637     1439.933      351.540        0.950        0.122      128.602       16.204        0.016      334.797        5.007      862.795
12/18/2014  23:05:00      -58.827      -71.857       -2.468       17.160       27.533       12.179      294.466      758.060      148.332        0.492        0.060       92.866        7.714        0.007      334.766        4.955      862.746
12/18/2014  23:06:00      -52.196      -44.283       -3.113       24.502       31.443       17.291      600.354      988.644      298.992        0.329        0.094       68.450       17.897        0.068      334.743        4.916      862.686
12/18/2014  23:07:00     -103.821       21.811      -11.477       54.254       25.048       18.150     2943.465      627.425      329.438        0.764        0.195      106.087       23.183        0.048      334.995        5.337      862.666
12/18/2014  23:08:00     -129.448      -18.527       -0.565       51.634       44.201       24.038     2666.069     1953.768      577.848        1.115        0.260      130.767       27.450        0.044      334.800        5.011      862.691
12/18/2014  23:09:00     -119.602        2.381       -4.825       71.905       48.173       30.482     5170.386     2320.633      929.173        1.138        0.421      119.625       34.643        0.084      334.546        4.589      862.719
12/18/2014  23:10:00     -136.598      -11.179      -13.985       42.350       36.578       27.002     1793.556     1337.964      729.123        1.142        0.193      137.055       26.587        0.038      334.608        4.693      862.733
12/18/2014  23:11:00      -47.506        6.637        2.951       29.315       21.913       18.073      859.382      480.166      326.623        0.199        0.083       47.967       17.368        0.131      334.602        4.682      862.755
12/18/2014  23:12:00      -63.942      -19.012       -3.959       19.483       20.836       13.974      379.589      434.144      195.260        0.274        0.050       66.708       11.913        0.032      334.659        4.777      862.838
12/18/2014  23:13:00      -59.771      -39.287      -10.817       13.321        5.884        5.395      177.458       34.626       29.106        0.274        0.012       71.526        6.034        0.007      334.702        4.849      862.924
12/18/2014  23:14:00      -68.353      -41.425      -10.650       18.467        9.054        7.235      341.022       81.968       52.342        0.349        0.024       79.926        8.443        0.011      334.736        4.906      862.995
12/18/2014  23:15:00      -76.530      -44.537        1.530       36.756       27.276       19.017     1350.968      743.970      361.649        0.515        0.123       88.546       16.581        0.035      334.664        4.785      863.040
12/18/2014  23:16:00      -22.216      -13.378        7.618       23.783       25.100       11.509      565.614      630.008      132.457        0.103        0.066       25.934       11.690        0.203      334.569        4.627      863.011
12/18/2014  23:17:00       60.905       46.615       23.187       43.053       24.940       20.691     1853.537      622.002      428.118        0.466        0.145       76.697       13.616        0.032      334.540        4.580      862.924
12/18/2014  23:18:00       52.315       39.222       18.947       38.679       28.186       19.573     1496.089      794.459      383.099        0.365        0.134       65.385       11.403        0.030      334.478        4.476      862.870
12/18/2014  23:19:00       -9.168       28.956       54.701       15.972       26.820       14.517      255.098      719.288      210.742        0.255        0.059       30.373       14.206        0.219      334.619        4.711      862.875
12/18/2014  23:20:00       92.538       55.305       29.456       47.255       31.397       27.378     2233.025      985.777      749.557        0.823        0.198      107.805       18.600        0.030      334.609        4.694      862.820
12/18/2014  23:21:00      102.279       87.188       53.650       46.680       37.848       35.741     2179.068     1432.438     1277.428        1.291        0.244      134.398       28.214        0.044      334.518        4.543      862.755
12/18/2014  23:22:00       71.854       95.365       80.296       30.328       35.785       31.293      919.798     1280.585      979.252        1.194        0.159      119.405       19.689        0.027      334.459        4.446      862.748
12/18/2014  23:23:00       45.068       56.604       66.597       41.828       31.336       26.227     1749.545      981.932      687.831        0.654        0.171       72.354       16.375        0.051      334.508        4.527      862.766
12/18/2014  23:24:00       49.888      -43.477       19.530       44.540       61.708       36.261     1983.803     3807.927     1314.857        0.593        0.355       66.174       44.116        0.444      334.483        4.486      862.803
12/18/2014  23:25:00      108.618     -105.316       -6.270       25.788       32.658       18.763      665.011     1066.536      352.045        1.251        0.104      151.292        9.686        0.004      334.552        4.599      862.825
12/18/2014  23:26:00       53.893       15.638       34.476       28.083       55.008       25.716      788.671     3025.916      661.334        0.441        0.224       56.116       28.845        0.264      334.482        4.483      862.786
12/18/2014  23:27:00       94.373       61.433       30.441       42.861       28.916       27.267     1837.108      836.109      743.495        0.851        0.171      112.607       12.408        0.012      334.441        4.417      862.695
12/18/2014  23:28:00      103.409       55.450        8.003       32.049       22.799       23.127     1027.149      519.808      534.858        0.796        0.104      117.337        9.269        0.006      334.365        4.292      862.632
12/18/2014  23:29:00       22.010       64.092       -8.693       25.788       25.205       20.015      665.038      635.276      400.611        0.318        0.085       67.766       15.179        0.050      334.313        4.205      862.619
12/18/2014  23:30:00       11.271       55.812      -12.061       22.895       15.424       12.413      524.182      237.911      154.094        0.215        0.046       56.939        5.340        0.009      334.459        4.447      862.635
12/18/2014  23:31:00       52.475       47.984        3.286       22.764       18.443       16.281      518.184      340.133      265.081        0.309        0.056       71.106       12.423        0.031      334.309        4.200      862.622
12/18/2014  23:32:00       78.544       57.245       14.691       26.839       19.227       17.515      720.313      369.675      306.771        0.553        0.070       97.191       13.101        0.018      334.257        4.110      862.641
12/18/2014  23:33:00      112.469       66.467       12.608       32.741       26.871       36.016     1071.960      722.053     1297.141        1.016        0.155      130.641       22.322        0.029      334.313        4.203      862.608
12/18/2014  23:34:00      104.475       67.748       31.828       25.143       22.374       29.013      632.165      500.602      841.737        0.925        0.099      124.518       16.336        0.017      334.275        4.141      862.530
12/18/2014  23:35:00       81.552       67.714       54.539       47.423       35.934       36.314     2248.942     1291.269     1318.742        0.953        0.243      105.999       27.855        0.069      334.356        4.275      862.455
12/18/2014  23:36:00       90.253       71.612       22.465       38.481       28.831       30.425     1480.753      831.200      925.682        0.851        0.162      115.212       13.178        0.013      334.352        4.268      862.404
12/18/2014  23:37:00       71.609       39.305        0.671       29.383       25.290       17.937      863.368      639.575      321.720        0.425        0.091       81.687       13.082        0.026      334.278        4.145      862.392
12/18/2014  23:38:00       20.222       -6.180        2.217       20.647       29.930       10.967      426.315      895.777      120.267        0.095        0.072       21.145        9.390        0.197      334.281        4.151      862.416
12/18/2014  23:39:00        8.250      -65.333       -4.776       19.511       13.740       16.677      380.694      188.780      278.121        0.260        0.042       65.852        7.203        0.012      334.412        4.369      862.426
12/18/2014  23:40:00       -9.818      -33.537        2.197       22.431       25.308       19.081      503.132      640.511      364.085        0.137        0.075       34.945       20.033        0.329      334.388        4.328      862.412
12/18/2014  23:41:00      -23.080      -10.796      -10.931       16.497       23.461       15.455      272.139      550.418      238.866        0.091        0.053       25.480       15.546        0.372      334.402        4.353      862.399
12/18/2014  23:42:00       -2.152        4.562       -3.140       21.891       16.391       16.872      479.219      268.674      284.674        0.053        0.052        5.044       13.943        7.639      334.431        4.399      862.387
12/18/2014  23:43:00       29.002       41.853       29.348       26.963       15.389       15.955      726.990      236.823      254.550        0.234        0.061       50.919       17.827        0.123      334.385        4.323      862.364
12/18/2014  23:44:00      -12.390       29.429       -1.950       46.418       16.855       11.931     2154.605      284.100      142.359        0.180        0.129       31.931       17.732        0.308      334.436        4.409      862.368
12/18/2014  23:45:00     -112.871        2.105       -8.306       34.575       26.014       17.836     1195.416      676.736      318.119        0.750        0.110      112.891       19.383        0.029      334.359        4.281      862.390
12/18/2014  23:46:00     -108.104      -36.809       -2.807       37.107       38.155       20.563     1376.964     1455.770      422.850        0.815        0.163      114.198       20.783        0.033      334.188        3.996      862.388
12/18/2014  23:47:00     -100.483      -45.427      -11.215       49.790       35.200       16.258     2478.999     1239.018      264.316        0.813        0.199      110.275        9.966        0.008      334.128        3.896      862.358
12/18/2014  23:48:00        3.416       -6.766       -1.351       25.914       26.869       21.089      671.552      721.918      444.755        0.095        0.092        7.579       12.933        2.912      334.158        3.946      862.315
12/18/2014  23:49:00       25.608       66.201       58.911       41.724       37.347       30.302     1740.867     1394.777      918.228        0.628        0.203       70.981       27.358        0.149      334.161        3.952      862.250
12/18/2014  23:50:00       55.187       54.328       35.462       51.700       25.477       31.555     2672.936      649.102      995.693        0.579        0.216       77.441       34.062        0.193      334.178        3.979      862.174
12/18/2014  23:51:00       40.917       35.158       27.164       35.730       30.816       16.721     1276.604      949.629      279.587        0.308        0.125       53.947       12.669        0.055      334.211        4.034      862.135
12/18/2014  23:52:00      -34.092      -11.668       -8.391       38.672       13.425        9.283     1495.512      180.225       86.178        0.157        0.088       36.033        9.663        0.072      334.279        4.146      862.153
12/18/2014  23:53:00     -128.222      -21.771      -12.937       31.900       33.339       19.763     1017.634     1111.512      390.580        0.980        0.126      130.057       12.819        0.010      334.258        4.113      862.189
12/18/2014  23:54:00     -135.598      -21.007       -8.615       44.699       37.086       22.669     1998.007     1375.382      513.892        1.139        0.194      137.216       19.748        0.021      334.148        3.928      862.224
12/18/2014  23:55:00     -105.490        3.571        1.888       60.072       40.268       29.042     3608.702     1621.500      843.448        0.861        0.304      105.550       30.756        0.085      333.956        3.612      862.234
12/18/2014  23:56:00     -128.820        5.595      -14.154       40.120       42.249       25.606     1609.589     1784.967      655.669        1.044        0.203      128.942       24.367        0.036      334.098        3.846      862.192
12/18/2014  23:57:00     -132.592       42.951      -14.567       33.501       22.527       19.082     1122.302      507.481      364.129        1.082        0.100      139.375       12.996        0.009      334.112        3.870      862.128
12/18/2014  23:58:00     -122.993       35.695       -8.293       30.215       25.526       19.729      912.963      651.597      389.230        0.921        0.098      128.068       14.512        0.013      334.089        3.832      862.118
12/18/2014  23:59:00      -81.171      -32.543       -6.974       38.160       35.303       18.757     1456.185     1246.308      351.832        0.537        0.153       87.452       17.670        0.041      334.099        3.848      862.147
